GFSNGP_prec_cloud_003.txt.gz
Cloud_Cover
6 44 88 100 54 77 74 91 6 13 7 17 72 100 96 94 99 67 99 97 100 100 100 100 90 100 100 100 97 100 77 100 29 6 9 5 5 21 100 98 92 100 99 81
100 100 30 99 100 31 5 4 5 5 34 100 95 99 36 100 100 100 100 100 95 6 67 65 92 92 66 82 5 44 100 100 100 100 100 100 100 100 100 100 88 95 100 100
90 95 99 100 100 100 100 100 23 60 42 66 39 72 62 94 89 70 43 6 15 85 66 10 87 98 14 5 5 90 100 100 100 100 100 100 100 100 100 100 100 100 100 98
62 98 100 6 0 1 5 5 49 5 5 92 10 81 100 100 100 84 6 33 36 34 93 85 34 11 5 7 76 100 100 95 79 100 100 100 100 100 100 100 100 100 66 5
92 99 36 5 4 5 5 58 5 22 5 18 55 17 7 28 37 98 60 45 7 5 32 53 26 5 5 66 78 94 48 47 80 81 100 100 100 100 100 74 83 48 5 0
98 85 93 61 5 5 5 48 93 98 66 96 100 100 7 100 22 5 55 68 31 6 5 9 100 32 98 98 86 66 100 100 100 100 100 91 100 100 32 37 41 5 2 5
100 68 68 14 5 5 5 20 11 77 78 100 100 100 100 95 80 5 9 100 100 54 38 26 43 93 100 58 99 100 100 100 100 100 100 100 99 53 49 55 5 5 5 5
90 98 62 9 5 35 5 6 98 63 73 99 83 89 100 100 98 28 66 11 84 25 11 100 63 100 70 100 100 100 100 100 100 100 100 100 96 68 33 5 5 5 5 5
12 5 4 17 94 10 99 59 6 77 50 99 100 100 100 100 73 36 94 72 5 23 97 97 100 100 100 100 100 100 100 100 100 100 100 100 43 5 5 5 5 34 5 5
37 6 5 81 27 93 17 11 50 97 100 100 100 100 100 100 100 100 100 68 98 68 58 80 96 96 100 100 100 100 100 100 100 100 97 40 26 5 5 5 43 38 5 89
29 25 5 58 17 15 5 64 100 100 100 89 100 100 100 100 100 100 100 100 100 44 65 62 88 84 85 91 72 100 100 100 100 90 9 6 5 5 5 5 20 99 96 100
33 5 26 5 58 100 89 100 100 100 100 100 82 100 100 100 100 100 100 100 100 91 66 91 80 53 91 100 100 100 100 79 77 5 5 4 5 5 5 23 98 24 100 100
55 5 18 26 57 100 100 100 100 100 100 100 55 96 100 92 71 100 100 100 68 79 44 100 100 100 100 100 100 100 90 98 24 5 5 5 5 58 62 45 27 5 92 100
56 95 100 100 100 97 99 100 100 100 100 100 100 100 100 100 100 99 96 100 77 90 71 100 100 100 100 80 54 43 28 8 87 22 80 30 32 100 100 88 42 5 79 100
100 100 100 100 89 98 100 93 99 100 100 100 100 100 100 100 100 12 5 25 89 100 100 100 98 100 100 64 7 5 5 23 77 100 100 76 100 100 91 44 10 71 96 100
100 99 78 72 92 98 100 98 99 100 100 100 100 98 100 94 52 88 95 94 96 100 100 100 100 100 55 6 5 5 6 96 98 100 100 99 100 100 75 75 63 94 100 100
100 100 100 100 100 100 100 100 99 14 6 5 13 100 100 100 100 100 100 100 100 100 96 91 92 33 43 75 79 37 7 84 100 100 98 100 100 82 100 99 67 100 100 100
81 97 90 100 100 100 76 40 20 4 5 18 97 100 100 100 100 99 100 100 100 100 93 100 100 82 37 100 94 97 35 95 100 99 100 100 89 100 100 100 66 100 100 100
100 100 92 81 100 99 94 59 18 72 98 100 78 100 100 100 100 100 100 100 98 98 100 93 100 100 99 100 61 26 23 99 100 100 100 100 100 100 100 100 69 100 100 100
91 100 100 100 34 70 46 14 90 100 76 94 100 100 100 100 100 100 100 100 100 80 99 100 98 100 100 92 38 50 90 100 100 100 100 100 100 100 100 100 96 100 100 100
97 28 3 0 29 100 85 35 100 100 100 100 100 100 100 100 100 100 100 100 100 100 100 100 100 99 100 77 98 99 98 100 100 100 100 100 100 98 96 100 99 100 100 100
4 0 0 0 43 100 100 95 100 98 100 100 100 100 100 100 100 100 100 96 100 100 100 100 100 100 100 94 100 100 100 100 99 100 100 100 100 89 87 100 96 100 100 100
0 0 0 14 66 100 100 70 100 100 94 100 100 100 100 100 100 100 100 100 100 100 100 100 100 100 100 98 100 100 100 100 100 100 100 100 100 98 84 100 99 100 100 100
0 0 1 13 97 81 96 16 100 99 100 100 100 100 100 100 100 100 100 100 100 100 100 100 100 100 100 100 100 100 100 100 99 100 100 100 100 99 93 100 100 100 100 100
0 0 6 17 24 76 100 100 100 88 100 100 100 100 100 100 100 100 84 98 100 100 100 100 100 100 100 100 100 100 97 97 99 100 100 100 100 100 97 100 100 100 100 100
5 5 11 32 62 98 100 100 85 100 100 100 100 100 100 100 100 100 100 87 100 100 100 100 100 100 100 100 100 100 99 99 100 98 96 100 100 100 100 100 100 100 100 100
31 84 86 100 100 100 93 100 100 100 100 100 100 100 100 100 100 100 100 100 100 100 100 100 100 100 100 100 99 94 98 94 100 91 76 82 93 100 100 100 100 100 100 100

GFSNGP_prec_cloud_009.txt.gz
Cloud_Cover
5 5 18 8 5 68 5 5 96 7 5 5 6 42 53 73 58 98 98 20 53 92 18 35 48 20 86 48 11 99 37 45 24 63 83 100 77 100 100 100 100 100 100 100
48 5 5 21 5 5 5 5 6 7 25 9 60 12 40 64 100 89 35 5 46 100 52 6 58 91 46 36 6 5 23 18 93 100 100 100 100 100 100 100 100 100 100 100
21 81 69 100 6 6 63 33 93 65 28 5 5 5 5 5 5 5 5 9 91 92 99 100 100 99 100 90 5 5 7 16 49 87 81 100 100 100 100 100 100 100 100 100
32 92 68 100 9 48 71 74 5 5 5 5 5 5 5 5 5 23 42 99 100 100 94 100 97 100 95 98 100 85 77 99 100 100 100 100 100 100 100 100 100 100 100 100
96 92 47 93 5 5 5 94 5 5 5 5 51 12 5 18 95 86 74 53 67 100 100 99 100 100 39 34 72 99 80 96 100 100 100 100 100 100 100 100 100 91 100 100
90 98 98 5 5 5 5 7 78 100 92 69 88 98 19 94 100 54 100 87 97 100 99 100 100 100 100 74 98 100 87 84 85 100 100 100 100 100 100 100 100 100 98 100
100 100 16 11 5 5 29 88 94 92 64 80 100 100 100 100 100 100 100 100 99 93 98 100 100 97 76 32 50 16 5 41 37 85 98 55 100 100 99 100 96 58 35 34
91 100 91 22 67 81 87 100 94 5 7 81 100 100 100 100 100 100 100 100 100 78 73 94 97 100 40 5 5 5 46 72 92 91 95 99 92 74 54 12 5 5 8 5
96 32 76 93 100 78 62 58 5 44 100 100 100 100 100 100 100 100 100 100 97 100 95 100 85 100 100 88 80 66 84 75 96 90 67 13 5 5 5 5 5 28 6 5
99 72 100 16 15 100 100 100 100 100 100 100 100 100 96 100 100 100 80 100 100 11 21 68 100 100 97 88 56 5 5 53 86 76 5 5 5 5 5 5 22 6 8 12
48 36 5 97 100 100 100 100 100 100 100 100 100 100 100 100 100 100 100 100 100 100 100 11 5 5 5 13 11 8 41 62 8 5 5 5 5 5 5 5 58 66 13 98
98 11 99 100 100 100 100 99 100 100 100 100 100 52 45 77 100 97 99 33 34 52 6 5 5 5 5 5 5 33 6 5 5 5 19 73 27 5 18 5 5 5 5 96
100 100 100 84 100 100 100 100 100 99 76 10 10 100 96 93 100 100 100 48 60 47 54 26 6 5 5 5 5 5 5 5 5 20 10 61 29 59 88 5 5 23 5 88
100 100 100 100 100 100 100 95 40 100 100 100 100 100 99 100 95 5 73 65 99 100 99 10 5 5 13 5 5 5 23 33 84 76 65 72 70 92 100 93 93 100 93 80
61 61 99 99 100 98 90 100 100 100 100 100 79 12 13 16 5 54 96 99 100 100 100 51 15 61 46 5 5 5 32 100 88 67 77 70 79 100 91 79 82 92 93 63
80 93 100 100 100 100 97 100 91 63 66 22 12 5 5 37 96 100 100 100 100 100 100 100 94 100 100 100 99 96 100 98 92 83 95 90 87 84 82 83 76 100 100 96
70 100 95 85 6 7 61 96 100 83 53 77 80 99 70 95 100 93 94 86 88 92 96 95 100 98 100 93 94 99 100 77 97 100 96 89 69 78 84 99 100 100 98 92
10 9 24 100 99 54 10 100 100 83 17 9 44 100 100 100 91 98 98 89 75 94 95 100 100 89 100 98 100 94 88 66 96 92 85 88 80 87 98 97 99 100 95 100
100 100 100 100 100 100 91 11 17 81 98 77 74 78 76 100 94 100 100 99 79 77 98 100 100 100 100 100 100 100 98 98 100 100 90 92 79 88 96 100 100 98 94 100
100 100 99 24 8 5 4 5 74 100 100 100 100 100 80 100 94 100 100 100 100 100 100 100 100 100 100 100 94 96 100 100 100 99 98 99 82 100 99 100 91 88 100 98
96 8 5 1 0 1 5 1 13 36 26 75 100 100 100 100 100 100 100 100 100 100 100 100 100 100 100 100 100 100 100 100 100 98 100 99 77 97 100 100 97 99 100 100
8 1 0 0 0 0 0 0 5 80 100 91 90 100 100 100 100 100 100 100 100 100 100 100 100 100 100 100 100 100 100 100 100 100 84 98 96 87 92 90 99 100 100 100
0 0 0 0 0 4 4 4 17 26 75 100 100 98 100 100 100 100 100 100 100 100 100 100 100 100 100 100 100 100 100 100 100 99 88 89 100 100 93 99 97 100 99 100
0 0 0 1 5 6 6 5 5 5 6 90 98 75 92 100 100 100 100 100 100 100 100 100 100 100 100 100 100 100 100 100 100 99 94 89 99 100 96 79 100 75 98 97
0 5 5 6 23 10 29 5 9 8 77 100 95 95 97 100 100 100 100 100 100 100 100 100 100 100 99 100 100 99 98 100 100 96 87 88 78 83 83 90 80 63 72 100
5 5 7 98 40 23 80 99 100 88 98 100 97 96 100 100 100 100 100 100 100 100 100 100 100 100 100 99 89 95 100 100 96 89 86 90 99 79 82 90 77 64 69 72
5 64 8 63 87 73 96 100 100 100 99 100 88 80 99 100 100 100 100 100 100 100 100 100 100 100 99 99 85 91 98 100 97 78 83 77 78 87 93 90 99 90 70 65

GFSNGP_prec_cloud_012.txt.gz
Cloud_Cover
5 5 5 8 6 9 41 22 93 48 58 16 11 6 5 5 15 12 5 5 5 5 13 27 70 100 100 99 100 94 100 99 99 100 100 100 64 56 62 98 99 100 100 100
5 5 5 24 5 5 5 5 5 5 5 5 11 5 14 16 12 5 5 21 80 93 100 100 100 99 100 100 100 100 95 100 100 100 100 100 89 87 78 100 100 100 100 100
58 13 41 38 5 5 5 5 5 5 5 5 5 17 5 5 5 5 34 12 97 100 100 94 69 74 67 96 100 100 98 98 100 92 96 100 100 79 77 95 95 95 100 100
60 48 31 100 5 5 5 27 5 5 5 5 14 12 6 9 10 34 100 100 100 100 99 100 100 100 99 98 100 100 86 89 45 41 100 100 93 94 100 96 79 90 100 100
95 98 81 98 18 5 5 54 53 6 5 5 54 64 94 36 50 83 100 100 100 100 97 98 98 75 86 96 100 34 5 5 5 6 6 60 63 68 87 93 98 100 100 99
96 100 100 93 5 5 26 9 11 42 96 99 63 53 49 100 100 100 100 100 100 96 98 100 99 100 100 92 90 11 58 9 80 5 5 5 5 9 54 56 61 17 28 18
100 100 55 16 6 74 99 100 91 100 91 60 77 100 100 100 100 100 100 97 87 100 100 100 94 100 100 69 87 69 73 97 100 22 5 5 5 5 5 5 5 5 5 5
84 100 63 5 74 93 84 99 72 67 95 92 100 100 100 100 100 97 76 90 100 100 100 95 100 100 82 100 100 62 52 96 100 65 5 5 5 5 5 5 5 5 8 7
91 56 98 72 100 100 71 24 6 73 100 100 100 100 100 100 100 100 100 100 100 100 100 97 8 14 5 12 85 78 66 94 80 10 5 5 5 5 5 5 13 28 36 7
55 98 92 96 83 64 66 85 84 100 100 100 100 100 100 100 100 100 100 97 100 100 100 61 5 8 5 6 51 10 5 12 5 5 5 5 5 5 5 5 51 24 77 74
100 57 6 25 90 100 98 100 100 100 100 100 95 60 36 16 50 88 100 100 100 91 35 6 88 99 100 67 6 5 5 5 5 5 5 5 5 61 43 48 64 98 42 94
16 85 83 100 100 99 100 100 100 99 94 84 70 46 74 97 100 100 100 98 64 5 10 99 100 100 96 62 63 5 5 5 7 6 45 81 5 5 20 13 57 66 8 75
42 100 100 100 100 100 100 100 76 85 100 73 94 80 76 62 11 38 50 8 15 59 79 100 100 100 49 57 5 37 70 7 44 34 86 65 74 59 96 5 5 6 7 72
100 100 100 100 100 99 100 100 100 100 98 97 98 79 91 81 47 5 5 35 58 88 100 91 88 18 12 5 62 100 56 56 97 93 76 82 90 85 91 91 100 100 65 100
100 86 44 81 98 95 90 69 89 98 100 100 100 100 91 90 66 5 38 100 78 95 88 34 51 21 11 61 100 94 89 77 72 86 90 84 97 83 75 98 88 82 100 100
5 16 58 30 16 6 76 100 99 100 99 84 61 81 39 55 21 5 38 100 97 83 70 91 98 52 93 100 100 100 94 49 22 69 96 93 84 80 75 88 88 100 100 100
100 55 71 63 97 68 13 13 96 100 98 76 8 81 100 100 89 5 100 98 100 99 78 100 83 85 100 100 100 100 100 56 79 98 77 96 90 99 97 89 84 100 100 98
90 96 99 77 8 5 49 61 6 6 5 23 97 100 100 100 83 10 84 96 100 100 100 100 97 100 100 100 100 100 100 98 91 90 91 99 89 84 100 99 89 100 99 95
97 55 69 38 55 55 74 30 5 5 6 16 100 100 100 100 99 94 100 100 100 100 100 100 99 100 100 100 100 100 100 100 96 100 94 96 95 85 100 100 82 97 100 83
74 68 61 42 9 2 0 0 0 0 0 10 40 100 100 100 72 90 100 100 100 100 100 100 100 100 100 100 100 100 100 100 100 96 100 100 100 100 100 100 93 93 100 100
4 0 0 0 0 0 0 0 5 5 5 5 60 100 100 100 100 99 100 100 100 100 100 100 100 100 100 100 100 100 100 100 100 100 100 100 100 100 100 100 100 100 97 100
0 0 0 0 3 4 5 5 5 5 21 38 100 100 100 100 100 100 99 100 100 100 100 100 100 100 100 100 100 100 100 100 100 100 100 98 95 87 100 98 100 100 100 88
0 0 0 0 5 5 5 5 5 5 14 38 69 100 99 96 85 97 100 87 98 100 100 100 100 100 100 100 100 100 100 100 100 100 100 98 99 96 100 100 100 100 100 99
0 0 0 5 5 5 9 5 5 5 64 59 71 84 100 78 82 100 92 86 99 100 100 97 100 95 100 100 100 100 100 100 100 100 100 100 100 88 95 100 100 100 98 100
0 3 5 5 5 10 5 5 27 80 99 90 82 66 60 76 92 86 78 94 99 99 99 89 100 100 100 100 100 96 95 100 100 98 100 100 100 100 91 100 99 100 100 100
3 5 5 5 21 6 50 51 100 100 100 100 69 92 63 74 93 80 100 100 100 100 91 97 98 100 100 100 100 100 98 93 88 100 99 92 93 91 92 89 86 79 80 98
9 70 90 100 99 36 96 100 100 100 100 100 100 100 62 82 100 97 100 100 100 100 93 90 100 100 100 100 100 100 100 92 90 84 100 100 99 91 94 82 79 73 69 81

GFSNGP_prec_cloud_015.txt.gz
Cloud_Cover
5 5 5 5 2 3 5 5 33 98 98 30 42 6 56 14 5 53 35 37 31 31 74 100 99 92 96 100 100 100 88 64 98 97 100 100 98 98 100 100 100 100 88 100
5 5 5 5 2 5 5 3 5 5 19 5 5 6 5 15 83 45 17 60 93 100 100 87 79 100 100 100 100 100 100 100 100 100 98 22 5 5 55 61 100 100 100 100
64 27 5 5 5 3 5 5 5 5 7 5 5 9 26 54 24 52 100 99 90 60 65 100 100 100 100 96 82 100 100 100 88 38 5 63 49 88 5 5 5 5 5 5
75 36 62 10 0 2 5 5 5 63 34 7 5 5 18 28 96 92 92 99 100 87 98 100 100 64 99 18 21 100 71 8 47 41 22 5 5 6 5 5 5 8 46 27
89 89 6 12 2 5 5 26 6 46 43 14 13 90 100 94 95 100 99 93 100 100 100 100 83 54 59 58 23 8 17 40 65 17 5 23 5 5 5 5 5 5 18 5
90 100 79 5 2 5 7 33 43 53 45 73 99 97 100 100 100 100 100 100 100 100 100 90 82 32 7 20 69 100 100 100 100 80 63 5 5 5 5 5 5 5 5 5
100 100 12 5 6 95 100 86 99 100 80 96 98 100 100 100 100 100 100 100 97 98 98 100 100 100 31 12 29 91 97 98 97 77 56 5 5 5 5 5 5 5 5 5
95 97 57 26 83 96 94 66 100 58 30 65 100 100 100 100 100 100 82 75 100 100 100 100 100 57 62 10 5 5 5 5 61 32 5 5 5 5 5 5 8 52 81 90
100 32 5 84 5 92 86 100 100 100 100 100 100 99 100 100 100 98 100 100 100 100 100 100 100 87 5 5 5 5 5 5 5 5 5 5 5 6 50 69 94 95 100 100
95 53 33 83 61 64 100 100 100 100 100 58 100 91 94 50 86 100 100 100 100 100 100 100 64 13 81 58 89 60 65 39 5 5 5 5 5 66 88 99 99 100 100 100
51 28 72 97 100 100 100 99 96 99 100 19 38 6 5 70 100 100 96 92 100 100 77 8 78 71 100 100 100 100 57 5 5 54 5 19 5 5 88 98 97 100 100 100
88 100 100 86 100 100 100 78 30 96 78 64 84 5 35 98 100 100 100 86 60 14 14 83 98 100 100 100 100 76 71 5 6 8 64 67 9 71 20 10 6 5 16 64
100 96 100 100 100 100 86 85 6 6 5 5 13 89 72 60 86 15 5 5 5 5 86 100 100 100 100 100 91 100 19 5 16 84 57 54 59 97 100 84 59 5 7 91
74 100 75 100 98 5 5 5 5 5 42 100 71 5 5 5 5 5 5 5 5 13 100 100 100 100 100 100 100 94 60 90 88 77 50 41 80 59 84 98 93 99 39 100
100 100 92 90 69 50 90 32 75 5 5 4 4 5 5 5 5 5 5 5 5 28 98 100 100 99 100 100 100 100 100 98 72 47 47 44 79 75 97 96 100 100 100 92
100 93 72 81 73 98 90 67 7 5 5 5 2 2 13 92 100 98 33 5 51 65 100 100 100 100 100 100 100 100 100 100 90 94 79 81 93 91 100 100 100 100 100 100
94 66 16 9 82 8 5 66 85 5 5 5 4 11 99 100 100 100 100 93 98 89 94 100 100 100 100 100 100 100 100 98 100 80 6 72 95 95 100 100 100 100 100 99
69 26 27 23 5 5 5 5 3 0 0 0 2 5 52 100 100 100 100 98 97 79 91 100 100 100 100 100 100 100 100 100 100 97 92 82 85 92 90 97 100 100 100 100
14 95 5 5 12 3 0 0 2 4 5 4 5 5 5 85 90 100 100 98 84 90 100 100 100 100 100 100 100 100 100 100 100 100 96 71 93 94 87 94 95 100 100 100
100 17 5 5 7 1 2 5 5 5 5 5 5 5 54 51 100 100 100 80 88 97 100 100 98 100 100 100 100 100 100 100 100 100 92 90 100 100 97 40 60 100 100 100
87 23 5 13 92 2 4 5 5 5 5 5 10 24 70 76 100 100 88 80 89 86 92 99 100 100 100 100 100 100 100 100 100 99 88 97 99 99 100 94 84 100 100 100
58 6 72 63 0 5 5 5 5 5 5 5 5 61 95 98 100 99 97 46 75 83 98 85 88 95 100 100 92 97 98 100 98 98 94 98 99 100 100 100 99 100 100 100
63 75 7 0 2 5 5 5 5 5 5 12 55 88 96 99 100 100 100 56 80 49 70 53 45 98 100 99 90 90 89 100 99 100 90 99 100 100 100 100 100 100 100 100
6 5 0 0 5 5 8 5 5 6 61 79 97 100 100 93 68 84 78 95 88 85 76 41 51 90 100 100 100 92 96 100 100 82 84 84 98 97 100 100 100 100 100 89
5 1 0 7 30 44 75 45 64 100 100 100 100 100 100 100 98 82 100 99 88 98 89 80 44 100 96 98 81 84 100 100 100 99 97 93 92 100 99 99 100 98 100 73
0 0 5 12 17 8 45 100 100 100 100 100 100 100 100 99 83 100 100 100 100 99 94 99 87 83 84 100 91 81 82 86 86 88 94 96 98 94 99 100 99 99 98 64
3 67 6 5 5 9 100 100 100 100 100 100 100 100 98 93 100 100 100 100 100 100 97 97 84 92 100 100 89 88 100 95 80 92 95 100 100 100 100 99 99 100 100 75

GFSNGP_prec_cloud_018.txt.gz
Cloud_Cover
5 5 5 5 3 2 4 4 51 5 5 5 5 30 64 44 74 98 42 47 8 46 70 80 99 100 100 100 100 95 100 100 98 9 14 25 72 77 90 51 20 11 5 5
4 5 5 0 0 4 2 3 5 5 5 5 5 5 28 66 100 54 73 36 98 47 99 100 100 100 100 100 100 100 93 18 30 52 91 95 98 85 15 5 5 5 5 5
44 5 5 16 5 5 4 5 5 5 73 5 6 42 85 94 8 66 99 100 49 99 100 100 100 100 100 100 33 5 13 82 84 85 61 18 5 70 47 5 5 5 5 5
46 69 30 3 5 6 8 5 5 5 5 5 7 89 92 84 64 100 100 100 100 100 100 98 100 100 74 57 23 11 79 100 100 81 64 78 96 97 5 5 5 5 5 36
94 12 5 5 5 5 5 5 5 5 5 11 27 67 90 93 100 100 100 100 100 97 100 89 82 74 10 5 48 96 100 90 100 100 89 92 25 5 5 5 5 5 58 99
89 45 84 5 5 5 40 50 39 72 50 97 100 98 100 100 100 100 92 100 97 76 58 78 5 5 5 11 21 7 5 34 26 5 5 5 5 5 5 6 37 95 94 88
98 100 29 5 5 13 63 74 6 51 76 100 100 100 100 96 94 98 42 5 5 5 5 5 5 10 30 5 5 83 5 10 15 19 10 5 5 5 36 97 100 100 100 100
92 100 75 44 100 98 100 5 74 97 100 100 100 81 84 96 86 49 5 5 5 5 5 5 5 30 7 5 31 98 100 100 54 94 5 5 5 32 100 100 100 100 100 100
11 8 71 100 100 90 12 71 100 100 100 100 78 87 9 6 5 12 6 5 5 5 5 5 5 70 86 72 97 100 100 100 100 100 31 55 100 95 100 100 100 100 100 100
20 43 95 98 79 27 44 56 100 100 93 82 41 49 5 5 5 5 5 5 5 5 5 5 5 85 100 100 99 100 100 100 100 100 98 77 99 100 99 99 100 100 100 100
12 24 66 99 85 98 100 100 100 96 57 21 5 5 5 5 5 4 4 5 5 5 5 5 5 15 100 78 87 84 100 100 100 100 93 90 95 97 99 100 94 99 100 100
98 89 98 100 100 100 95 70 79 42 85 35 5 5 5 3 5 5 2 5 5 5 5 5 5 54 100 100 100 100 100 100 100 85 100 100 100 97 100 71 36 5 45 83
88 95 100 99 100 99 46 68 34 90 15 5 10 37 5 0 5 3 4 5 5 5 5 69 88 100 100 100 100 100 100 100 99 100 100 100 100 100 100 100 98 77 43 69
100 100 67 99 98 9 20 33 76 72 53 5 14 19 5 5 5 5 5 5 64 70 79 100 89 97 100 100 100 100 100 100 100 100 100 100 100 100 100 100 100 100 100 54
100 82 86 44 25 57 22 14 5 28 10 84 20 28 5 5 5 5 5 38 99 94 88 100 100 93 98 100 100 100 100 100 100 100 100 100 100 100 100 100 100 100 100 100
64 92 81 69 12 32 16 7 10 62 58 51 34 10 5 5 5 5 30 100 100 92 69 95 84 99 100 100 100 100 100 100 72 100 100 100 100 100 100 100 100 100 100 100
64 41 24 66 64 75 74 34 24 7 23 87 23 5 5 5 29 67 55 100 100 99 100 100 93 100 100 100 100 100 100 100 100 100 100 100 100 100 100 100 100 100 100 97
5 5 5 5 5 5 5 5 25 27 82 27 5 5 5 12 49 91 86 100 100 96 99 100 74 98 100 90 90 100 100 100 100 100 100 100 98 100 100 100 100 100 100 100
5 5 5 5 5 9 5 5 29 100 96 81 7 15 29 37 38 63 98 100 100 100 88 58 19 99 100 99 92 100 100 99 100 100 100 100 100 100 100 100 100 100 100 100
5 5 5 27 10 22 71 94 40 64 5 5 5 42 48 45 76 100 100 100 99 81 67 23 68 100 93 78 95 100 100 100 100 100 100 99 100 100 100 100 100 100 100 100
5 5 16 6 42 98 78 11 91 61 5 5 15 31 48 66 100 100 100 100 94 68 73 89 78 100 100 100 100 100 100 100 100 100 100 100 100 100 100 100 100 100 100 100
16 16 75 96 100 100 100 100 51 5 5 7 56 95 100 100 100 100 100 100 99 70 64 89 100 100 75 100 100 100 100 99 100 100 100 100 100 100 100 100 100 100 100 100
100 100 100 100 100 100 100 15 5 33 77 100 100 100 100 100 100 100 100 99 96 99 75 93 87 99 87 100 100 100 100 100 99 100 100 100 100 100 100 100 100 100 100 100
100 100 100 100 100 100 16 5 7 98 69 82 100 100 100 100 99 96 100 84 85 77 88 96 100 79 68 95 100 100 100 100 88 99 100 99 100 100 100 100 100 100 100 93
100 100 51 10 16 5 5 5 12 41 35 14 100 100 100 100 100 95 99 100 100 100 77 95 93 82 68 75 100 97 100 100 99 99 84 99 100 100 100 100 100 100 100 100
96 24 5 5 5 5 10 34 80 92 67 99 100 100 100 100 100 100 100 99 82 100 96 99 100 100 89 99 99 100 100 98 100 100 100 100 100 100 100 100 100 100 100 100
5 5 5 5 5 14 52 88 95 99 59 100 100 100 77 100 100 100 100 100 100 97 99 100 100 72 86 100 100 100 100 100 97 94 99 100 100 100 100 100 100 100 100 100

GFSNGP_prec_cloud_021.txt.gz
Cloud_Cover
0 0 0 4 5 5 5 5 80 5 97 100 100 72 6 75 67 80 83 97 29 48 100 100 100 100 55 6 6 27 49 5 3 90 100 98 99 100 100 96 84 14 8 5
5 0 0 0 0 0 5 5 27 100 100 100 17 78 60 93 91 100 100 40 100 100 100 100 100 91 19 6 8 5 5 5 15 95 87 100 100 100 99 30 5 5 5 5
5 7 2 18 5 5 5 95 81 100 100 78 71 100 70 80 54 100 73 84 89 30 79 100 100 70 5 5 5 5 5 40 56 86 100 100 100 96 54 5 5 5 5 36
37 72 39 9 5 6 33 5 57 82 97 94 99 81 6 22 62 86 52 14 47 84 96 100 27 24 11 41 5 28 93 92 31 99 98 100 100 100 96 41 66 94 100 100
69 5 5 6 5 5 10 6 21 54 75 98 94 46 46 51 82 69 32 95 100 87 10 3 35 98 100 100 100 100 100 97 100 36 100 100 100 100 100 100 100 100 96 69
86 39 38 5 98 56 14 34 60 79 75 85 52 80 40 100 100 100 100 100 100 100 33 100 100 97 99 100 100 100 100 77 58 100 100 100 100 100 100 100 100 23 11 61
100 99 10 5 13 2 38 77 6 56 93 9 100 96 74 94 82 89 97 100 100 100 100 87 5 5 18 100 100 100 100 98 95 96 100 100 100 100 100 100 76 53 26 66
87 100 66 23 77 81 66 10 100 69 16 85 92 99 76 87 99 57 80 95 84 69 90 5 5 8 35 100 90 78 18 51 98 96 100 100 100 100 100 53 99 76 97 94
53 14 99 100 100 97 26 100 96 84 97 78 90 95 51 55 52 6 5 5 6 14 21 93 20 37 69 85 10 96 100 98 97 100 88 100 100 100 94 100 99 91 100 100
17 13 99 100 100 97 73 92 39 8 10 33 52 16 11 5 5 45 5 5 5 5 24 45 98 91 87 88 92 100 99 100 100 100 100 100 100 99 100 97 100 100 100 100
83 62 78 44 91 94 99 100 92 22 5 21 14 33 7 12 97 32 11 5 5 48 100 100 100 100 100 64 100 100 100 100 100 100 100 100 100 100 91 100 82 58 78 98
41 100 39 100 92 94 100 77 36 46 15 40 38 22 40 8 5 5 5 19 80 75 84 100 100 72 75 95 99 87 80 100 100 100 100 100 98 95 98 63 5 5 5 38
37 80 55 35 100 100 81 48 10 5 5 5 5 21 5 5 5 5 5 46 44 5 51 69 79 100 100 80 84 100 96 97 100 100 100 100 100 100 100 100 86 61 80 36
59 78 97 100 99 68 48 30 15 7 5 5 5 5 5 5 6 5 87 77 41 8 49 94 100 100 97 74 97 99 92 100 100 100 100 100 100 100 100 100 94 100 100 60
72 46 100 96 45 60 18 5 32 46 16 5 17 5 5 5 35 100 64 29 46 99 100 100 97 86 90 72 98 91 96 99 99 100 100 100 100 100 100 100 100 100 100 100
66 90 61 92 100 100 60 57 22 5 5 5 5 5 8 69 100 15 8 68 99 74 100 96 100 99 100 88 88 94 82 100 97 100 100 100 100 100 100 100 100 100 100 100
76 52 83 100 100 98 81 5 5 5 5 5 5 5 73 76 53 5 5 54 100 99 100 100 100 99 100 81 100 99 100 100 100 100 100 100 100 100 100 100 100 100 100 88
100 100 100 100 100 12 5 5 5 5 5 5 6 43 72 100 25 33 96 100 100 100 98 100 100 100 100 86 88 98 100 100 100 100 100 100 100 100 100 100 100 100 100 100
100 100 100 100 68 5 5 5 5 5 5 10 65 100 95 39 58 96 85 94 100 100 100 64 73 5 82 99 72 100 100 100 100 100 100 100 100 100 100 100 100 100 100 100
15 9 13 28 11 5 5 5 35 27 29 5 97 100 49 93 100 100 100 100 100 98 82 99 5 60 70 88 90 95 100 100 100 100 100 100 100 100 100 100 100 100 100 100
5 53 65 16 5 37 92 26 39 27 48 100 94 96 100 100 100 100 100 92 70 100 76 97 32 82 98 98 99 100 100 100 100 100 100 100 100 100 100 100 100 100 100 100
93 22 66 40 5 5 33 72 52 96 100 90 100 98 92 96 66 95 100 86 81 100 92 100 93 90 87 52 85 100 100 100 100 100 100 100 100 100 100 100 100 100 100 100
37 62 49 50 62 68 42 91 100 100 98 82 76 80 98 100 100 88 100 67 82 100 100 100 100 97 70 99 90 97 100 100 100 100 100 100 100 95 100 100 100 100 100 100
98 98 98 95 62 89 100 100 95 12 16 10 98 100 100 100 100 93 100 82 99 89 98 100 96 71 67 93 100 100 100 100 100 100 100 94 100 98 94 100 100 100 100 100
100 100 100 100 100 99 97 16 7 33 37 63 63 96 100 100 100 74 100 100 100 100 96 96 95 99 96 100 100 100 100 100 100 100 100 100 95 100 100 100 100 100 100 100
100 100 100 100 91 21 5 52 50 79 100 74 39 82 96 100 100 99 100 100 100 100 81 99 100 100 100 95 100 95 88 100 100 100 100 100 100 100 100 100 100 100 100 100
100 99 56 37 38 6 59 44 55 90 67 95 99 78 100 100 86 97 100 100 100 100 100 100 100 92 91 97 100 100 100 100 100 100 100 100 100 100 100 100 100 100 100 100

GFSNGP_prec_cloud_024.txt.gz
Cloud_Cover
0 0 0 0 0 0 0 5 77 9 99 95 94 5 79 16 5 5 7 5 5 19 99 16 91 68 6 43 75 15 5 4 5 4 82 5 3 5 5 95 79 5 5 5
0 0 0 3 0 0 0 5 61 20 46 96 65 53 5 5 5 5 5 5 28 85 5 6 77 76 93 98 6 27 61 9 5 96 100 80 8 5 59 5 5 5 5 5
2 6 4 1 0 0 5 77 52 90 34 96 66 11 5 63 5 5 6 27 6 5 76 98 85 81 12 98 100 31 94 76 100 68 5 5 5 5 43 5 5 24 48 96
7 42 5 2 5 5 5 32 12 42 99 85 64 48 11 34 9 5 5 96 15 74 95 83 41 5 19 55 5 21 22 88 50 100 57 5 3 8 34 5 40 64 100 91
71 5 5 0 7 5 4 4 16 87 52 6 5 9 75 11 14 5 7 26 86 94 30 34 32 98 37 5 5 83 100 64 76 100 100 48 5 80 100 78 81 99 90 42
46 52 4 0 16 8 5 5 58 69 76 5 5 7 30 6 14 75 100 97 20 46 100 100 100 73 44 5 6 97 50 96 37 49 84 97 93 100 100 100 100 98 40 5
100 100 11 2 5 5 5 25 12 5 19 5 50 14 5 5 67 39 5 76 87 42 8 40 10 6 5 5 11 6 12 34 34 5 28 93 99 100 100 100 100 83 17 5
89 93 32 4 44 73 42 10 64 99 100 85 71 45 64 22 5 21 34 5 3 5 5 5 5 7 10 5 2 1 0 0 1 18 92 61 60 86 100 100 99 26 5 5
5 5 57 100 95 15 74 47 82 86 100 94 100 88 5 5 5 5 4 0 5 33 5 5 4 70 94 99 5 0 5 5 5 20 93 100 100 100 100 81 5 5 5 35
5 5 37 77 5 21 13 53 60 97 100 80 98 80 31 55 6 5 4 5 5 5 23 97 92 100 99 19 5 5 5 7 10 67 91 99 98 100 84 10 5 12 81 5
7 43 71 95 33 51 26 54 99 84 43 89 77 62 96 71 5 6 42 46 5 55 30 5 99 18 18 5 5 6 5 5 40 86 94 94 96 94 47 5 5 5 5 5
14 38 71 20 60 84 35 22 59 78 98 52 87 100 90 51 44 34 16 5 5 5 5 30 12 5 5 33 29 5 5 5 5 30 9 24 47 82 76 44 13 5 5 5
100 16 34 76 67 43 94 71 85 95 24 85 100 100 100 100 93 48 5 5 5 5 5 31 5 6 99 76 63 13 24 38 100 78 59 83 100 100 100 81 91 59 73 74
94 5 44 99 88 73 99 84 95 99 100 100 100 80 22 24 5 5 5 5 5 5 5 65 100 99 86 95 65 56 6 5 100 100 100 100 100 100 100 100 100 99 96 68
7 58 87 100 100 89 84 89 100 100 100 100 68 5 5 5 5 5 5 5 5 5 6 94 100 77 66 97 93 5 18 98 80 100 100 100 100 100 100 100 100 100 98 100
95 100 100 96 75 88 83 91 100 100 85 28 5 5 5 5 5 5 26 14 12 71 33 97 100 98 71 100 91 5 96 94 98 100 100 100 100 100 100 100 100 100 100 95
100 100 86 77 34 89 100 98 64 17 5 5 6 5 5 5 8 50 44 46 69 100 73 100 100 100 95 100 84 67 97 99 97 100 100 100 100 100 100 100 100 100 98 98
100 100 94 48 86 71 85 91 71 24 5 7 5 5 25 6 15 58 100 100 100 100 98 100 100 99 79 97 60 64 87 100 100 100 100 100 100 100 100 100 100 100 100 99
100 90 100 100 91 100 92 87 23 25 62 91 49 5 25 54 90 96 100 100 100 100 43 100 91 83 8 7 99 83 98 100 100 93 93 100 100 100 100 100 100 100 100 100
99 100 100 100 100 95 71 83 78 91 84 79 13 49 50 26 35 43 100 100 100 100 96 100 100 66 5 5 25 88 100 100 100 99 100 100 100 100 100 100 100 100 100 100
100 98 100 100 100 100 100 100 100 100 99 67 94 48 42 100 24 97 100 100 65 100 100 87 100 43 63 98 96 11 29 90 98 95 100 100 100 100 100 100 100 100 100 100
100 99 100 100 100 100 100 100 76 81 93 100 100 96 51 35 91 100 100 99 90 100 96 100 100 82 93 71 96 44 6 85 100 99 98 100 100 100 99 100 100 100 100 100
100 100 100 100 100 100 100 100 100 100 100 100 94 9 93 100 100 100 100 69 100 100 100 100 100 100 100 100 90 62 83 12 70 100 95 100 100 100 99 96 100 100 100 99
100 98 82 95 100 100 100 100 100 100 90 38 6 18 67 100 100 99 100 91 100 100 100 100 100 96 99 92 98 100 100 35 64 99 100 98 98 100 100 100 100 98 100 100
100 100 100 100 100 100 99 92 74 34 46 5 33 94 39 100 100 100 100 100 100 100 100 100 99 98 96 100 100 100 92 27 93 100 100 100 100 100 100 100 100 100 100 100
100 100 100 100 96 16 5 5 5 23 5 5 5 14 79 100 99 100 100 100 100 100 100 100 94 100 100 100 100 94 95 99 100 100 100 100 100 100 100 100 100 100 100 100
100 100 93 17 1 1 2 36 25 29 26 16 44 90 81 12 57 89 100 100 100 100 100 100 100 100 100 100 100 100 100 100 100 100 100 100 100 100 100 100 100 100 100 100

GFSNGP_prec_cloud_030.txt.gz
Cloud_Cover
0 1 5 5 5 0 0 0 0 0 0 0 1 4 5 5 5 64 97 86 97 100 90 97 83 93 28 5 6 67 100 100 61 81 100 100 20 13 25 92 99 100 100 100
0 0 5 5 0 0 0 0 0 0 0 0 4 5 5 5 20 97 100 91 38 98 100 100 64 5 5 25 100 100 98 5 74 99 94 0 0 0 5 99 100 100 100 100
5 5 5 5 1 0 0 3 4 0 0 0 0 3 4 5 5 10 6 5 63 89 15 62 54 14 96 95 46 20 6 5 3 0 0 3 0 0 42 26 78 100 100 100
5 5 8 5 4 0 0 5 0 5 5 4 4 5 5 5 5 5 6 18 5 5 5 10 43 49 8 5 20 42 24 3 0 0 5 4 2 5 70 100 99 100 100 100
14 6 5 5 5 5 5 26 5 5 3 0 4 5 5 5 5 36 5 5 5 5 5 5 5 5 5 6 52 4 0 0 0 0 3 2 0 5 92 95 100 100 100 90
84 6 5 8 5 32 9 99 94 100 82 5 9 5 5 5 5 5 5 5 5 5 5 5 8 5 6 5 5 1 5 4 4 5 4 2 52 99 100 83 62 100 99 5
97 39 71 6 5 5 26 6 5 28 8 100 55 15 32 5 5 5 5 5 5 5 4 5 5 7 12 0 1 1 0 2 5 1 1 5 43 95 100 79 100 100 76 58
100 100 30 7 24 63 15 59 63 89 84 88 14 19 7 5 5 5 5 5 5 5 5 5 30 5 0 0 0 1 4 1 2 0 0 5 54 100 83 95 98 95 26 5
100 100 96 78 74 10 96 100 60 26 61 80 76 5 14 5 5 5 5 5 5 5 14 5 5 0 0 0 4 5 5 5 5 5 5 7 98 97 99 96 82 5 5 34
42 83 92 96 88 66 95 78 100 100 99 97 43 5 5 5 5 5 5 36 42 5 5 4 2 1 1 5 5 37 70 33 16 5 5 65 82 88 92 80 15 5 5 5
5 5 5 42 10 5 69 92 100 99 100 81 60 5 5 5 5 5 24 33 5 5 5 5 5 5 5 5 44 99 83 100 88 5 5 42 94 94 21 61 6 5 6 10
5 5 5 5 6 26 22 100 99 92 23 100 75 21 16 22 18 5 5 19 8 5 5 5 5 33 57 62 86 89 100 96 98 6 16 65 83 100 94 34 5 22 5 24
94 100 100 100 100 100 100 100 100 97 100 100 47 50 60 6 5 5 18 29 7 5 5 30 64 100 100 100 96 47 100 99 22 84 97 74 99 100 99 85 48 5 5 9
100 100 100 100 100 100 100 100 100 100 89 74 73 58 47 50 16 5 5 5 6 33 82 83 100 100 100 100 100 97 100 94 98 100 100 94 92 100 100 99 73 48 8 5
79 100 100 100 100 100 100 100 100 76 72 93 90 82 62 5 5 5 5 13 93 100 100 100 100 98 95 100 100 100 100 96 59 79 100 100 100 100 100 100 95 90 66 21
100 100 100 100 100 100 100 100 100 100 99 87 80 36 5 5 5 6 58 96 100 100 100 100 98 96 100 100 100 100 100 99 100 100 97 100 100 100 100 100 100 99 99 78
100 100 100 100 100 100 100 100 100 86 82 61 5 5 5 6 40 99 100 100 100 100 100 42 91 100 100 100 100 100 100 100 98 100 100 100 100 100 100 100 100 100 99 96
100 100 100 100 100 100 100 100 99 100 78 8 24 65 72 100 98 100 100 100 100 99 75 65 79 100 100 100 100 100 100 93 48 80 74 100 100 100 100 100 100 100 100 100
100 100 100 100 100 100 100 100 100 90 89 99 83 85 100 100 96 100 100 100 84 13 5 7 92 100 100 100 99 85 23 14 22 90 98 100 100 100 100 100 100 100 100 100
100 100 100 100 100 100 100 100 100 100 100 100 100 100 100 98 100 100 100 100 6 5 5 6 15 97 100 100 98 96 8 32 75 70 25 92 94 98 100 100 96 99 100 100
100 100 100 100 100 100 100 100 100 100 100 100 99 99 100 100 100 100 68 22 5 33 24 53 77 100 100 100 100 99 98 92 99 98 98 77 95 95 95 95 99 100 90 94
100 100 100 100 98 100 100 100 100 100 100 100 100 100 100 100 90 8 5 17 5 81 86 92 100 100 100 100 100 100 100 100 100 93 92 100 93 100 100 99 97 100 99 94
100 100 100 100 100 100 100 100 100 100 100 100 100 100 88 97 12 82 11 5 11 29 70 87 100 100 100 100 100 100 100 82 87 90 89 92 82 66 100 100 100 100 100 100
100 100 100 100 100 100 100 100 100 100 100 100 62 5 94 99 76 100 24 10 28 18 90 63 99 100 100 100 100 100 89 79 83 88 100 86 82 100 100 100 100 100 99 100
100 100 100 100 100 100 100 100 96 55 5 5 5 6 89 100 96 50 95 6 13 46 81 100 100 88 98 100 100 100 96 100 100 100 100 100 100 100 100 100 100 100 100 100
100 100 100 100 100 76 21 4 5 8 26 38 10 54 99 99 98 100 61 70 51 29 86 71 59 94 100 100 100 100 100 96 97 100 100 100 100 100 100 100 100 100 100 100
46 27 10 5 5 5 5 22 99 90 68 91 100 100 100 100 100 97 95 98 100 95 15 56 92 66 55 81 82 100 100 99 99 100 100 100 100 100 100 100 100 100 100 100

GFSNGP_prec_cloud_033.txt.gz
Cloud_Cover
5 4 1 0 0 0 0 0 0 0 0 0 0 0 0 3 5 5 62 15 95 100 100 100 80 30 5 5 5 5 5 5 5 5 5 0 0 0 1 4 0 30 92 31
0 0 0 4 0 0 2 5 0 5 0 2 0 4 0 4 5 5 25 99 99 100 99 48 5 5 5 5 5 5 5 5 5 5 0 0 0 0 0 4 75 100 100 100
5 6 18 8 4 5 5 5 5 5 5 5 5 5 3 5 5 20 98 100 95 14 5 5 5 56 5 5 5 5 23 6 5 3 0 0 0 5 0 4 99 100 100 100
5 5 39 15 8 5 5 13 5 5 5 5 5 5 5 5 5 11 17 5 5 5 5 5 5 13 24 14 5 5 5 5 5 0 0 0 5 5 48 65 88 100 100 100
62 24 9 87 5 5 5 50 5 5 96 93 5 5 5 5 5 5 8 8 5 5 5 5 82 100 65 6 18 11 6 5 2 0 0 5 48 27 100 100 94 84 88 82
80 5 19 100 16 55 81 98 82 93 100 95 50 50 43 51 75 41 68 80 13 48 9 100 89 72 48 30 72 46 5 0 3 1 6 99 14 10 100 100 100 53 49 5
95 29 100 100 40 58 94 9 42 100 100 100 80 22 90 100 100 63 66 11 20 49 92 60 98 76 71 80 22 4 2 5 5 5 100 2 89 100 100 100 77 74 54 87
61 100 100 100 98 97 54 5 19 97 100 100 100 100 100 100 100 99 58 54 73 36 40 15 41 66 30 5 5 5 5 5 45 91 33 5 99 100 98 70 63 96 68 5
100 100 100 85 35 45 26 39 23 96 100 100 100 100 100 100 75 24 44 52 60 54 71 71 82 8 5 5 5 5 6 99 96 86 5 5 100 100 99 84 63 7 31 58
100 100 100 13 70 7 68 18 90 100 100 100 100 100 100 94 100 83 89 97 96 98 99 64 48 5 5 5 5 23 78 100 100 97 16 7 100 100 100 81 38 7 28 54
69 87 11 89 55 50 62 100 100 100 100 100 96 100 90 96 100 100 100 100 100 90 70 14 5 5 5 5 39 98 100 100 100 95 71 5 98 100 100 97 63 5 17 14
5 50 40 49 93 83 91 100 100 100 100 100 100 86 94 100 100 100 100 97 99 86 5 5 5 35 14 80 100 100 100 94 100 96 84 73 49 98 100 100 91 61 5 15
99 77 42 99 78 100 100 75 97 100 100 100 100 100 100 100 100 90 76 94 68 6 5 5 21 90 100 100 100 100 100 100 100 98 100 100 100 100 100 92 82 75 5 5
100 78 96 100 100 100 100 100 100 100 100 100 100 100 100 100 100 100 100 86 24 58 27 34 92 100 100 100 100 100 100 100 100 100 100 100 100 99 100 100 92 45 48 11
62 94 98 100 100 100 100 100 100 100 100 100 100 100 100 100 100 100 95 16 76 71 62 100 100 99 100 100 100 100 100 100 100 100 100 100 100 100 100 100 100 100 99 25
100 100 100 100 100 100 100 100 100 100 100 100 100 100 100 100 100 100 77 98 62 74 100 100 99 100 96 100 100 100 100 100 100 100 100 100 100 100 100 100 100 100 100 82
100 100 100 100 100 100 100 100 100 100 100 85 100 100 100 100 100 98 100 100 100 100 96 100 100 59 83 100 100 100 100 100 100 100 93 99 99 100 100 100 100 100 92 87
100 100 100 100 100 100 100 97 96 93 100 100 100 100 100 100 100 100 100 100 100 100 100 98 8 34 95 99 100 100 100 100 98 94 48 85 89 82 99 100 100 100 91 100
100 100 100 100 100 100 100 100 100 100 100 100 100 100 100 100 100 100 100 100 100 100 61 5 5 5 42 100 100 100 100 100 89 27 22 53 59 43 77 86 99 99 100 100
100 100 100 100 100 100 100 100 100 100 100 100 100 100 100 100 100 100 100 100 94 7 5 5 6 62 96 90 100 100 100 100 100 99 89 82 86 67 71 75 85 100 100 88
100 100 100 100 100 100 100 100 100 100 100 100 100 100 100 100 100 100 100 66 5 5 5 10 7 56 100 100 100 100 100 100 100 100 100 96 96 89 94 13 61 92 100 100
100 100 100 100 100 100 100 100 100 100 100 100 100 100 100 100 98 64 58 30 13 36 24 12 17 17 62 100 100 100 100 100 100 100 100 100 100 97 86 99 92 100 100 100
100 99 99 100 100 100 100 100 100 100 100 100 100 100 86 5 12 88 98 42 92 100 65 100 90 100 100 100 100 100 100 100 100 100 100 100 100 100 85 91 99 100 100 100
100 100 100 100 100 100 100 100 100 100 100 46 6 5 5 13 8 23 24 99 100 100 96 100 76 97 100 98 86 100 100 100 100 100 100 100 100 100 100 100 100 100 100 100
100 100 100 100 100 98 86 48 5 5 5 5 5 5 5 71 98 33 100 99 100 99 83 50 69 92 89 100 100 96 98 100 92 89 94 100 98 100 100 100 100 100 100 100
94 89 36 8 5 11 32 38 70 63 72 99 83 10 6 42 82 100 100 100 95 95 100 85 100 79 100 80 70 76 51 85 96 95 100 98 97 100 100 100 100 100 100 100
5 26 66 71 92 95 68 86 100 100 100 100 100 100 96 100 99 98 99 92 94 100 98 89 100 100 100 100 100 100 100 100 100 91 76 97 100 100 100 100 100 100 100 100

GFSNGP_prec_cloud_036.txt.gz
Cloud_Cover
5 8 49 8 0 0 0 2 4 4 5 5 5 5 5 0 0 0 5 7 79 76 89 78 100 99 97 50 5 5 5 5 5 5 5 5 6 44 5 0 0 4 100 100
5 5 4 4 0 5 5 5 5 5 5 5 5 5 5 5 5 5 5 6 77 100 86 100 84 58 22 15 5 5 5 5 5 5 6 48 32 0 2 4 4 98 75 100
56 5 5 63 5 5 5 5 5 5 5 5 6 48 94 100 76 70 5 46 96 96 80 47 8 93 63 26 30 6 5 16 81 100 94 6 4 4 5 6 34 84 99 95
29 5 38 66 100 5 5 5 5 5 5 34 93 100 100 34 37 20 96 79 48 82 100 27 35 79 98 97 64 39 85 100 100 34 5 5 5 4 5 24 100 100 94 75
20 21 31 100 100 3 3 90 66 12 49 54 85 79 95 22 72 37 73 94 95 97 100 97 66 73 100 100 99 100 100 100 29 6 5 5 5 10 78 100 100 54 69 55
57 8 29 100 80 6 19 97 100 100 88 100 100 98 90 8 27 60 82 100 100 100 100 100 100 99 88 100 100 100 66 83 5 5 5 5 5 99 100 100 100 96 99 13
89 7 96 88 5 6 68 66 98 97 100 71 80 44 79 100 94 93 100 100 100 100 98 100 100 100 100 100 100 99 8 5 5 19 61 12 39 99 95 99 97 96 80 6
62 46 89 6 5 14 82 100 100 100 54 89 90 97 67 100 100 100 100 100 100 100 100 100 96 100 100 99 100 32 5 5 5 70 100 74 58 100 100 97 100 100 90 10
45 6 5 58 100 100 100 73 89 100 100 100 100 76 99 100 100 100 100 100 100 100 100 100 100 100 100 94 54 5 5 5 75 100 100 96 94 100 100 100 100 82 40 74
26 99 97 100 100 100 100 100 100 100 100 100 100 100 100 100 100 100 100 100 100 100 100 100 100 100 94 70 5 5 6 90 100 100 100 97 70 75 98 100 100 61 69 55
47 100 100 100 100 100 100 100 100 100 100 100 100 100 100 100 100 100 100 100 100 100 100 100 100 100 100 38 21 16 23 100 100 100 100 96 34 5 87 100 83 75 72 70
100 100 98 74 95 100 100 100 100 100 100 100 100 100 100 100 100 100 100 100 100 100 100 100 100 100 100 100 60 48 84 100 100 100 100 100 85 62 84 86 94 100 99 96
30 6 5 66 75 100 88 63 84 87 100 100 100 100 100 100 100 100 100 100 100 100 100 100 100 100 100 99 97 63 91 100 100 100 100 100 99 100 99 100 100 100 100 91
5 7 52 72 67 83 97 100 97 100 100 100 100 100 100 100 100 100 100 100 100 100 100 100 100 100 100 100 88 51 92 100 100 100 100 99 100 100 98 99 99 83 97 66
22 51 85 100 100 100 100 100 100 100 100 100 100 100 100 100 100 100 100 100 100 100 100 100 100 100 100 100 89 100 90 100 100 100 100 96 96 100 83 90 100 100 85 82
100 100 100 100 100 100 100 100 100 100 100 100 100 100 100 100 100 100 100 100 100 100 100 100 100 100 100 98 84 86 100 100 100 100 100 100 100 100 100 100 100 100 100 93
100 100 100 100 100 100 100 100 100 100 100 100 100 100 100 100 100 100 100 100 100 100 95 92 96 98 100 11 5 100 100 100 100 100 100 88 98 99 96 90 86 96 100 95
100 100 100 100 100 100 100 100 100 100 100 100 100 100 100 100 100 100 100 100 100 100 100 98 100 75 5 5 24 99 100 100 100 100 100 63 79 92 93 96 86 71 97 96
100 100 100 100 100 100 100 100 100 100 100 100 100 100 100 100 100 100 100 100 100 87 100 91 7 5 5 38 100 100 100 100 100 100 100 99 76 99 75 62 58 72 80 100
100 100 100 100 100 100 100 100 100 100 100 100 100 100 100 100 100 100 100 100 100 80 5 5 5 28 62 5 93 100 100 100 100 100 100 100 98 96 94 93 88 76 99 82
100 100 100 100 100 100 100 100 100 100 100 100 100 100 100 100 100 100 100 100 5 12 96 85 79 81 66 37 90 100 100 100 100 100 100 100 100 97 100 100 98 98 95 95
100 97 100 100 100 100 100 100 100 100 100 100 100 100 100 100 73 44 67 75 5 5 78 93 98 100 100 100 100 100 100 99 100 100 98 100 100 100 100 100 100 100 100 100
99 100 99 100 100 100 100 100 100 100 100 100 100 75 28 5 5 76 24 7 12 37 80 100 100 100 98 88 81 98 100 100 100 100 96 98 100 100 100 100 100 100 100 100
100 100 100 100 100 100 100 100 100 64 9 5 5 5 15 62 20 28 15 34 79 64 97 100 98 98 83 72 79 100 100 98 89 100 100 100 98 100 100 100 100 100 100 100
100 100 98 90 76 100 100 93 53 48 68 76 80 64 49 38 100 58 73 100 100 100 100 100 95 79 90 98 98 100 100 100 100 100 100 100 98 96 92 98 100 100 100 100
20 52 31 24 87 97 67 96 100 100 100 100 89 84 50 100 100 100 100 100 100 100 100 100 94 75 99 99 100 100 100 100 100 100 100 100 98 100 100 100 92 100 100 100
7 12 5 23 62 37 60 93 100 96 87 100 100 86 80 100 99 100 100 97 100 99 100 100 100 99 100 100 100 100 100 100 100 100 100 100 100 100 100 100 100 100 100 100

GFSNGP_prec_cloud_042.txt.gz
Cloud_Cover
5 5 5 5 5 5 5 5 3 0 4 0 72 5 5 5 5 5 5 5 5 5 81 83 92 18 100 100 100 17 28 61 30 79 62 74 96 100 100 22 32 9 56 74
5 5 5 8 27 5 5 4 5 4 5 0 5 5 5 5 6 47 30 80 59 5 5 84 79 93 100 92 20 72 86 82 72 76 99 100 100 100 33 18 37 88 70 100
5 6 67 99 1 5 1 0 5 5 5 5 8 5 5 5 68 96 100 52 47 5 5 77 92 100 74 64 100 92 86 79 90 100 100 100 77 21 35 97 69 93 100 78
20 93 100 99 5 1 0 5 5 5 5 12 14 5 5 5 48 93 16 11 5 30 98 99 100 100 97 86 92 97 100 100 100 100 100 99 100 100 100 100 95 100 75 100
98 22 100 100 91 5 5 5 5 5 5 5 5 5 5 11 100 46 5 5 46 100 100 100 100 99 80 100 100 100 100 100 100 100 98 100 100 94 100 100 100 99 98 100
66 81 85 100 20 5 6 5 100 46 5 5 5 5 28 100 100 100 54 16 99 100 100 100 99 100 100 100 100 100 100 100 100 100 100 100 100 100 100 100 100 100 100 100
59 49 95 53 83 47 32 74 89 89 70 65 72 100 100 100 82 6 5 10 92 100 100 95 100 100 100 100 100 100 100 100 100 100 100 100 100 100 100 100 100 100 100 100
61 69 35 26 49 56 60 53 8 16 77 100 94 100 95 9 5 5 5 42 100 100 100 100 100 100 100 100 100 100 100 100 100 100 100 100 100 96 100 100 100 100 97 75
5 5 5 5 51 9 34 98 74 66 87 100 100 57 5 5 6 71 61 99 80 100 100 100 100 100 100 100 100 100 100 100 100 100 100 100 80 100 100 100 100 100 100 100
5 30 5 5 5 5 5 8 87 100 100 29 5 5 5 40 93 97 96 100 100 100 100 100 100 100 100 100 100 100 100 100 100 100 96 98 96 100 100 100 100 100 100 100
5 5 6 5 21 45 70 99 94 24 8 5 5 10 70 67 65 62 100 100 100 100 100 100 100 100 100 100 100 100 100 100 100 99 94 94 100 100 100 100 98 98 100 100
78 89 99 100 100 100 59 21 5 12 17 8 50 74 66 96 100 100 100 100 100 100 100 100 100 100 100 100 100 100 100 100 100 92 100 96 91 99 100 93 25 5 5 6
100 90 24 6 55 100 42 65 63 17 28 76 94 100 100 100 100 100 100 100 100 100 100 100 100 100 100 100 100 100 100 100 80 97 100 100 100 100 100 100 93 63 39 5
96 30 80 91 38 60 34 70 61 83 91 100 100 100 100 100 100 100 100 100 100 100 100 100 100 100 100 100 100 100 83 92 64 95 100 100 86 96 100 100 100 100 98 94
30 50 32 59 77 95 93 100 96 100 100 100 100 100 100 100 100 100 100 100 100 100 100 100 100 100 100 100 99 58 7 47 92 100 100 100 100 72 100 95 100 100 100 100
100 99 97 100 100 100 100 100 100 96 99 98 98 100 100 100 100 100 100 100 100 100 100 100 100 100 83 12 5 5 33 70 22 81 24 95 97 100 100 100 100 100 100 100
100 100 100 100 100 100 100 97 94 100 100 100 100 100 100 100 100 100 100 100 100 100 100 83 10 5 5 5 5 56 100 100 100 100 100 90 98 100 100 100 99 100 100 96
97 100 100 100 99 92 95 100 100 100 98 99 96 100 100 100 100 100 100 93 56 11 24 5 5 5 6 8 16 69 100 100 100 100 100 100 100 100 99 100 100 100 100 100
100 100 100 100 100 100 100 100 79 94 99 83 84 99 87 48 11 6 5 41 23 29 2 2 4 5 5 30 15 92 100 100 100 86 100 100 100 99 94 100 98 100 100 100
100 100 100 100 100 100 100 100 97 88 73 38 24 46 17 7 12 6 6 54 26 5 5 5 5 26 60 75 62 100 100 100 100 99 98 100 100 100 100 100 100 100 100 100
100 100 100 100 100 99 73 13 7 16 39 6 5 5 14 6 5 24 10 5 2 9 99 86 89 93 100 100 100 100 100 100 100 100 99 100 100 100 100 100 100 100 100 100
92 82 48 44 23 23 53 36 6 5 5 5 8 13 7 5 5 24 77 69 15 66 74 73 82 80 100 100 100 100 100 100 83 97 100 100 100 100 100 100 100 100 100 100
97 99 100 82 54 42 8 5 5 11 7 6 5 5 5 5 5 5 5 10 40 22 95 95 100 99 99 100 100 100 100 100 100 100 96 100 100 100 100 100 100 100 100 100
52 44 36 8 5 5 5 4 5 6 62 80 67 67 7 5 5 5 5 5 5 5 13 77 100 99 100 100 100 100 100 100 100 100 100 100 100 100 100 100 100 100 100 100
68 5 5 4 3 5 5 11 75 79 87 92 58 5 5 10 67 19 8 49 85 68 97 98 90 99 100 100 100 100 100 100 100 100 100 100 100 100 100 100 100 100 100 100
5 5 5 5 9 14 5 9 5 4 1 5 5 26 71 95 100 95 98 100 100 100 100 100 100 100 100 100 100 100 100 100 100 100 100 100 100 100 100 100 100 100 100 100
5 5 5 5 5 6 5 5 5 5 13 68 63 90 100 100 100 100 100 100 100 100 100 100 100 100 100 100 100 100 100 100 100 100 100 100 100 100 100 100 100 100 100 100

GFSNGP_prec_cloud_045.txt.gz
Cloud_Cover
0 1 2 1 0 2 5 0 6 0 5 0 4 15 6 5 5 5 5 5 5 5 52 46 6 9 82 81 93 34 100 82 90 97 80 71 92 100 100 100 100 100 100 89
0 0 0 4 5 2 0 3 5 5 55 0 5 6 5 5 3 5 5 4 5 5 15 49 8 5 84 67 87 72 100 100 100 100 94 100 100 100 100 100 100 96 100 100
4 5 5 12 5 4 5 5 5 10 5 5 5 5 4 5 5 5 5 5 8 47 91 31 16 62 70 81 100 100 100 100 99 100 100 100 100 96 100 100 100 100 100 100
8 5 86 10 5 4 5 5 5 5 5 38 38 5 5 5 5 5 5 5 78 58 95 5 16 68 70 97 100 100 100 99 100 100 100 100 100 100 100 100 100 100 100 100
56 25 90 5 5 5 5 5 9 5 5 5 5 6 5 36 5 5 5 7 40 70 5 5 12 77 99 100 100 100 100 100 100 100 100 100 100 100 100 100 100 100 100 98
54 63 72 53 5 5 5 5 36 12 5 5 5 5 2 5 5 8 100 100 99 54 9 29 94 99 98 100 100 100 100 100 100 100 100 100 100 100 100 100 100 100 100 99
5 35 5 11 7 18 10 33 8 5 5 5 5 5 5 6 76 100 100 99 82 49 63 79 100 89 100 100 100 100 100 100 100 100 100 100 100 100 100 100 100 100 100 99
6 65 63 26 42 96 82 40 14 5 5 33 14 41 97 100 100 94 41 7 23 69 82 98 96 100 100 100 100 100 100 100 100 100 100 100 100 100 100 100 100 100 100 100
19 6 7 34 6 32 7 27 38 60 10 44 73 96 100 64 37 43 70 63 99 98 63 96 100 100 100 100 100 100 100 100 100 100 100 100 100 100 100 100 100 100 100 99
81 14 5 5 5 5 5 5 5 15 99 100 100 70 54 58 69 47 99 71 94 100 100 100 100 100 100 100 100 100 100 100 100 100 100 100 100 100 99 76 100 100 100 99
90 5 18 5 6 5 31 81 100 100 100 61 64 32 9 18 69 63 95 100 100 100 100 100 100 100 100 100 100 100 100 100 100 100 100 100 100 82 76 100 100 100 100 100
9 50 54 68 100 100 100 100 64 37 82 88 26 69 53 64 94 100 100 100 100 100 100 100 100 100 100 100 100 100 100 100 100 100 100 95 74 8 85 100 98 73 22 26
100 100 100 100 100 100 100 78 86 99 58 81 86 98 100 100 100 100 100 100 100 100 100 100 100 100 100 100 100 100 100 100 100 100 74 86 81 100 86 92 99 96 48 42
100 100 78 100 62 48 36 78 92 100 100 79 86 99 100 100 100 100 100 100 87 90 100 100 100 100 100 100 100 100 94 28 5 63 82 89 98 94 100 98 100 100 99 98
100 80 18 31 34 66 93 92 98 61 80 68 53 60 70 84 100 100 100 100 100 96 68 81 100 100 100 100 58 6 39 60 66 30 81 100 100 97 93 97 99 99 100 90
84 72 68 60 69 96 77 73 63 78 88 89 83 52 58 52 84 42 57 96 100 100 100 97 96 28 5 5 5 12 77 98 100 99 99 100 100 100 95 100 100 100 100 100
100 98 94 91 83 100 100 100 98 97 61 95 82 83 100 97 33 69 45 25 31 100 57 35 24 1 5 5 5 5 5 35 89 85 100 100 99 82 80 100 100 100 100 100
90 93 76 100 100 100 77 84 98 100 100 100 100 98 100 100 6 14 63 26 59 5 5 4 20 68 44 44 8 5 13 79 100 100 99 94 94 100 98 100 100 100 98 100
94 100 100 100 97 100 100 100 100 100 100 74 89 99 93 96 92 20 5 6 10 3 4 5 5 34 83 30 66 90 96 100 100 100 97 100 99 89 62 94 100 100 100 100
97 100 100 100 100 100 100 100 100 90 89 36 44 82 36 5 5 5 5 5 46 76 5 60 77 82 78 96 97 90 100 100 100 100 100 95 100 100 99 100 100 99 100 100
100 100 100 100 100 100 100 100 100 99 49 33 5 5 5 5 5 7 59 99 74 7 38 5 8 9 92 46 13 43 100 100 100 100 100 100 96 100 100 100 100 100 100 100
100 100 100 100 100 100 100 92 58 29 5 5 5 5 5 5 22 46 10 5 5 4 5 5 5 5 6 46 64 96 98 100 100 100 100 100 100 100 100 100 100 100 100 100
100 100 100 100 97 75 24 5 2 5 5 5 5 5 5 5 5 5 5 45 32 44 44 5 82 100 83 95 72 100 100 100 100 100 100 100 100 100 100 100 100 100 100 100
94 82 30 6 3 0 0 0 0 4 5 5 5 5 5 5 39 65 95 76 100 100 96 100 100 100 100 100 100 100 100 100 100 100 100 100 100 100 100 100 100 100 100 100
15 5 5 2 3 0 5 5 5 5 5 5 6 8 43 89 96 97 100 100 100 100 100 100 100 100 100 100 100 100 100 100 100 100 100 100 100 100 100 100 100 100 100 100
81 69 5 5 5 5 5 5 5 5 5 5 33 88 100 100 100 100 100 100 100 100 100 100 100 100 100 100 100 100 100 100 100 100 100 100 100 100 100 100 100 100 100 100
96 13 5 5 5 5 5 8 8 27 54 100 92 100 100 100 100 100 100 100 100 100 100 100 100 100 100 100 100 100 100 100 100 100 100 100 100 100 100 100 100 100 100 100

GFSNGP_prec_cloud_048.txt.gz
Cloud_Cover
5 5 79 0 50 64 5 5 3 0 0 0 1 24 20 5 1 5 0 4 26 91 84 42 69 100 100 100 78 89 100 100 100 79 100 100 100 95 100 100 100 100 100 100
5 3 0 0 4 2 0 0 0 0 0 0 1 5 5 35 4 5 5 5 5 5 5 23 100 100 100 75 63 100 100 100 100 100 100 86 93 100 100 100 100 100 100 100
5 2 5 5 0 0 0 0 0 1 5 5 4 5 6 5 5 6 5 5 5 5 10 98 100 100 97 65 92 100 100 100 100 100 100 100 100 100 100 100 100 100 100 100
5 5 5 0 0 0 0 0 0 20 41 5 5 6 5 5 22 5 34 33 10 5 5 100 100 100 100 100 100 94 70 100 100 100 100 100 100 100 100 100 100 100 100 100
22 14 6 0 2 0 0 0 4 11 5 3 5 5 5 11 23 23 5 5 5 5 85 93 36 30 32 67 100 90 99 100 100 100 100 100 100 100 100 100 100 100 100 100
5 5 13 5 5 4 5 5 5 5 8 8 5 5 5 5 21 18 5 5 9 99 100 35 5 5 7 49 100 100 100 100 100 100 100 100 100 100 100 100 100 100 100 100
5 47 5 17 5 5 5 5 5 5 5 5 29 12 5 5 5 5 12 100 100 96 11 18 36 82 96 85 100 100 100 100 100 100 100 100 100 100 100 100 100 100 100 100
11 91 63 5 21 13 5 5 5 28 9 5 36 5 5 41 16 96 100 100 90 52 93 83 90 100 100 100 100 100 100 100 100 100 100 100 100 100 100 100 100 100 97 100
11 5 5 5 6 38 57 5 5 33 68 47 41 48 54 100 100 100 100 80 92 59 88 88 80 100 100 100 100 100 100 100 100 100 100 100 100 100 100 93 100 100 91 5
5 5 8 6 13 98 9 80 95 87 100 100 100 100 100 100 88 98 88 50 56 100 100 100 100 100 100 100 100 100 100 100 100 100 100 100 100 100 100 100 92 8 5 5
5 5 5 5 90 46 28 35 89 100 100 100 100 100 77 46 42 64 91 100 100 100 100 100 100 100 91 98 99 100 100 100 100 100 100 100 100 100 87 18 41 5 85 72
10 96 14 51 36 60 69 100 100 100 100 100 80 68 53 90 100 100 100 100 100 100 100 100 93 81 81 98 100 100 100 100 100 100 100 60 18 5 5 3 5 32 30 97
5 6 28 8 45 79 100 100 100 100 100 70 80 92 100 99 100 100 100 73 68 78 86 94 96 63 37 95 99 100 100 100 17 6 5 5 56 85 98 75 50 5 6 32
8 11 25 92 100 100 100 100 82 54 57 55 66 8 17 55 91 98 100 100 72 87 61 84 67 56 62 68 5 3 2 5 5 5 5 62 99 100 100 97 43 5 5 10
100 78 100 100 100 100 87 96 85 93 96 61 25 43 84 96 99 91 61 76 86 95 63 61 5 8 30 2 0 2 5 5 5 19 75 50 100 73 49 100 100 67 29 69
69 100 100 96 98 100 100 99 78 72 100 100 99 69 68 99 100 99 100 100 100 34 6 7 30 5 5 7 5 5 5 5 5 14 34 81 77 96 99 100 100 78 81 56
100 100 100 100 100 100 100 100 100 100 67 73 95 100 100 100 100 100 100 76 60 99 55 9 4 73 72 92 100 62 5 5 5 5 6 61 100 100 100 97 100 91 50 56
100 100 100 100 100 100 100 100 89 74 94 100 100 100 100 100 100 100 100 76 11 5 4 5 5 23 85 40 3 5 5 6 9 65 74 90 87 78 99 95 100 87 40 79
100 100 100 100 100 100 100 100 96 100 100 100 100 100 100 100 80 53 18 5 5 5 44 5 5 4 5 6 88 100 71 8 27 45 97 100 63 98 98 98 69 79 75 100
100 100 100 100 100 100 100 100 100 100 100 100 100 98 41 8 10 5 5 5 4 6 5 4 5 5 5 5 5 7 52 79 64 44 92 99 99 100 100 100 100 99 94 100
100 100 100 100 100 100 100 100 100 100 83 63 14 5 5 5 5 5 5 5 54 5 5 5 5 95 98 45 5 7 78 99 85 98 100 100 100 100 100 100 100 100 100 100
100 100 100 100 100 100 100 100 82 71 33 10 5 5 5 4 5 5 5 40 5 20 5 9 100 59 50 15 75 98 100 96 98 97 100 100 100 100 100 100 100 100 100 100
100 100 100 100 100 100 80 64 24 5 5 5 5 5 5 5 5 5 81 98 81 36 17 86 53 5 5 99 96 99 96 100 100 100 100 100 100 100 100 100 100 100 100 100
100 100 100 100 100 74 18 14 38 18 5 5 5 5 5 7 23 61 78 14 11 50 98 100 63 15 74 100 100 99 84 100 100 100 100 100 100 100 100 100 100 100 100 100
97 83 57 31 7 5 5 5 5 5 5 5 7 5 11 38 49 50 74 90 100 93 100 100 100 93 100 100 100 100 100 100 100 100 100 100 100 100 100 100 100 100 100 100
81 16 6 5 11 5 5 5 9 30 5 25 63 5 62 76 76 74 89 100 98 100 98 100 100 100 100 100 100 100 100 100 100 100 100 100 100 100 100 100 100 100 100 100
93 88 71 42 98 73 65 9 70 57 64 93 42 5 96 95 100 97 84 100 100 100 100 99 100 100 100 100 100 100 100 100 100 100 100 100 100 100 100 100 100 100 100 100

GFSNGP_prec_cloud_051.txt.gz
Cloud_Cover
5 5 36 31 47 39 23 85 73 9 0 0 1 5 9 4 0 0 0 0 0 5 8 94 26 32 39 45 100 100 100 100 100 100 98 100 98 100 100 98 100 100 100 100
35 5 18 13 3 0 5 2 0 0 2 3 12 5 5 4 0 20 70 4 5 5 6 17 84 5 5 91 91 100 100 100 100 100 100 100 100 99 100 100 100 100 100 100
33 6 45 5 0 2 0 0 0 0 3 0 1 0 0 0 2 1 3 5 5 5 5 5 5 5 5 35 94 100 100 100 100 100 100 100 100 100 100 100 100 100 100 100
7 14 58 3 5 5 2 1 2 5 4 0 0 0 0 5 5 5 5 38 90 100 7 5 5 5 39 94 100 100 100 100 100 99 100 100 100 100 100 100 100 100 100 100
5 5 6 5 5 5 5 5 5 5 0 2 4 5 5 4 5 5 5 49 35 5 5 5 7 62 86 55 41 94 100 100 100 100 100 100 100 100 100 100 100 100 100 100
47 5 5 13 26 5 5 5 5 5 5 5 5 5 5 5 6 21 6 5 5 5 17 50 53 100 49 12 78 84 89 90 100 100 100 100 100 100 100 100 100 100 100 100
60 35 5 89 5 5 5 5 13 7 54 44 5 5 5 5 5 56 33 7 22 100 100 100 100 86 94 100 99 100 100 100 100 100 100 100 100 100 100 100 100 100 100 100
54 84 39 44 77 7 6 5 5 5 5 5 5 5 6 5 5 24 61 98 100 100 100 85 87 100 100 100 100 99 100 100 94 94 99 100 100 100 100 100 100 100 100 41
12 12 23 99 91 85 5 5 5 9 6 5 5 5 5 48 100 100 100 100 100 100 99 100 100 100 100 78 100 100 100 99 100 100 100 100 100 100 100 57 6 5 5 5
5 8 100 100 66 5 5 6 42 86 63 96 100 47 60 100 100 100 100 100 100 100 94 87 96 96 82 98 100 97 99 100 93 65 87 52 34 1 0 5 5 6 11 5
5 6 29 87 39 8 5 5 30 93 100 99 72 85 100 100 100 100 100 100 99 96 89 83 72 83 91 99 100 100 82 98 98 32 5 0 0 0 2 5 18 95 78 10
60 38 21 15 93 99 62 92 100 85 60 63 100 100 100 100 100 100 100 100 92 73 6 5 51 100 100 100 100 100 100 98 35 2 0 0 0 0 5 94 97 26 46 98
8 28 95 60 43 58 85 71 72 94 100 100 100 100 100 100 100 87 87 12 5 23 33 98 100 100 100 100 100 64 66 7 0 1 5 5 5 32 82 6 6 5 5 62
71 88 96 78 46 61 42 36 46 100 100 100 100 100 100 91 28 5 17 44 81 91 100 100 100 100 100 91 37 5 2 3 5 5 5 7 48 79 82 100 47 5 5 5
5 5 20 65 65 89 100 100 100 100 100 100 100 98 57 47 29 88 100 100 100 100 100 100 100 73 63 9 24 25 26 72 91 73 18 14 58 96 80 53 99 78 52 13
100 78 21 38 80 99 79 84 100 100 100 100 94 94 64 65 84 95 100 100 100 100 100 98 36 40 65 60 4 1 2 5 5 5 5 5 6 16 48 91 100 100 99 53
66 41 85 99 100 100 81 92 100 100 100 100 100 100 65 100 100 100 100 100 100 98 60 11 5 5 0 2 2 5 12 73 79 95 5 5 10 58 99 100 99 66 92 65
100 100 98 100 100 100 100 100 100 100 100 100 100 100 100 100 98 100 100 92 100 21 5 5 5 2 3 6 47 76 7 5 38 54 63 67 60 89 100 100 100 99 87 100
100 100 100 100 100 100 100 100 100 100 100 100 100 100 100 100 100 100 100 92 31 5 22 5 3 14 70 74 12 5 5 53 74 88 99 99 100 100 96 97 100 100 88 100
100 100 100 100 100 100 100 100 100 100 100 100 100 100 100 100 100 89 36 7 92 73 4 2 68 70 10 5 46 97 100 99 100 100 100 99 100 100 100 100 100 100 100 100
100 100 100 100 100 100 100 100 100 100 100 100 100 100 100 100 73 34 5 8 98 20 3 82 81 5 5 68 99 100 88 100 100 100 100 100 98 100 100 100 100 100 100 100
100 100 100 100 100 100 100 100 100 100 100 100 100 100 80 29 6 5 81 63 26 5 17 100 42 22 5 31 89 100 84 100 100 100 100 100 100 100 100 100 100 100 100 100
100 100 100 100 100 100 100 100 100 100 100 100 83 39 5 5 5 50 70 47 5 5 5 96 79 5 5 5 26 87 60 100 100 100 100 100 100 100 100 100 100 100 100 100
100 100 100 100 100 100 100 100 100 100 83 15 5 5 5 24 34 5 5 9 32 5 46 5 37 53 25 14 30 42 39 100 88 100 100 100 100 100 100 100 100 100 100 100
100 100 100 100 100 100 95 68 17 5 5 5 5 5 14 66 42 39 23 13 32 8 44 24 10 64 76 32 61 64 57 100 66 62 96 100 99 100 100 100 100 100 100 100
100 99 86 64 5 37 14 44 43 5 5 31 14 8 88 100 92 16 5 21 22 78 65 54 53 52 53 90 90 80 74 91 5 86 100 26 80 100 100 100 100 100 100 100
89 100 92 88 99 98 64 91 67 16 61 38 5 28 95 100 72 21 12 29 30 79 69 53 65 62 5 84 100 72 64 52 5 80 97 7 52 100 100 100 100 100 100 100

GFSNGP_prec_cloud_054.txt.gz
Cloud_Cover
84 100 100 100 94 0 3 5 5 0 4 0 0 0 0 5 2 0 0 0 0 4 5 5 10 47 70 69 84 88 100 85 100 93 47 25 96 100 83 94 76 100 82 100
99 100 98 3 4 0 2 51 7 65 5 4 0 0 5 0 0 0 0 0 2 6 5 5 1 5 5 6 99 100 95 9 31 93 95 98 100 96 100 100 92 100 100 94
86 5 1 8 4 5 0 0 2 8 5 5 5 0 0 4 5 5 5 5 6 5 5 6 16 25 15 5 5 38 76 98 80 100 92 99 75 100 100 100 98 100 99 100
100 6 40 9 11 0 0 5 5 4 5 2 0 0 0 2 4 5 5 5 1 3 5 4 5 5 5 5 26 95 100 98 90 93 96 97 100 99 100 99 99 100 96 100
100 14 6 6 5 0 0 5 5 5 5 5 0 0 4 5 5 5 5 5 5 5 20 13 5 21 36 31 99 100 72 77 98 100 100 100 100 100 100 100 100 93 100 100
100 38 22 75 5 1 0 14 5 5 5 5 1 4 5 5 5 5 5 5 16 8 5 13 86 100 100 100 100 91 81 98 99 100 100 100 100 100 100 100 97 100 51 0
83 31 52 79 6 5 36 5 5 5 5 5 5 5 5 5 5 5 5 5 18 89 100 100 100 100 100 99 96 98 98 100 99 100 100 100 100 100 97 100 96 3 0 3
34 58 79 100 96 8 5 5 5 5 5 5 14 5 5 5 5 7 59 94 100 100 100 100 100 100 96 92 90 100 98 100 100 99 100 100 100 100 100 66 0 0 0 3
42 7 97 94 82 5 5 5 5 5 5 31 37 47 53 98 99 83 100 100 100 100 100 100 100 92 81 99 100 100 96 85 98 100 100 100 60 81 25 0 0 0 4 5
5 92 73 87 30 5 5 5 8 26 47 12 5 6 5 5 40 88 77 100 100 100 100 100 100 100 100 91 5 34 99 98 100 100 52 32 36 3 0 0 0 5 5 5
23 92 7 69 68 9 5 5 48 87 20 5 6 16 36 70 85 100 100 100 100 100 100 99 84 92 61 6 31 96 98 98 83 18 19 13 5 1 3 0 5 5 5 29
83 10 12 10 38 27 30 66 95 82 90 99 99 100 100 100 100 100 100 100 100 100 88 15 33 9 5 5 36 87 99 50 65 37 5 3 5 5 5 5 5 58 96 67
83 8 5 5 7 32 93 99 91 100 100 99 97 100 100 100 100 100 100 100 88 22 48 50 9 5 16 76 77 19 59 62 5 5 5 5 27 63 43 5 5 5 5 87
100 76 6 5 10 28 59 65 98 98 100 100 99 85 98 99 98 97 86 43 6 78 82 36 22 26 84 30 24 68 16 5 5 5 5 5 5 5 21 73 77 30 57 100
100 100 73 5 5 5 5 55 58 44 61 38 31 31 40 93 87 49 36 60 100 58 34 39 32 54 29 48 28 5 5 6 5 20 31 53 60 13 39 63 97 100 70 70
100 100 100 77 8 5 34 100 100 100 89 74 98 100 100 100 100 100 100 100 98 82 45 68 76 45 41 5 6 52 47 5 5 5 5 58 66 84 99 100 88 58 68 99
100 100 100 100 91 61 55 92 100 94 98 100 100 100 100 100 100 99 92 100 100 99 100 100 91 11 14 15 5 5 5 6 37 99 100 99 100 100 100 100 100 100 100 100
100 100 100 100 100 100 100 100 100 100 100 100 100 100 100 97 92 88 100 100 100 100 96 46 68 5 5 1 55 75 99 94 75 98 95 100 100 82 98 99 100 100 99 100
100 100 100 100 100 100 100 100 100 100 100 100 100 100 100 97 83 96 100 100 100 100 98 90 6 5 4 6 73 95 66 66 99 60 99 82 90 100 100 100 100 100 100 100
100 100 100 100 100 100 100 100 100 100 100 100 100 97 93 98 100 100 100 100 100 91 57 75 5 5 5 24 68 47 68 100 56 96 99 100 100 100 100 95 99 100 100 100
100 100 100 100 100 100 100 100 100 100 100 100 99 100 100 100 100 100 100 100 75 5 48 89 24 5 5 24 61 12 12 100 82 100 100 100 100 96 100 100 100 100 100 100
100 100 100 100 100 100 100 100 100 100 100 100 100 100 100 100 100 96 66 5 5 18 24 63 20 49 24 36 18 46 50 94 26 98 100 100 100 100 100 100 100 100 100 100
100 100 100 100 100 100 100 100 100 100 100 100 100 100 100 97 20 32 62 72 5 16 13 80 86 76 43 53 67 81 88 89 49 79 100 96 72 100 100 100 100 100 100 100
100 100 100 100 100 100 100 100 100 100 100 100 100 92 33 30 59 31 17 65 75 74 81 62 88 100 64 66 92 100 91 93 63 39 100 59 6 100 96 100 100 100 100 100
100 100 100 100 100 100 100 100 100 100 100 98 26 6 42 89 61 66 59 66 70 68 53 76 79 83 85 100 95 100 100 95 22 61 100 25 12 87 82 100 100 100 100 100
100 100 100 100 100 100 100 100 100 100 79 37 43 42 97 100 95 86 53 50 55 55 55 99 63 79 7 67 89 100 98 61 11 95 93 24 35 61 80 94 100 100 100 100
100 100 100 100 100 100 100 100 97 94 98 94 65 50 99 100 100 94 66 20 87 89 78 100 59 87 5 52 74 94 93 46 27 99 53 73 37 15 55 92 100 100 100 100

GFSNGP_prec_cloud_057.txt.gz
Cloud_Cover
5 15 23 5 100 87 95 62 4 0 0 0 4 10 5 0 0 1 3 0 0 0 4 5 5 5 5 10 52 85 63 95 72 99 100 100 100 100 100 76 100 100 94 100
5 19 80 88 100 100 100 30 5 0 0 0 0 5 0 0 5 1 0 0 0 0 4 0 4 5 5 62 57 49 87 93 100 100 100 100 100 100 100 100 100 100 100 100
5 0 6 18 100 94 99 4 0 4 2 3 5 5 5 5 1 4 0 0 0 0 1 5 33 97 96 98 85 94 67 69 100 100 100 100 100 100 100 100 100 100 98 83
4 0 0 89 5 0 0 0 4 5 4 0 4 5 5 5 4 0 2 2 4 5 21 51 90 90 73 49 16 74 85 100 97 100 100 100 99 100 100 100 100 94 52 71
2 0 0 93 32 1 4 5 6 1 0 0 3 5 5 5 5 4 5 5 5 5 5 5 5 5 5 40 100 100 100 100 100 100 100 100 100 100 100 98 92 75 58 67
6 4 5 100 86 5 1 7 0 0 0 0 5 5 5 5 5 5 5 5 5 7 10 5 6 5 28 94 100 100 100 100 100 100 98 92 100 100 72 91 15 6 56 15
30 5 12 100 100 15 5 72 0 0 2 5 5 5 5 5 5 5 5 5 8 46 56 47 10 91 74 74 100 100 100 99 98 96 88 90 79 89 51 9 26 32 6 5
6 97 30 100 100 43 5 2 1 5 5 5 5 5 5 5 5 5 23 28 13 5 5 50 100 100 96 100 100 100 100 86 92 85 73 54 93 77 23 8 12 9 1 0
8 4 5 80 100 99 6 5 5 5 5 5 5 5 5 5 5 5 5 5 5 26 97 100 100 100 100 100 100 100 91 90 24 29 66 100 41 5 5 5 5 0 0 0
7 55 5 94 100 100 50 5 16 33 5 5 10 7 5 5 10 11 12 82 100 100 100 100 100 100 100 100 98 73 5 5 14 5 24 5 5 5 5 8 5 5 5 5
83 99 93 85 100 100 100 89 66 72 22 5 17 18 23 77 80 83 81 100 100 100 100 100 100 100 100 58 7 8 23 50 12 5 5 5 5 41 17 5 5 5 5 6
94 100 88 81 98 100 100 100 99 100 84 72 29 27 70 64 87 100 100 100 100 100 100 100 100 90 12 15 6 23 50 58 15 7 14 5 13 16 5 3 1 2 5 5
100 100 100 100 97 100 100 100 100 100 100 100 99 100 100 100 100 100 100 100 100 100 100 98 15 25 5 5 5 24 88 99 83 32 5 40 5 12 76 14 6 5 5 5
100 100 100 100 100 100 100 100 100 100 100 100 100 100 98 95 98 100 100 100 100 91 70 67 57 5 14 60 74 96 100 100 60 5 5 5 22 93 94 100 100 84 50 92
100 100 100 100 100 100 100 100 100 100 100 100 100 100 100 100 100 88 85 86 87 92 89 70 55 57 69 91 99 100 89 50 6 33 88 92 89 95 100 100 100 100 97 37
100 100 100 99 76 99 98 100 100 100 98 80 73 83 94 100 100 100 100 100 100 100 98 98 89 97 98 100 100 99 51 47 28 85 98 98 97 95 87 100 78 91 88 100
100 98 100 98 100 60 99 100 100 100 95 88 100 100 100 100 100 100 100 100 89 91 100 96 95 99 100 100 78 100 98 39 75 94 31 100 67 100 100 100 100 100 100 100
100 100 100 100 100 100 100 100 100 100 100 100 100 100 100 100 100 100 100 100 100 100 100 100 99 100 75 58 68 52 31 100 74 48 96 92 100 100 100 100 100 100 100 100
100 100 100 100 100 100 100 100 100 100 100 100 100 100 100 100 100 100 100 100 100 100 100 100 100 70 25 9 49 7 59 99 7 55 59 76 100 74 99 100 100 100 100 100
100 100 100 100 100 100 100 100 100 100 100 100 100 100 100 100 100 100 100 100 100 100 100 100 100 81 57 62 44 5 40 89 5 71 78 89 100 85 100 91 87 100 100 100
100 100 100 100 100 100 100 100 100 100 100 100 100 100 100 100 100 100 100 100 100 100 100 100 89 64 56 29 6 52 66 68 52 93 99 100 90 70 100 93 98 100 100 100
100 100 100 100 100 100 100 100 100 100 100 99 100 100 100 100 100 100 100 100 100 100 100 98 71 64 30 75 25 82 74 70 33 56 100 100 60 72 100 95 99 100 100 100
100 100 100 100 100 100 100 100 100 100 100 100 100 100 100 100 100 100 100 100 100 100 82 74 89 89 54 65 93 100 100 100 63 37 99 100 59 55 98 91 93 100 100 100
100 100 100 100 100 100 100 100 100 100 100 100 100 100 100 100 100 100 100 98 88 98 78 74 92 91 99 100 100 100 100 100 61 73 100 77 48 19 10 64 92 91 98 100
100 100 100 100 100 100 100 100 100 100 100 100 100 100 100 100 100 100 95 77 93 62 61 84 92 5 42 100 100 100 100 95 48 90 99 84 45 48 19 29 46 83 98 100
100 100 100 100 100 100 100 100 100 99 97 98 100 97 98 90 72 74 90 90 64 72 64 100 99 88 48 51 99 100 100 79 36 100 99 71 18 24 46 50 16 64 86 100
99 99 100 100 100 100 100 100 100 98 93 89 73 77 100 100 100 100 100 85 100 100 100 100 90 95 59 74 76 96 98 99 87 100 98 70 5 30 51 64 69 60 66 90

GFSNGP_prec_cloud_060.txt.gz
Cloud_Cover
100 47 4 5 4 0 25 92 22 5 46 93 0 0 42 47 5 0 0 2 3 0 0 0 4 5 36 66 51 7 44 99 93 93 100 100 100 91 100 100 100 45 100 100
100 16 5 4 0 3 97 100 100 19 72 100 0 0 0 3 4 2 0 4 5 3 2 0 4 5 5 5 5 5 5 11 100 100 100 100 100 100 100 100 100 100 100 100
100 57 4 3 0 2 58 100 100 100 94 5 0 0 0 0 4 5 4 5 0 5 0 0 0 0 2 5 5 12 93 100 100 100 100 100 100 100 100 100 100 98 100 71
100 61 36 12 1 0 1 65 66 78 3 0 0 0 4 5 0 5 5 5 5 5 4 2 3 5 14 67 97 96 100 100 100 100 100 100 99 100 100 100 94 89 89 100
97 12 91 95 3 1 0 4 15 4 0 0 5 5 5 0 0 5 5 5 5 5 5 5 5 11 60 98 100 100 100 100 100 100 88 100 100 100 100 100 96 99 99 56
69 98 100 23 3 0 0 22 62 0 0 0 4 5 4 0 1 5 5 19 15 36 36 44 62 58 42 100 100 100 100 100 100 100 100 100 100 100 98 59 97 72 85 39
100 93 100 98 14 17 2 2 5 64 16 5 4 0 2 5 3 5 5 5 5 5 5 5 41 52 77 100 98 100 100 100 100 100 93 99 69 39 50 72 79 90 31 60
100 77 100 48 5 4 9 6 8 90 100 86 6 2 4 5 5 5 5 5 5 5 5 5 23 34 20 71 99 100 100 96 89 80 66 29 7 30 34 52 92 98 64 80
100 96 100 100 74 12 7 5 5 5 63 97 99 14 5 5 5 5 5 5 5 5 6 36 13 5 42 99 100 100 100 99 77 38 5 5 5 6 18 80 75 65 30 5
100 100 100 100 100 9 2 5 5 6 91 100 95 84 34 34 65 64 53 39 35 6 24 57 69 91 100 100 100 97 54 25 6 5 5 5 5 5 10 5 9 5 7 11
100 100 100 100 58 97 13 36 19 33 95 100 100 100 100 48 39 17 27 44 48 61 79 82 100 100 100 87 28 5 5 5 5 5 5 5 5 5 5 5 5 15 81 72
100 100 100 95 99 65 17 77 92 79 100 100 100 100 100 100 100 100 100 100 100 100 100 100 99 100 100 26 5 5 5 5 5 5 5 5 12 12 72 74 99 100 100 86
100 100 100 100 100 100 100 100 100 100 100 100 100 100 100 100 100 100 100 100 100 100 100 100 100 100 6 5 5 5 5 5 5 12 19 64 85 90 96 91 100 100 100 94
100 100 100 100 100 100 100 98 100 62 100 100 100 92 100 100 100 100 100 100 100 100 100 100 100 80 79 64 24 8 20 11 41 56 73 96 100 100 98 77 71 64 93 74
100 100 100 100 100 99 80 92 100 100 100 100 100 100 100 100 100 100 100 100 100 100 100 100 97 97 86 77 68 73 86 76 72 70 75 70 72 66 52 90 92 100 37 14
100 100 100 100 100 98 100 100 100 100 100 100 100 100 100 100 100 100 100 100 100 100 100 97 92 98 95 100 99 100 100 96 99 98 100 100 93 100 100 100 100 100 100 100
100 100 100 100 99 100 100 100 96 100 100 95 94 100 100 100 100 100 100 100 100 100 100 100 100 100 100 100 100 100 100 100 100 100 100 68 92 100 97 100 100 100 100 91
100 100 100 100 100 100 100 100 100 100 100 100 100 100 100 100 100 100 100 100 100 100 100 100 100 100 100 100 100 100 100 100 100 100 86 100 97 88 70 100 82 95 100 81
100 100 100 100 100 100 100 100 100 100 100 100 100 100 100 100 100 100 100 100 100 100 100 100 100 100 100 100 100 100 100 100 100 100 100 70 65 23 58 100 89 76 100 100
100 100 100 100 100 100 100 100 100 100 100 100 100 100 100 100 100 100 100 100 100 100 100 100 100 100 100 100 100 100 100 100 95 98 69 63 69 13 50 98 48 58 99 100
100 100 100 100 100 100 100 100 100 100 100 100 100 100 100 100 100 100 100 100 100 100 100 100 100 100 100 100 100 100 98 90 69 60 100 100 99 27 5 86 50 17 98 100
100 100 100 100 100 100 100 100 100 100 100 100 100 100 100 100 100 100 100 100 100 100 100 100 100 100 100 99 100 85 62 36 6 29 94 100 64 55 18 61 56 47 86 92
100 100 100 100 100 100 100 100 100 100 100 100 100 100 100 100 100 100 100 100 100 100 100 100 100 100 100 97 99 100 100 88 14 50 99 100 96 70 47 29 52 33 64 74
100 100 100 100 100 100 100 100 100 100 100 100 100 100 100 100 100 100 98 91 100 100 100 100 98 66 99 100 100 100 100 100 64 74 100 89 72 41 5 21 40 5 17 40
100 100 100 100 99 99 90 93 99 100 100 100 100 98 90 81 88 88 74 82 84 57 58 81 96 39 50 100 100 100 100 100 95 95 100 100 72 20 5 5 6 55 68 57
100 100 100 100 100 100 100 100 98 93 92 94 99 97 99 100 100 100 100 86 66 55 61 100 100 100 80 66 96 100 100 100 100 100 100 100 43 6 5 5 19 30 55 63
100 100 100 100 100 100 100 100 100 100 100 100 100 100 100 100 99 95 91 86 100 100 100 100 100 100 94 100 100 100 100 100 100 100 100 100 48 16 5 5 32 54 49 61

GFSNGP_prec_cloud_063.txt.gz
Cloud_Cover
5 5 5 68 89 5 5 0 0 86 35 100 94 100 85 85 3 0 2 2 2 0 4 56 5 11 20 48 60 100 100 100 100 100 100 100 100 100 100 100 100 100 100 100
5 10 94 99 100 38 5 19 0 2 89 70 100 100 100 76 5 5 5 5 5 5 5 5 5 5 5 43 53 30 51 99 100 100 100 100 100 100 100 100 100 100 100 100
5 5 5 97 26 31 5 31 3 0 68 96 20 76 100 64 5 5 3 0 3 0 1 9 27 24 55 56 51 39 39 46 69 97 100 100 100 100 100 100 100 100 99 66
6 5 22 100 100 86 5 5 0 1 68 100 39 19 40 4 0 5 4 2 3 4 4 4 5 5 5 5 8 37 84 86 98 100 100 100 100 100 100 100 98 33 92 99
5 5 34 99 100 5 1 41 0 2 0 0 11 100 67 5 5 5 5 5 5 3 5 5 5 11 13 67 99 100 100 100 100 100 98 88 100 100 69 87 100 100 76 33
100 40 75 100 100 100 5 98 0 0 0 0 1 80 100 93 5 6 25 24 5 5 5 5 6 43 66 85 84 100 99 100 89 77 100 100 98 98 92 47 5 5 16 29
100 100 52 100 100 89 9 93 36 5 5 0 5 11 89 89 60 85 92 56 33 49 6 6 18 83 79 83 100 100 71 86 99 94 80 100 31 6 5 11 31 7 6 53
100 100 100 99 38 99 98 100 90 14 64 5 15 13 12 20 10 67 78 100 99 97 95 97 99 79 77 80 53 69 99 99 97 100 72 6 14 5 11 45 5 17 80 93
100 100 20 80 93 100 98 100 100 100 30 5 67 50 19 7 66 99 98 69 79 100 100 100 90 19 5 20 83 92 95 97 98 11 5 15 5 50 58 7 57 72 38 70
100 71 100 100 100 100 91 33 100 100 99 44 61 20 5 26 15 17 45 59 33 7 20 35 68 87 84 96 97 92 96 28 5 5 5 33 58 62 27 26 55 20 36 50
100 96 100 100 100 100 93 100 100 100 51 6 92 92 70 14 10 9 16 20 73 88 96 94 93 61 84 87 84 48 27 10 5 5 18 65 41 38 38 48 28 64 94 83
100 100 100 100 100 100 100 100 100 100 81 32 95 100 100 92 71 79 74 51 61 92 92 100 97 96 100 100 100 100 100 97 69 38 71 74 77 77 79 50 47 21 5 73
100 100 100 100 100 100 100 98 97 66 97 99 100 100 100 79 100 100 100 100 100 100 100 100 100 100 100 100 100 96 96 80 80 99 100 93 74 68 60 61 96 26 63 59
100 100 100 100 100 100 100 100 100 100 100 100 91 62 75 100 100 100 100 100 100 100 100 100 100 100 100 100 93 83 89 96 90 68 35 33 5 9 23 6 7 53 65 70
100 100 100 100 100 100 100 100 100 100 100 99 88 100 100 99 98 100 91 80 100 100 100 100 100 100 100 100 100 99 87 60 54 69 72 57 54 12 8 19 38 13 5 16
100 100 100 100 100 100 100 100 100 100 100 100 99 92 71 89 95 92 96 100 100 100 100 100 100 100 100 100 94 74 70 97 92 82 90 75 58 79 95 82 60 45 5 68
100 100 100 100 100 100 100 100 99 100 100 100 96 98 99 100 100 100 100 100 99 100 100 100 100 100 100 100 100 100 100 87 99 98 65 85 100 100 92 69 100 82 78 98
100 100 100 100 100 100 100 100 100 100 100 100 100 100 100 100 100 100 100 100 100 100 100 100 100 100 100 97 99 94 99 98 93 88 100 100 100 70 75 83 98 80 70 76
100 100 100 100 100 100 100 100 100 100 100 100 100 100 100 100 100 100 100 100 100 100 100 100 100 100 100 99 94 100 100 100 100 100 100 94 53 31 48 77 99 91 80 91
100 100 100 100 100 100 100 100 100 100 100 100 100 100 100 100 100 100 100 100 100 100 100 100 100 100 100 100 100 100 100 97 89 54 78 69 89 85 83 11 32 70 94 93
100 100 100 100 100 100 100 100 100 100 100 100 100 100 100 100 100 100 100 100 100 100 100 100 100 100 100 100 96 78 80 60 25 5 57 96 100 99 91 69 81 89 99 100
100 100 100 100 100 100 100 100 100 100 100 100 100 100 100 100 100 100 100 100 100 100 99 100 100 100 100 83 80 89 75 86 24 5 28 87 100 100 88 90 87 100 100 100
100 100 100 100 100 100 100 100 100 100 100 100 100 100 100 100 100 100 95 98 99 94 91 88 90 98 70 61 73 85 93 98 95 60 55 92 100 100 100 73 23 97 100 100
100 100 100 100 100 100 98 100 100 100 100 100 100 100 100 100 99 100 98 88 95 99 85 78 70 58 28 31 71 94 94 100 100 99 97 82 100 100 100 86 7 57 100 100
100 100 99 100 100 100 100 100 99 100 100 99 98 100 100 100 98 100 100 100 100 100 100 100 100 96 97 100 100 90 67 77 100 100 100 100 100 100 100 100 69 70 97 100
100 100 100 100 100 100 100 100 100 100 100 100 100 100 100 100 100 100 100 100 100 100 100 100 100 100 100 100 100 100 100 100 100 100 100 100 100 100 100 84 70 72 96 100
100 100 100 100 100 100 100 100 100 100 100 100 100 100 100 100 100 100 100 100 100 100 100 100 100 100 100 100 100 100 100 100 96 90 100 100 100 100 100 92 88 88 98 100

GFSNGP_prec_cloud_069.txt.gz
Cloud_Cover
100 100 100 83 91 77 12 13 53 33 99 58 97 100 9 100 94 17 82 7 98 100 88 84 2 18 68 68 61 46 62 90 100 100 100 100 100 100 100 100 100 100 100 100
100 100 100 100 99 87 17 22 5 45 7 29 11 6 5 0 0 0 78 100 100 100 100 100 48 99 100 100 100 100 100 100 100 100 100 100 100 100 100 100 100 100 100 100
100 100 100 58 100 100 68 44 5 5 28 90 86 5 5 5 5 0 5 29 91 100 94 39 88 100 100 100 100 100 100 100 100 100 100 100 100 100 100 100 100 100 100 96
100 100 34 100 100 100 88 92 87 7 5 9 5 5 2 5 5 5 5 45 1 6 59 54 100 100 100 100 100 100 100 100 100 100 98 100 100 100 100 100 100 99 89 68
96 100 100 100 100 100 100 100 73 8 5 5 5 5 5 5 5 22 5 5 5 0 6 25 37 42 54 68 85 89 100 100 95 87 81 100 99 100 100 78 91 78 81 94
100 100 100 100 100 100 100 79 97 5 54 59 5 6 5 83 46 100 100 39 7 5 5 1 3 6 22 32 97 94 94 78 74 98 100 79 42 78 56 67 76 92 100 100
100 100 100 100 100 100 100 100 47 52 46 25 51 13 5 7 96 100 100 100 88 35 6 5 5 5 88 100 91 91 90 73 81 100 83 86 95 100 100 100 100 100 100 100
100 100 100 100 100 100 100 100 100 100 55 95 28 10 32 5 28 35 99 100 100 99 87 84 25 5 82 36 51 52 82 100 100 100 100 100 100 100 100 100 100 100 87 56
100 100 100 100 100 100 100 100 100 83 88 91 27 68 9 55 73 94 28 77 100 100 100 71 95 51 99 47 66 100 100 100 100 100 100 100 100 100 100 76 100 76 58 16
100 100 100 100 100 100 100 100 100 100 100 100 40 97 100 100 77 55 69 100 100 100 73 68 13 48 100 36 17 74 72 90 100 98 86 9 5 5 72 96 70 41 60 49
100 100 100 100 100 100 100 100 100 100 64 14 100 100 100 100 100 100 98 89 55 6 9 64 100 100 90 69 57 67 93 99 78 71 30 57 43 32 35 95 46 40 68 29
100 100 100 100 100 100 100 100 100 93 44 49 98 76 49 92 100 36 98 94 56 85 100 100 100 95 72 94 82 93 100 95 83 75 60 61 77 100 94 49 70 100 93 80
100 94 100 100 100 100 100 100 100 50 44 6 64 100 74 47 69 99 95 100 100 100 100 100 45 92 99 97 100 100 100 100 98 100 96 99 80 70 94 100 100 100 100 70
100 100 100 100 100 100 100 100 96 18 15 70 100 100 99 100 100 100 99 94 48 60 79 42 36 85 87 100 100 100 100 100 100 94 100 100 100 100 100 100 100 100 98 81
100 100 100 100 100 100 100 100 100 100 100 100 100 92 40 5 5 15 68 72 72 56 70 96 100 100 100 100 100 100 100 100 100 100 100 100 100 100 100 100 100 100 100 56
100 100 100 100 100 100 100 100 100 100 85 38 37 25 56 59 97 100 100 98 96 95 98 100 100 100 100 100 100 100 100 100 100 100 100 100 100 100 100 100 100 100 100 100
100 100 100 100 99 100 100 86 40 24 34 41 60 94 98 100 100 100 100 100 100 100 100 100 100 100 100 100 100 100 100 100 100 100 100 100 100 100 100 100 100 100 100 100
100 100 100 97 43 13 41 65 80 88 93 96 99 98 100 100 100 100 100 100 100 100 100 100 100 100 100 100 100 100 100 100 100 100 100 100 100 100 100 100 100 100 100 100
91 79 100 90 87 86 98 95 93 100 100 100 100 100 100 100 100 100 100 100 100 100 100 100 100 100 100 100 100 100 100 100 100 100 100 100 100 100 100 100 100 100 100 100
100 98 97 100 100 100 100 100 100 100 100 100 100 100 100 100 100 100 100 100 100 100 100 100 100 100 100 100 100 100 100 100 100 100 100 100 100 100 100 100 100 100 100 100
100 100 100 100 100 100 100 99 87 100 100 100 100 100 100 100 100 100 100 100 97 100 100 100 100 100 100 100 100 100 100 100 100 100 100 100 100 100 100 100 100 100 100 100
100 100 100 100 100 100 100 100 99 98 99 99 100 100 100 100 100 94 94 96 95 100 100 100 100 100 100 100 100 100 100 100 100 100 100 100 100 100 100 100 100 100 100 100
100 100 100 98 97 100 100 100 100 100 100 99 100 98 98 100 100 100 100 100 100 100 100 100 100 100 100 100 100 100 100 100 100 100 100 100 100 100 100 100 100 100 100 100
100 100 100 100 97 80 71 99 91 98 92 88 96 99 100 100 100 100 94 94 96 99 100 100 100 100 100 100 100 100 100 100 100 100 100 100 100 100 100 100 100 100 100 100
100 100 100 100 100 99 95 80 88 100 97 96 98 100 100 96 100 100 100 100 100 100 100 56 94 97 99 100 100 100 100 100 100 100 100 100 100 100 100 100 100 100 100 100
100 100 100 100 100 100 100 100 100 100 100 100 100 100 100 100 100 100 100 100 100 100 100 100 100 100 100 100 100 100 100 100 100 100 100 100 100 100 100 100 100 100 100 100
100 100 100 97 100 100 100 100 100 100 100 100 100 100 100 100 100 100 100 100 100 100 100 100 100 100 100 100 100 100 100 100 100 100 100 100 100 100 100 100 100 100 100 100

GFSNGP_prec_cloud_075.txt.gz
Cloud_Cover
100 100 100 100 100 99 23 100 68 100 100 100 5 5 38 95 5 44 8 17 4 5 4 0 0 3 10 61 90 78 100 100 100 100 100 100 100 100 100 100 100 100 100 100
100 100 100 100 100 10 29 60 100 100 100 100 100 99 39 86 98 5 5 0 0 1 5 5 87 16 42 74 85 100 100 100 100 100 100 100 100 100 100 100 100 100 100 100
100 100 100 95 100 99 60 37 100 100 100 100 100 100 7 68 58 36 6 4 0 0 20 5 1 31 100 99 70 88 100 100 100 100 100 100 100 100 100 100 100 100 100 100
100 100 100 62 100 85 28 93 100 100 100 100 100 100 11 99 82 80 34 2 0 0 0 5 16 42 51 57 75 97 100 100 100 100 100 100 100 100 100 100 100 100 38 34
100 100 100 100 100 100 100 100 100 100 100 100 100 100 100 100 100 14 97 31 1 3 10 5 5 5 10 47 34 89 100 100 100 100 100 100 100 100 100 85 52 36 25 63
100 100 100 100 100 100 100 100 100 100 100 100 100 100 100 100 100 83 100 33 5 5 5 5 5 5 40 96 80 100 100 100 100 100 100 100 100 98 100 99 48 70 5 13
100 100 100 100 100 100 100 100 100 100 56 100 100 100 100 100 100 100 100 100 96 7 5 25 12 10 56 93 100 100 100 100 100 100 75 46 96 100 73 41 35 31 21 100
100 100 100 100 100 100 98 100 100 100 76 87 98 82 100 61 98 100 100 100 100 36 5 5 86 82 57 67 100 100 100 99 100 100 99 68 76 74 10 38 94 100 100 100
100 100 100 100 100 100 100 100 100 100 100 100 100 86 100 100 100 98 100 100 97 100 100 50 87 93 96 42 61 100 100 100 95 100 100 84 92 8 6 48 100 100 100 63
100 100 100 100 100 100 100 100 100 98 89 100 100 99 100 76 47 36 96 14 32 10 34 82 90 66 38 5 35 100 100 100 100 99 100 97 57 91 65 87 94 100 100 100
100 100 100 100 100 100 100 100 100 95 100 99 93 96 81 100 100 100 100 30 7 5 77 31 68 99 100 87 96 100 100 100 100 100 100 100 100 100 100 100 100 100 100 100
100 100 100 100 100 100 100 100 100 100 100 99 80 100 100 100 100 100 84 70 63 70 40 87 100 100 100 100 100 100 100 100 100 100 100 100 100 100 100 100 100 100 100 100
100 100 100 100 100 100 100 100 100 100 100 100 100 100 100 100 100 100 99 100 99 100 100 100 100 100 100 100 100 100 100 100 100 100 100 100 100 100 100 100 100 100 100 100
100 100 100 100 100 100 100 100 100 100 100 100 100 100 100 100 100 100 91 99 100 100 100 100 100 100 100 100 100 100 100 100 100 100 100 100 100 100 100 100 100 100 100 100
57 68 100 100 100 100 100 100 100 100 100 100 100 100 100 100 100 100 85 77 100 100 100 100 100 100 100 100 100 100 100 100 100 100 100 100 100 100 100 100 100 100 100 100
86 72 89 100 97 100 100 100 100 100 100 100 100 100 100 100 100 100 100 100 100 100 100 100 100 100 100 100 100 100 100 100 100 100 100 100 100 100 100 100 100 100 100 100
19 100 100 100 100 100 100 100 100 100 100 100 100 100 100 100 100 100 100 100 100 100 100 100 100 100 100 100 100 100 100 100 100 100 100 100 100 100 100 100 100 100 100 100
5 73 62 99 100 100 100 100 100 100 100 100 99 100 100 100 100 100 100 100 100 100 100 100 100 100 100 100 100 100 100 100 100 100 100 100 100 100 100 100 100 100 100 100
13 36 50 100 100 100 100 100 100 100 100 100 100 100 100 100 100 100 100 100 100 100 100 100 100 100 100 100 100 100 100 100 100 100 100 98 100 100 99 94 96 97 100 100
95 97 99 100 100 100 100 100 100 100 100 100 100 100 100 100 100 100 100 100 100 100 100 100 100 100 100 91 100 100 99 89 60 86 100 100 100 96 100 86 97 100 100 100
100 100 100 100 100 100 100 100 100 100 100 100 93 100 100 100 100 100 100 100 100 100 100 100 100 97 93 99 98 79 93 81 73 88 94 92 83 100 100 100 100 100 100 100
100 100 100 100 100 100 100 100 100 100 100 100 100 100 100 100 100 100 100 100 100 100 100 100 99 75 32 34 60 62 41 43 32 65 75 93 92 100 100 100 100 100 99 100
100 100 100 100 100 100 100 100 100 100 100 100 100 100 100 100 100 100 100 100 100 100 94 68 68 66 46 71 86 65 46 5 58 90 99 100 100 100 100 100 100 100 100 100
100 100 100 100 100 100 100 100 100 100 100 100 100 100 100 100 100 100 100 100 94 96 91 82 66 19 24 8 30 28 54 80 99 85 84 89 98 100 100 99 100 100 100 90
100 100 100 100 100 100 100 100 100 100 100 100 100 100 100 100 100 100 99 70 85 89 92 92 60 19 48 7 9 38 79 30 66 88 83 87 70 62 79 76 96 100 95 81
100 100 100 100 100 100 100 100 100 100 100 100 100 100 100 100 100 96 69 30 25 56 75 81 5 14 5 5 64 43 28 48 72 77 81 68 24 65 100 91 77 70 23 40
100 100 100 100 100 100 100 100 100 100 100 100 100 100 98 90 71 63 62 16 8 5 5 5 6 17 7 24 50 18 6 77 59 22 7 29 50 100 74 42 9 11 30 56

GFSNGP_prec_cloud_078.txt.gz
Cloud_Cover
2 100 100 100 61 100 100 100 100 100 100 8 19 67 100 54 100 100 34 3 5 2 1 4 6 12 27 51 58 27 53 97 100 100 100 100 100 100 100 100 100 100 100 100
43 92 100 100 96 100 100 100 100 100 14 100 5 89 59 91 100 59 5 61 5 32 20 0 5 65 100 100 100 98 100 100 100 100 100 100 100 100 100 100 100 100 100 100
0 5 100 98 9 100 100 100 100 100 100 100 100 99 59 100 100 100 8 8 5 61 68 16 22 93 100 100 100 100 100 100 100 100 100 100 100 100 100 100 100 100 100 100
74 77 100 9 100 100 100 100 100 100 100 100 96 100 84 16 100 100 87 8 5 5 100 100 97 100 100 100 100 100 100 100 100 100 100 100 100 100 100 100 100 100 100 100
99 12 39 62 96 100 100 100 100 100 100 100 100 96 54 5 97 100 100 77 16 5 39 79 100 100 100 100 100 100 100 100 100 100 100 100 100 100 100 100 100 100 100 100
66 24 17 95 100 100 100 100 100 100 100 100 100 71 5 100 100 100 100 100 83 74 61 93 46 36 72 100 100 100 100 100 100 100 100 100 100 100 100 100 100 100 30 55
100 39 70 99 100 100 100 32 100 100 100 100 100 100 100 77 100 100 100 100 29 7 33 100 57 23 54 100 100 100 100 100 100 100 100 100 100 100 100 100 80 62 60 73
100 93 100 100 100 100 100 100 100 100 100 100 100 100 100 100 100 100 100 100 42 90 100 100 100 93 15 60 82 100 100 100 100 100 100 100 100 100 100 82 47 100 100 95
100 78 100 100 100 100 100 99 100 100 98 100 100 100 100 100 100 100 91 100 100 100 98 100 100 100 92 68 70 100 100 100 100 100 100 100 100 100 100 100 100 100 100 100
94 100 100 100 100 100 100 100 100 100 100 100 97 97 100 100 100 96 100 100 100 100 100 100 96 100 96 46 87 89 95 100 100 100 100 100 100 100 100 100 100 100 98 100
33 99 100 100 100 100 100 100 100 100 100 100 100 98 80 95 84 58 84 99 100 100 100 82 58 100 100 100 100 100 100 100 100 100 100 100 100 100 100 100 100 100 100 100
93 100 100 100 100 100 100 100 100 100 100 100 100 100 100 100 100 100 95 91 100 100 100 90 43 75 99 100 100 100 100 100 100 100 100 100 100 100 100 100 100 100 100 100
100 100 100 100 100 100 100 100 100 100 100 100 100 100 100 100 100 100 100 100 100 100 96 84 88 100 100 100 100 100 100 100 100 100 100 100 100 100 100 100 100 100 100 100
16 100 100 100 100 100 100 100 100 100 100 100 100 100 100 100 100 100 100 100 100 100 70 96 100 100 100 100 100 100 100 100 100 100 100 100 100 100 100 100 100 100 100 100
96 99 100 100 100 100 100 100 100 100 100 100 100 100 100 100 100 100 100 100 100 100 100 97 100 100 100 100 100 100 100 100 100 100 100 100 100 100 100 100 100 100 100 100
73 98 100 100 100 100 100 100 100 100 100 100 100 100 100 100 100 100 100 100 100 100 100 100 100 100 100 100 100 100 100 100 100 100 100 100 100 100 100 100 100 100 100 100
5 38 100 100 100 100 100 100 100 100 100 100 100 100 100 100 100 100 100 100 100 100 100 100 100 100 100 100 100 100 100 100 100 100 100 100 100 100 100 100 100 100 100 100
5 26 100 100 100 100 100 100 97 83 86 100 100 100 100 100 100 100 100 100 100 100 100 100 100 100 100 97 100 99 97 100 99 100 100 100 100 100 99 96 99 100 100 100
89 87 100 100 100 91 99 98 93 100 100 100 100 100 100 100 100 100 100 100 100 100 100 100 100 100 100 100 92 96 100 100 100 100 100 93 92 80 93 97 88 97 100 100
100 100 100 100 100 100 100 100 100 100 83 100 100 100 100 100 100 100 100 100 100 100 100 100 80 82 100 100 100 100 100 100 100 72 75 80 77 77 99 100 100 100 100 100
100 100 100 100 100 100 100 100 100 100 100 100 100 100 100 100 100 100 100 100 100 100 100 100 100 100 100 100 100 100 99 46 66 99 84 70 61 70 94 98 96 99 100 94
100 100 100 100 100 100 100 100 100 100 100 100 100 100 100 100 100 100 100 100 100 100 97 84 88 100 100 100 100 95 66 72 66 61 76 88 87 78 81 77 82 100 100 100
100 100 100 100 100 100 100 100 100 100 100 100 100 100 100 100 100 100 100 100 100 100 100 100 100 100 100 60 24 46 68 81 96 96 97 96 100 100 100 100 95 96 90 100
100 100 100 100 100 100 100 100 100 100 100 100 100 100 100 100 100 100 100 100 100 100 100 100 98 88 65 30 7 57 100 100 100 100 92 87 94 100 100 100 96 100 88 84
100 100 100 100 100 100 100 100 100 100 100 100 100 100 100 100 100 100 100 100 100 100 100 100 100 93 40 67 88 82 100 100 100 98 97 90 100 100 100 74 98 78 66 76
100 100 100 100 100 100 100 100 100 100 100 100 100 100 100 100 100 100 100 100 100 100 100 97 25 29 40 10 14 80 100 60 40 26 70 88 100 100 92 62 79 87 90 100
100 100 100 100 100 100 100 100 100 100 100 100 100 100 100 100 100 100 100 100 92 65 61 57 11 31 5 34 67 96 81 62 57 53 99 100 99 100 100 100 96 75 39 81

GFSNGP_prec_cloud_081.txt.gz
Cloud_Cover
53 100 100 100 100 100 100 71 6 96 39 100 45 61 43 76 100 100 100 100 75 5 5 5 4 0 0 0 0 1 2 1 32 70 86 100 99 100 100 100 100 100 100 100
100 85 35 59 100 100 98 87 5 65 43 100 100 90 7 97 98 100 100 100 100 100 8 4 13 59 8 36 77 14 98 100 100 100 100 100 100 100 100 100 100 100 100 100
5 4 78 99 48 94 44 6 29 29 92 100 100 100 100 99 76 98 100 100 100 100 6 5 13 90 100 97 99 100 100 100 100 100 100 100 100 100 100 100 100 100 100 100
80 82 92 0 0 12 35 84 100 98 96 98 100 100 100 100 100 100 100 98 58 98 45 91 71 93 100 100 100 100 100 100 100 100 100 100 100 100 100 100 100 100 100 100
100 45 7 0 0 92 44 1 86 98 88 100 100 100 100 100 100 100 100 100 49 10 43 100 97 100 100 100 100 100 100 100 100 100 100 100 100 100 100 100 100 100 100 100
100 97 40 1 0 89 100 42 100 100 100 100 100 100 100 100 100 100 86 74 100 91 100 100 100 100 100 100 100 100 100 100 100 100 100 100 100 100 100 100 100 100 100 100
100 100 90 100 5 31 100 24 100 100 100 100 73 100 100 100 100 100 100 89 100 100 100 100 100 100 100 100 100 100 100 100 100 100 100 100 100 100 100 100 100 100 100 100
100 100 93 78 100 80 55 100 100 100 100 100 100 100 100 100 100 100 100 100 100 100 100 100 100 75 100 100 100 100 100 100 100 100 100 100 100 100 100 100 100 100 100 100
100 100 100 100 100 100 100 100 100 100 100 100 100 100 100 96 100 100 100 100 100 100 100 100 100 54 19 84 99 100 100 100 100 100 100 100 100 100 100 100 100 100 100 100
100 100 100 100 100 75 100 100 100 100 100 100 100 100 100 100 100 100 100 100 100 100 100 100 100 86 85 26 56 92 100 100 100 100 100 100 100 100 100 100 100 100 100 100
100 100 100 100 98 100 100 100 100 100 100 100 100 100 100 100 100 98 100 100 100 100 100 100 99 83 97 99 100 95 100 100 100 100 100 100 100 100 100 100 100 100 100 100
100 100 72 100 85 100 100 100 100 100 100 100 100 100 100 100 100 100 100 100 100 100 100 100 100 100 97 100 100 100 100 100 100 100 100 100 100 100 100 100 100 100 100 100
100 100 27 96 100 100 99 100 100 100 100 100 100 100 100 100 100 100 100 100 100 100 100 100 100 100 100 100 100 100 100 100 100 100 100 100 100 100 100 100 100 100 100 100
21 93 100 97 77 100 100 100 100 100 100 100 100 100 100 100 100 100 100 100 100 100 100 100 100 100 100 100 100 100 100 100 100 100 100 100 100 100 100 100 100 100 100 100
100 100 10 15 67 100 100 100 100 100 100 100 100 100 100 100 100 100 100 100 100 100 100 100 100 100 100 100 100 100 99 98 99 100 97 96 100 100 88 94 98 96 99 100
78 85 39 100 95 100 100 100 100 100 100 100 100 100 100 100 100 100 100 100 100 100 100 100 100 100 100 100 98 92 89 84 76 74 72 100 73 70 81 89 94 96 96 100
86 83 85 74 100 100 100 100 100 100 100 100 100 100 100 100 100 100 100 100 100 100 100 100 100 100 100 100 100 92 97 76 66 66 73 76 78 68 60 55 82 89 99 96
100 76 21 54 94 75 100 100 100 100 100 100 100 100 100 100 100 100 100 100 100 100 100 100 100 100 100 100 100 96 73 78 78 96 79 82 98 100 93 93 97 97 90 89
96 83 49 21 35 82 100 100 100 100 100 100 100 100 100 100 100 100 100 100 100 100 100 100 100 100 100 100 100 99 95 87 87 91 78 54 76 85 98 96 89 80 74 71
100 100 100 100 100 100 100 99 100 100 100 100 100 100 100 100 100 100 100 100 100 100 100 100 100 100 100 100 100 100 100 88 59 52 48 59 99 100 98 54 54 80 84 87
100 100 100 100 100 100 100 96 98 100 100 100 100 100 100 100 100 100 100 100 100 100 100 100 100 100 100 93 100 77 60 65 64 97 100 100 100 69 96 100 72 100 88 86
100 100 100 100 100 100 100 100 100 100 100 100 100 100 100 100 100 100 100 100 100 100 99 98 100 100 100 86 87 75 61 100 100 98 86 94 100 100 100 100 100 100 97 71
100 100 100 100 100 100 100 100 100 100 100 100 100 100 100 100 100 100 100 100 100 92 85 100 99 94 100 86 92 100 100 95 100 100 100 100 100 100 100 100 100 100 100 82
100 100 100 100 100 100 100 100 100 100 100 100 100 100 100 100 100 100 100 100 100 100 100 100 100 100 100 100 100 100 100 100 100 100 69 92 100 100 100 100 81 60 68 94
100 100 100 100 100 100 100 100 100 100 100 100 100 100 100 100 100 100 100 100 100 100 100 100 100 100 100 99 100 100 100 100 96 95 100 100 100 100 100 98 100 96 100 100
100 100 100 100 100 100 100 100 100 100 100 100 100 100 100 100 100 100 100 100 100 100 100 100 100 100 100 100 100 100 99 55 63 89 100 100 100 100 100 89 100 75 95 79
100 100 100 100 100 100 100 100 100 100 100 100 100 100 100 100 100 100 100 100 100 100 100 99 99 100 100 100 100 100 89 82 100 100 100 100 100 100 100 100 100 81 43 29

GFSNGP_prec_cloud_084.txt.gz
Cloud_Cover
65 76 100 100 100 100 100 100 100 100 100 100 100 100 100 100 100 100 96 100 100 86 100 98 5 4 0 0 4 0 0 0 0 0 2 3 33 12 37 50 54 93 100 100
5 99 100 100 100 100 100 100 100 100 100 100 100 100 96 100 100 100 100 100 100 100 100 100 100 77 100 5 5 19 4 0 77 100 100 100 100 100 100 100 100 100 100 100
4 31 33 100 100 100 100 100 100 100 100 100 100 100 66 22 98 100 100 100 100 100 100 100 100 100 89 100 82 96 99 94 100 100 100 100 100 100 100 100 100 100 100 100
38 100 100 2 32 99 99 100 46 7 96 100 100 100 87 39 34 67 100 100 100 100 100 75 100 100 100 100 97 100 100 100 100 100 100 100 100 100 100 100 100 100 100 100
96 100 100 16 40 29 36 17 63 89 100 98 100 100 97 100 100 100 100 100 100 100 100 100 100 100 99 100 100 100 100 100 100 100 100 100 100 100 100 100 100 100 100 100
100 100 100 48 100 99 100 1 0 8 36 87 99 99 100 98 100 100 100 100 100 100 100 100 100 100 100 100 100 100 100 100 100 100 100 100 100 100 100 100 100 100 100 100
100 100 100 99 100 100 75 5 36 100 6 5 66 55 74 100 100 94 100 100 100 100 100 100 100 100 100 100 100 100 100 100 100 100 100 100 100 100 100 100 100 100 100 100
100 100 100 100 100 100 100 27 5 50 5 5 26 100 100 100 100 100 100 100 100 100 100 100 100 100 100 100 100 100 100 100 100 100 100 100 100 100 100 100 100 100 100 100
100 100 100 100 100 100 100 100 42 3 11 5 57 100 100 100 100 100 100 100 100 100 100 100 100 100 100 100 88 86 100 98 100 100 100 100 100 100 100 100 100 100 100 100
100 100 100 100 100 100 64 94 93 99 60 100 100 100 100 100 100 100 100 100 100 100 100 100 100 100 82 49 16 37 31 58 99 100 100 100 100 100 100 100 100 100 100 100
100 100 100 100 100 100 53 79 80 97 99 100 100 100 100 100 100 100 100 100 100 100 100 100 64 87 76 90 63 65 100 100 100 100 100 100 100 100 100 100 100 100 100 100
100 100 100 100 100 100 100 52 95 84 100 100 100 100 100 100 100 100 100 100 100 100 100 100 100 90 94 100 100 99 100 100 100 100 100 100 100 100 100 100 100 99 100 100
100 100 100 100 100 39 28 100 100 98 100 100 100 100 100 100 100 100 100 100 100 100 100 100 100 100 100 100 100 100 100 100 100 100 100 100 100 100 99 100 100 100 100 100
100 100 100 100 100 85 15 100 99 100 100 100 100 100 100 100 100 100 100 100 100 100 100 100 100 100 100 100 100 100 100 100 100 100 96 100 100 100 100 100 100 100 100 100
100 100 100 100 100 100 94 56 100 100 100 100 100 100 100 100 100 100 100 100 100 100 100 100 100 100 100 100 100 100 100 100 100 100 100 100 100 100 100 100 100 100 85 88
11 100 100 100 100 100 100 100 100 100 100 100 100 100 100 100 100 100 100 100 100 100 100 100 100 100 100 100 100 100 99 100 100 90 96 91 65 72 100 100 81 89 98 100
5 13 100 100 100 100 98 86 100 100 100 100 100 100 100 100 100 100 100 100 100 100 100 100 100 100 100 100 100 100 100 100 80 94 97 100 100 100 100 99 100 100 100 80
17 84 100 100 100 100 100 100 100 100 94 100 100 100 100 100 100 100 100 100 100 100 100 100 100 100 100 100 100 100 90 92 99 100 75 99 100 81 84 94 97 96 97 79
94 30 37 52 76 100 99 92 99 98 99 100 100 100 100 100 100 100 100 100 100 100 100 100 100 100 100 100 100 100 99 83 71 70 42 23 16 41 42 54 76 96 95 98
100 100 96 99 91 97 100 100 100 100 100 100 100 100 100 100 100 100 100 100 100 100 100 100 100 100 100 100 100 100 99 79 40 50 7 10 12 49 36 49 67 93 86 84
100 100 100 100 100 100 100 100 100 100 100 100 100 100 100 100 100 100 100 100 100 100 100 100 100 100 100 99 76 66 77 90 76 75 28 55 89 97 100 100 100 100 99 88
100 100 100 100 100 100 100 100 100 100 100 100 100 100 100 100 100 100 100 100 100 100 100 100 100 100 91 93 100 99 91 94 41 35 73 69 100 100 100 100 100 100 100 98
100 100 100 100 100 100 100 100 100 100 100 100 100 100 100 100 100 100 100 100 100 100 100 100 100 100 100 100 86 87 48 68 88 90 100 100 100 100 100 100 80 100 100 97
100 100 100 100 100 100 100 100 100 100 100 100 100 100 100 100 100 100 100 100 100 100 100 100 100 100 100 83 70 87 100 94 99 97 100 100 100 100 100 100 92 78 63 90
100 100 100 100 100 100 100 100 100 100 100 100 100 100 100 100 100 100 100 100 100 100 100 100 99 82 78 80 90 100 100 92 98 100 100 100 100 100 100 100 100 96 68 78
100 100 100 100 100 100 100 100 100 100 100 100 100 100 100 100 100 100 100 100 100 100 97 91 96 100 100 100 100 100 93 86 98 97 100 100 100 100 100 68 72 62 80 54
100 100 100 100 100 100 100 100 100 100 100 100 100 100 100 100 100 100 100 100 100 100 99 100 100 100 100 100 100 100 99 100 100 100 100 100 100 100 100 100 100 68 44 54

GFSNGP_prec_cloud_087.txt.gz
Cloud_Cover
100 100 100 100 100 99 5 4 6 99 100 100 100 100 74 100 100 100 100 100 100 100 100 87 82 32 100 91 7 3 2 4 1 0 0 0 1 4 1 70 19 17 72 85
93 100 100 100 100 100 98 98 4 61 23 100 100 100 100 100 100 100 100 100 100 100 100 100 86 92 100 100 100 91 6 8 5 4 0 0 0 0 19 60 91 80 100 100
13 7 13 31 97 99 87 98 64 3 93 100 100 100 100 97 97 96 100 100 100 100 100 100 100 99 100 100 100 100 98 5 15 34 36 79 97 100 100 100 100 100 100 100
21 5 52 0 2 6 40 5 0 82 100 100 100 100 100 100 100 100 100 100 100 100 100 100 100 100 100 100 100 100 100 99 100 100 100 100 100 100 100 100 100 100 100 100
19 5 0 0 0 86 24 69 4 0 14 100 100 100 100 100 100 100 100 100 100 100 98 100 100 100 96 100 100 100 100 100 100 100 100 100 100 100 100 100 100 100 100 100
35 68 67 0 100 100 82 4 11 8 5 3 93 100 100 100 100 100 100 95 59 100 100 100 100 100 100 100 100 100 100 100 100 100 100 100 100 100 100 100 100 100 100 100
100 100 13 3 100 100 100 5 98 28 29 9 1 1 56 90 100 100 100 95 99 100 98 100 100 100 100 100 100 100 100 100 100 100 100 100 100 100 100 100 100 100 100 100
100 100 77 85 100 100 100 96 100 100 100 90 57 41 0 19 100 100 100 100 100 100 100 100 100 100 100 100 100 100 100 100 100 100 100 100 100 100 100 100 100 100 100 100
9 53 100 100 100 100 100 100 100 100 100 100 18 99 81 100 100 100 100 100 100 100 100 100 100 100 100 100 100 100 100 100 100 100 100 100 100 100 100 100 100 100 100 100
0 4 100 100 100 100 100 100 100 100 98 100 55 5 99 100 100 100 100 100 100 100 100 100 100 100 100 100 100 90 100 100 100 100 100 100 100 100 100 100 100 100 100 100
6 36 100 100 100 100 100 100 100 100 99 71 100 67 98 100 100 100 100 100 100 100 100 100 100 100 100 100 100 100 100 100 100 100 100 100 100 100 100 100 100 100 100 100
48 45 100 100 100 100 100 100 100 99 62 100 100 100 100 100 100 100 100 100 100 100 100 100 100 100 100 100 100 100 100 100 100 100 100 100 100 100 100 100 100 100 100 100
10 32 83 100 100 100 100 100 100 58 6 64 100 100 100 100 100 100 100 100 100 100 100 100 100 100 100 100 100 100 100 100 100 100 100 100 100 100 100 100 98 100 100 94
11 100 100 100 100 100 100 100 100 100 76 98 100 100 100 100 100 100 100 100 100 100 100 100 100 100 100 100 100 100 100 100 100 100 100 100 100 98 100 100 99 99 100 100
5 97 100 100 100 100 100 100 100 99 88 80 100 100 100 100 100 100 100 100 100 100 100 100 100 100 100 100 100 100 100 100 100 100 100 98 98 98 98 98 100 100 100 100
5 38 100 100 100 100 100 100 99 98 99 94 100 100 100 100 100 100 100 100 100 100 100 100 100 100 100 100 100 100 100 100 100 98 63 58 100 100 100 100 100 100 100 100
15 5 40 100 100 100 100 100 100 100 100 87 100 100 100 100 100 100 100 100 100 100 100 100 100 100 100 100 100 100 100 100 100 100 100 100 98 100 100 100 100 100 100 96
100 100 50 67 100 100 100 100 100 100 100 100 100 100 100 100 100 100 100 100 100 100 100 100 100 100 100 100 100 100 100 100 100 100 100 100 100 100 98 81 86 100 100 93
96 100 95 49 54 100 100 100 100 100 100 100 100 100 100 100 100 100 100 100 100 100 100 100 100 100 100 100 100 100 100 100 100 100 100 100 58 61 60 81 82 88 99 100
100 100 100 100 100 95 100 100 100 100 100 100 100 100 100 100 100 100 100 100 100 100 100 100 100 100 100 99 100 100 100 100 100 100 100 98 92 86 100 53 53 78 92 97
100 100 100 100 100 100 100 100 100 100 100 100 100 100 100 100 100 100 100 100 100 100 100 100 100 100 100 100 100 100 100 100 100 100 100 100 100 82 66 76 66 62 54 28
100 100 100 100 100 100 100 100 100 100 100 100 100 100 100 100 100 100 100 100 97 100 100 100 100 100 100 100 100 100 100 100 100 100 100 69 72 37 37 27 53 73 63 67
100 100 100 100 100 100 100 100 100 100 100 100 100 100 100 100 100 100 100 99 86 100 100 100 100 100 98 100 100 100 98 100 98 75 90 84 57 43 64 61 65 62 67 76
100 100 100 100 100 100 100 100 100 100 100 100 100 100 100 100 100 100 100 100 100 100 100 100 100 100 100 100 100 100 100 100 99 75 56 57 85 84 69 59 48 62 76 83
100 100 100 100 100 100 100 100 100 100 100 100 100 100 100 100 100 100 100 100 100 100 100 100 100 100 100 98 100 100 99 85 85 95 85 78 79 70 60 62 71 86 98 99
100 100 100 100 100 100 100 100 100 100 100 100 100 100 100 100 100 100 100 100 100 100 100 100 100 100 100 100 100 100 92 100 97 85 71 70 22 9 57 75 93 99 100 100
100 100 100 100 100 100 100 100 100 100 100 100 100 100 100 100 100 100 100 100 100 100 100 100 100 100 100 100 100 100 98 93 63 78 60 7 34 69 87 100 100 100 100 100

GFSNGP_prec_cloud_090.txt.gz
Cloud_Cover
100 100 100 100 100 100 100 66 11 82 26 99 100 100 100 100 100 100 100 100 100 100 59 12 72 100 100 66 27 100 100 65 2 42 5 5 5 5 5 15 62 38 69 39
100 100 100 100 100 100 74 34 5 5 5 65 25 100 100 100 99 98 100 100 100 100 76 14 6 15 100 100 100 100 100 100 100 62 5 5 5 0 0 0 2 4 15 37
100 100 100 100 100 100 100 100 83 6 8 96 40 60 100 100 100 97 94 100 100 100 100 100 89 89 58 98 96 100 100 100 100 100 100 48 7 19 35 72 85 97 100 100
80 100 100 91 100 100 100 100 100 100 62 5 8 5 83 100 100 100 77 84 98 100 100 96 88 84 92 99 55 69 100 100 100 100 100 100 76 93 100 100 100 100 100 100
88 9 18 84 44 42 100 100 100 84 100 100 69 2 8 100 100 100 100 12 82 100 100 95 96 99 99 97 100 100 14 71 100 100 100 100 100 100 100 100 100 100 100 100
100 87 4 72 5 5 5 5 74 62 70 14 98 99 100 6 100 100 100 58 6 95 100 100 100 100 100 99 100 100 100 100 100 100 100 100 100 100 100 100 100 100 100 100
99 100 36 5 0 0 18 59 72 10 71 48 82 100 27 100 100 100 100 100 99 66 31 100 100 100 100 100 100 100 100 100 100 100 100 100 100 100 100 100 100 100 100 100
98 100 75 8 32 24 91 99 73 100 19 97 96 79 8 9 77 100 100 100 100 100 100 100 100 100 100 100 100 100 100 100 100 100 100 100 100 100 100 100 100 100 100 100
69 72 6 4 83 100 97 100 85 100 99 98 100 100 13 100 100 100 100 100 100 100 100 100 100 100 100 100 100 100 100 100 100 100 100 100 100 100 100 100 100 100 100 100
60 49 5 5 9 100 61 82 100 100 100 100 100 100 48 100 100 100 100 100 100 100 100 100 100 100 100 100 100 100 100 100 100 100 100 100 100 100 100 100 100 100 100 100
96 5 19 4 5 0 19 100 100 100 100 100 100 88 87 100 100 100 100 100 100 100 100 100 100 100 100 100 100 100 100 100 100 100 100 100 100 100 100 100 100 100 100 100
44 25 32 1 5 3 100 98 100 100 100 100 100 84 43 100 100 100 100 100 100 100 100 100 100 100 82 100 100 100 100 100 100 100 100 100 100 100 100 100 100 100 100 98
5 5 4 2 72 98 100 100 100 100 100 100 97 100 100 100 100 100 100 100 100 100 100 100 100 100 100 100 100 100 100 100 100 100 100 100 100 100 100 100 100 100 100 100
56 5 4 5 30 100 100 100 100 100 100 100 100 100 100 100 100 100 100 100 100 100 100 100 100 100 100 100 100 100 100 100 100 100 100 100 100 100 100 100 100 100 100 100
5 5 6 5 5 100 100 100 100 100 100 100 100 100 100 100 100 100 100 100 100 100 100 100 100 100 100 100 100 100 100 100 100 100 100 100 100 100 100 100 100 100 100 100
5 5 5 4 5 17 100 100 100 100 100 100 100 100 100 100 100 100 100 100 100 100 100 100 100 100 100 100 100 100 100 100 100 100 100 100 100 100 100 100 100 100 100 100
23 5 6 5 8 18 78 100 100 100 100 100 100 100 100 100 100 100 100 100 100 100 100 100 100 100 100 100 100 100 100 100 100 100 100 100 100 100 100 100 100 100 100 100
70 56 62 99 99 76 45 97 100 100 100 100 100 100 100 100 100 100 100 100 100 100 100 100 100 100 100 100 100 100 100 100 100 100 91 85 72 46 62 75 100 90 100 100
93 97 97 92 100 100 100 100 98 100 100 100 100 100 100 100 100 100 100 100 100 100 100 100 100 100 100 100 100 100 100 100 100 100 100 100 100 100 94 92 96 100 100 100
97 96 100 100 100 100 100 100 100 100 100 100 100 100 100 100 100 100 100 100 100 100 100 100 94 100 100 100 100 100 100 100 100 100 100 100 100 99 100 43 83 100 100 100
100 99 97 100 100 100 100 100 100 100 100 100 100 100 100 100 100 100 100 100 100 100 95 96 95 100 100 100 100 98 100 100 88 93 100 100 100 100 100 100 100 100 100 100
96 100 100 100 100 100 100 100 100 100 100 100 100 100 100 100 100 100 100 100 99 95 99 97 100 100 100 100 100 100 100 100 100 100 100 95 98 100 100 100 100 100 100 100
100 100 100 100 100 100 100 100 100 100 100 100 100 100 100 100 100 100 100 100 100 100 100 100 95 100 100 100 100 100 100 91 99 91 96 99 100 100 100 97 100 100 100 100
100 100 100 100 100 100 100 100 100 100 100 100 100 100 100 100 100 100 100 100 100 100 100 98 94 84 87 98 94 100 96 86 94 93 97 96 100 100 100 100 100 100 100 98
100 100 100 100 100 100 100 100 100 100 100 100 100 100 100 100 100 100 100 100 100 85 99 97 100 100 99 100 99 100 100 100 100 100 100 100 100 100 100 100 100 100 100 100
100 100 100 100 100 100 100 100 100 100 100 100 100 100 100 100 100 100 100 100 100 100 100 100 100 96 88 89 100 100 98 83 97 86 93 100 100 100 100 100 100 100 100 100
100 100 100 100 100 100 100 100 100 100 100 100 100 100 100 100 100 100 100 100 100 100 100 100 100 100 99 100 100 100 100 100 96 99 100 100 100 100 100 100 100 100 100 100

GFSNGP_prec_cloud_096.txt.gz
Cloud_Cover
100 97 100 100 100 100 100 100 100 100 100 100 100 89 100 100 100 100 100 100 100 99 94 91 21 5 6 63 59 100 100 100 33 22 2 38 99 81 52 55 23 5 87 100
100 100 100 100 100 100 100 100 100 100 100 100 100 100 100 100 100 100 100 100 98 100 100 99 100 100 48 86 100 100 100 100 100 43 6 5 5 84 100 100 100 100 100 100
100 100 52 100 100 100 100 100 100 100 100 100 100 100 100 100 100 100 100 100 100 69 96 99 98 49 92 100 100 100 100 100 100 26 5 5 5 45 88 91 99 98 100 100
100 100 75 100 100 100 100 100 89 100 100 100 92 44 100 100 100 100 100 100 90 57 57 100 94 56 35 6 5 71 100 100 100 100 59 14 5 61 82 78 85 100 100 100
100 100 100 100 100 90 100 100 100 98 93 94 100 100 100 100 100 100 100 100 100 100 96 80 94 44 6 74 53 8 45 72 100 100 100 100 100 100 100 100 100 100 100 100
100 100 100 100 100 96 100 81 100 100 100 88 100 100 100 100 100 100 100 100 100 100 100 100 96 17 6 5 5 5 12 100 100 100 100 98 100 100 100 100 100 100 100 100
100 100 100 100 100 100 100 52 98 100 100 100 100 100 100 100 100 100 100 100 100 100 100 78 54 16 29 23 56 96 93 79 72 83 100 100 100 100 100 100 100 100 100 100
100 100 100 100 68 97 69 65 87 98 100 94 63 100 100 100 100 100 100 100 100 100 100 69 96 100 100 100 100 97 100 100 100 100 100 100 100 100 100 100 100 100 100 100
100 100 100 100 98 26 20 100 97 67 47 5 8 10 5 24 99 100 100 100 100 100 100 100 81 72 94 100 100 100 100 100 100 100 100 100 100 100 100 100 100 100 100 100
100 100 100 100 100 99 80 77 10 43 12 3 2 4 5 97 18 70 82 99 100 100 100 100 100 100 100 100 100 100 100 100 100 100 100 100 100 100 100 100 100 100 100 100
100 100 92 74 56 51 19 75 17 5 4 0 1 39 33 14 97 100 100 100 100 100 100 100 100 100 100 100 100 100 100 100 100 100 100 100 100 100 100 100 100 100 100 100
100 100 46 100 94 100 67 76 6 0 0 0 1 3 36 97 99 98 100 100 100 100 100 100 100 100 100 100 100 100 100 100 100 100 100 100 100 100 100 100 100 100 100 100
99 100 99 99 100 42 47 90 5 1 0 0 56 73 100 99 100 100 100 100 100 100 100 100 100 100 100 100 100 100 100 100 100 100 100 100 100 100 100 100 100 100 100 100
100 71 53 32 4 0 19 49 2 0 0 31 99 100 100 100 100 100 100 100 100 100 100 100 100 100 100 100 100 100 100 100 100 100 100 100 100 100 100 100 100 100 100 100
5 66 85 5 30 66 91 37 5 5 1 90 100 100 100 100 100 100 100 100 100 100 100 100 100 100 100 100 100 100 100 100 100 100 100 100 100 100 100 100 100 100 100 100
100 100 99 18 5 5 4 5 15 33 70 100 100 100 100 100 100 100 100 100 100 100 100 100 100 100 100 100 100 100 100 100 100 100 100 100 100 100 100 100 100 100 100 100
100 100 100 71 38 37 20 27 13 98 87 23 85 100 100 100 100 100 100 100 100 100 100 100 100 100 100 100 100 100 100 100 100 100 100 100 100 100 100 100 100 100 100 100
100 100 100 100 100 93 91 77 71 100 100 100 100 100 100 100 100 100 100 100 100 100 100 100 100 100 100 100 100 100 100 100 100 100 100 100 100 100 100 100 100 100 100 100
70 91 100 100 100 100 100 100 100 100 100 100 100 100 100 100 100 100 100 100 100 100 100 100 100 100 100 100 100 100 100 100 100 100 100 100 100 100 100 100 100 100 100 100
100 100 100 100 100 91 100 100 100 100 100 100 100 100 100 100 100 100 100 100 100 100 100 100 100 100 100 100 100 100 100 100 100 100 100 100 100 100 100 100 100 100 100 100
100 100 100 100 100 99 97 90 98 100 100 100 100 100 100 100 100 100 100 100 100 100 100 100 100 100 100 100 100 100 100 100 100 100 100 100 100 100 100 100 100 100 99 98
100 97 99 99 98 100 97 100 100 99 100 100 100 100 100 100 100 100 100 100 100 100 100 100 100 100 100 100 100 100 100 100 100 100 100 100 100 100 100 100 100 96 77 81
100 96 100 100 100 100 99 89 98 98 100 100 100 100 100 100 100 100 100 100 100 100 100 100 100 100 100 100 100 100 100 100 100 100 100 100 100 100 84 98 81 80 85 66
100 100 100 100 100 88 83 100 96 100 100 100 100 100 100 100 100 100 100 100 100 100 100 100 100 100 100 100 100 100 100 100 100 100 100 100 100 99 100 78 82 100 96 97
99 100 100 100 98 100 100 100 100 100 100 100 100 100 100 100 100 100 100 100 100 100 100 100 100 100 100 100 100 100 100 100 100 100 100 96 95 90 99 70 72 26 98 100
100 100 100 100 100 100 100 100 100 100 100 100 100 100 100 100 100 100 100 100 100 100 100 100 100 100 100 100 100 100 100 100 100 100 90 65 75 96 91 92 100 100 99 88
100 99 100 100 100 100 100 100 100 100 100 100 100 100 100 100 100 100 100 100 100 100 100 100 100 100 100 100 100 100 100 100 100 100 89 92 100 100 80 96 100 87 97 100

GFSNGP_prec_cloud_102.txt.gz
Cloud_Cover
100 100 100 100 100 100 100 100 60 100 100 100 100 100 100 100 100 100 100 89 77 76 100 100 100 100 100 100 99 57 100 43 42 77 100 100 100 18 4 0 0 0 3 4
99 86 100 100 100 100 100 100 100 100 100 100 100 100 100 99 99 100 100 100 84 11 99 100 100 100 100 100 100 100 95 91 100 65 24 100 100 99 22 7 0 0 24 53
100 93 95 100 100 100 100 100 100 100 100 100 100 100 100 100 100 100 100 100 100 98 100 100 100 100 100 100 100 100 100 100 95 5 17 18 95 100 74 51 24 40 33 100
100 67 80 100 100 100 100 100 87 100 100 100 100 100 100 100 85 100 100 100 100 100 100 100 100 100 100 100 100 100 100 100 100 19 95 100 97 62 68 52 33 62 100 100
100 51 98 100 100 100 100 100 100 100 100 100 100 100 100 100 100 98 100 100 100 100 97 100 94 97 95 42 100 100 100 100 100 99 28 100 100 100 100 100 100 100 100 100
5 5 78 100 50 98 100 100 100 100 100 100 100 100 97 100 100 100 100 99 100 95 23 56 15 69 23 98 100 100 100 96 100 100 100 100 100 100 100 100 100 100 100 100
9 28 23 100 96 100 100 100 100 100 100 100 100 100 100 100 100 100 100 100 100 100 100 100 79 46 96 100 100 100 100 100 100 100 100 100 100 100 100 100 100 100 100 100
47 5 55 97 100 100 90 92 100 100 100 100 100 100 100 100 100 100 100 100 100 100 91 77 94 100 100 100 100 100 100 100 100 100 100 100 100 100 100 100 100 100 100 100
62 93 100 72 100 100 100 32 53 100 100 100 100 100 100 100 100 100 100 100 100 100 100 100 100 100 100 100 100 100 100 100 100 100 100 100 100 100 100 100 100 100 100 100
92 100 12 75 100 100 100 100 86 79 100 100 100 100 100 100 100 100 100 100 100 100 100 100 92 100 100 100 100 100 100 100 100 100 100 100 100 100 100 100 100 100 100 100
100 100 100 80 100 100 100 100 100 100 100 100 97 100 100 100 100 100 100 100 100 100 100 100 100 100 100 100 100 100 100 100 100 100 100 100 100 100 100 100 100 100 100 100
100 100 100 100 100 100 100 100 100 100 38 98 100 94 71 87 100 99 100 100 100 100 100 100 100 100 100 100 100 100 100 100 100 100 100 100 100 100 100 100 100 100 100 100
100 100 100 100 100 100 100 100 100 100 100 78 48 79 59 94 64 91 99 84 76 99 100 98 99 92 100 100 100 100 100 100 100 100 100 100 100 100 100 100 100 100 100 100
100 100 100 100 100 100 100 79 26 40 67 21 19 31 5 18 29 63 75 80 100 48 79 48 76 100 91 100 100 100 100 100 100 100 100 100 100 100 100 100 100 100 100 100
100 100 100 100 99 89 100 100 98 65 7 8 16 5 10 31 54 87 100 100 100 90 78 72 100 100 92 100 100 100 100 100 100 100 100 100 100 100 100 100 100 100 100 100
100 100 100 27 84 49 11 84 78 21 5 5 5 23 30 99 100 100 100 100 100 100 92 96 100 100 89 100 100 100 100 100 100 100 100 100 100 100 100 100 100 100 100 100
100 98 77 93 100 100 100 100 92 98 26 45 96 100 100 100 100 100 100 100 100 100 100 93 100 100 100 100 100 100 100 100 100 100 100 100 100 100 100 100 100 100 100 100
37 94 86 92 87 100 83 98 100 100 98 100 99 81 94 100 100 100 100 100 100 100 93 100 100 100 100 100 100 100 100 100 100 100 100 100 100 100 100 100 100 100 100 100
75 92 92 96 86 100 91 89 100 100 100 100 100 93 86 90 100 100 100 100 100 100 100 100 100 100 100 100 100 100 100 100 100 100 100 100 100 100 100 100 100 100 100 100
49 93 100 100 73 96 86 84 98 99 100 100 100 100 96 99 100 100 100 100 100 100 100 100 100 100 100 100 100 100 100 100 100 100 100 100 100 100 100 100 100 100 100 100
100 100 100 100 100 100 100 100 100 100 100 100 100 99 100 100 100 100 99 100 100 100 100 100 100 100 100 100 100 100 100 100 100 100 100 100 100 100 100 100 100 100 100 100
100 100 100 100 100 100 100 100 100 100 90 97 100 100 100 100 100 99 100 100 100 100 100 100 100 100 100 100 100 100 100 100 100 100 100 100 100 100 100 100 100 100 100 100
100 100 100 100 100 100 100 100 100 96 100 100 100 100 100 100 100 100 97 100 100 100 100 100 100 100 100 100 99 100 100 100 100 100 100 100 100 100 100 100 97 100 97 78
92 98 100 80 78 70 70 99 91 98 100 100 100 100 100 100 100 100 100 100 100 100 100 100 100 100 100 100 100 100 100 100 100 100 100 100 100 100 100 100 100 99 87 96
56 58 55 76 74 95 73 84 82 96 100 100 100 100 100 100 100 100 100 100 100 100 100 100 100 100 100 100 100 100 100 100 100 100 100 100 100 100 100 100 100 100 100 100
100 97 82 48 88 78 83 83 91 99 100 100 100 100 100 100 100 100 100 100 100 100 100 100 100 100 100 100 100 100 100 100 100 100 100 100 100 100 100 100 100 100 100 100
82 80 78 88 81 94 81 92 97 100 100 100 100 100 100 100 100 100 100 100 100 100 100 100 100 100 100 100 100 100 100 100 100 100 100 100 100 100 100 100 94 96 91 99

GFSNGP_prec_cloud_105.txt.gz
Cloud_Cover
93 99 100 100 30 90 79 8 6 71 11 32 88 100 11 100 100 100 100 100 100 66 68 100 100 100 100 100 100 100 100 100 96 99 67 76 100 69 27 14 2 35 33 2
100 100 100 99 100 75 6 28 72 50 92 100 99 100 100 100 100 100 100 100 100 100 88 100 100 100 100 100 100 100 100 100 100 100 100 91 93 95 62 36 22 5 2 0
100 100 100 100 100 100 100 100 100 100 100 100 100 100 100 100 100 100 100 100 100 100 100 100 100 100 100 100 100 100 100 100 100 100 100 100 100 100 100 88 27 42 5 2
100 100 100 100 100 100 100 100 100 100 100 100 100 100 100 100 100 100 100 100 100 100 100 100 100 100 100 100 100 100 100 100 100 100 100 100 100 100 100 100 94 48 58 33
100 100 100 70 100 100 100 100 100 100 100 100 100 100 100 100 100 100 100 100 100 100 100 100 100 100 100 75 100 100 100 100 100 100 100 100 100 100 100 100 100 100 100 100
100 99 100 42 74 84 100 100 100 100 100 100 100 100 100 100 100 100 100 100 100 100 100 100 96 100 100 100 100 100 100 100 100 100 100 100 100 100 100 100 100 100 100 100
100 91 12 9 75 94 100 100 100 100 100 100 100 100 100 100 100 100 90 100 100 100 100 100 100 100 100 100 100 100 100 100 100 100 100 100 100 100 100 100 100 100 100 100
74 72 27 100 97 100 99 100 100 100 100 100 100 100 100 100 100 100 100 100 100 100 100 100 100 100 100 100 100 100 100 100 100 100 100 100 100 100 100 100 100 100 100 100
34 8 22 100 63 100 100 100 100 100 100 100 100 100 100 100 100 100 100 100 100 98 100 100 100 100 100 100 100 100 100 100 100 100 100 100 100 100 100 100 100 100 100 100
72 0 2 4 14 100 100 100 100 100 100 100 100 100 99 100 100 100 100 100 100 100 99 100 100 100 100 100 100 100 100 100 100 100 100 100 100 100 100 100 100 100 100 100
26 57 7 5 91 100 100 100 100 100 100 67 28 32 89 100 100 100 100 100 100 100 100 100 100 99 100 100 100 100 100 100 100 100 100 100 100 100 100 100 100 100 100 100
100 100 100 91 100 100 100 100 100 100 100 100 98 91 100 100 99 79 91 100 100 100 100 100 100 100 100 100 100 100 100 100 100 100 100 100 100 100 100 100 100 100 100 100
100 100 100 100 100 100 100 100 100 100 100 100 100 100 100 100 100 100 98 95 74 100 96 100 100 100 100 97 100 100 100 100 100 100 100 100 100 100 100 100 100 100 100 100
100 100 100 100 100 100 100 100 100 100 100 100 100 100 100 100 94 100 100 100 99 83 90 100 100 100 94 96 97 98 100 100 100 100 100 100 100 100 100 100 100 100 100 100
100 100 100 100 100 100 96 100 81 90 100 100 100 100 100 100 100 99 96 90 22 29 81 67 97 100 77 50 80 82 100 100 100 100 100 100 100 100 100 100 100 100 100 100
100 100 100 100 100 100 80 71 100 96 100 100 100 100 100 83 95 100 100 70 75 99 100 96 98 100 90 64 100 94 94 100 100 100 100 100 100 100 100 100 100 100 100 100
100 69 72 100 88 100 100 100 100 100 100 85 99 96 82 83 99 100 100 100 98 100 100 100 100 99 84 76 87 100 100 100 100 100 100 100 100 100 100 100 100 100 100 100
98 99 100 100 100 100 93 84 100 100 100 100 100 100 85 84 100 100 100 79 98 81 90 100 98 86 79 87 98 100 100 100 100 100 100 100 100 100 100 100 100 100 100 100
80 79 91 99 100 100 100 98 91 100 100 100 100 100 100 92 99 99 89 66 75 71 100 98 96 84 91 99 100 100 100 100 100 100 100 100 100 100 100 100 100 100 100 100
25 11 78 82 57 100 94 100 90 89 93 100 100 100 100 89 84 80 88 100 100 100 91 96 93 99 100 100 98 100 100 100 100 100 100 100 100 100 100 100 100 100 100 100
90 56 53 76 88 93 93 94 84 86 96 88 87 97 100 100 100 90 75 62 100 94 93 88 90 100 100 100 100 100 99 100 100 100 100 100 100 100 100 100 100 100 100 100
100 100 100 100 100 100 100 94 78 70 68 80 97 100 100 99 99 95 96 84 100 91 98 100 100 97 100 100 100 100 100 100 97 100 100 100 100 100 100 100 100 100 100 100
100 100 100 100 100 100 100 100 100 100 100 100 100 100 98 100 99 94 96 98 100 94 100 100 100 100 100 99 98 100 100 100 100 100 99 100 100 100 100 100 100 100 100 100
100 79 100 100 100 100 100 100 94 87 82 85 87 95 100 100 100 100 100 100 98 98 100 100 100 100 100 100 100 100 100 100 100 100 100 100 100 100 100 100 100 100 100 100
73 62 25 5 37 99 86 77 68 80 70 80 84 97 99 100 100 100 100 100 100 99 97 100 100 100 100 100 100 100 100 100 100 100 100 100 100 100 100 100 100 100 100 100
87 88 80 49 82 82 81 39 88 83 67 90 96 100 100 100 100 100 100 100 100 100 100 99 91 98 98 100 100 100 100 100 100 100 100 100 100 100 100 100 100 100 100 100
68 74 67 92 95 80 78 65 64 88 54 69 92 96 97 100 100 100 100 100 100 100 100 100 99 97 100 100 100 100 100 100 100 100 100 100 100 100 100 100 100 100 100 100

GFSNGP_prec_cloud_111.txt.gz
Cloud_Cover
100 93 68 97 100 100 100 47 0 0 0 0 4 5 6 32 6 5 62 5 42 93 100 100 100 100 100 100 100 100 100 100 100 100 100 100 100 100 100 100 93 99 100 100
100 100 99 99 100 100 100 100 99 0 0 0 0 0 12 5 5 15 54 56 100 94 100 100 100 100 100 100 100 100 100 100 100 100 100 100 100 100 100 100 100 100 100 100
100 99 100 100 100 100 100 100 61 78 2 85 99 87 71 11 26 43 90 100 95 100 100 100 100 100 100 100 100 100 100 100 100 100 100 100 100 100 100 100 100 100 100 100
100 100 100 100 97 100 73 100 93 89 55 56 80 96 69 50 40 84 100 55 42 78 100 100 100 100 100 100 100 100 100 100 100 100 100 100 100 100 100 97 100 100 100 100
100 100 100 100 100 100 100 100 100 100 60 83 33 64 93 100 100 99 100 95 53 100 100 100 100 100 100 100 100 100 89 100 100 100 100 100 100 100 100 100 100 100 100 100
100 100 100 100 100 100 100 100 100 100 100 88 100 100 100 100 74 36 94 92 100 100 100 100 100 100 100 100 100 100 100 100 100 100 100 100 100 100 100 98 100 100 100 100
100 100 76 100 100 100 100 100 100 100 100 100 100 100 100 96 76 30 69 73 100 100 100 100 100 100 100 100 100 100 100 100 100 100 100 100 100 100 100 100 100 100 100 100
100 100 93 65 100 100 100 100 100 100 100 100 100 100 100 81 89 94 98 69 100 88 100 100 100 100 100 100 100 100 100 100 100 100 100 100 100 100 100 100 100 100 100 100
100 100 100 66 100 100 100 100 100 100 100 100 100 100 100 98 100 100 99 100 100 100 100 100 100 100 100 100 100 100 100 100 100 100 100 100 100 100 100 100 100 100 100 100
100 98 100 100 97 100 100 100 100 100 100 100 100 100 88 100 100 100 100 100 100 100 100 100 100 100 100 100 100 100 100 100 100 100 100 100 100 100 100 100 100 100 100 100
88 79 100 100 100 100 100 100 100 100 100 100 100 81 100 100 100 100 100 100 100 100 100 100 100 100 100 100 100 100 100 100 100 100 100 100 100 100 100 100 100 100 100 100
100 100 100 100 100 100 100 100 100 100 100 100 100 100 100 100 100 100 100 100 100 100 100 100 100 100 100 100 95 100 100 100 100 100 100 100 100 100 100 100 100 100 100 100
100 100 100 100 100 100 100 100 100 100 100 100 100 100 100 100 100 100 100 100 100 100 100 100 100 100 100 100 100 100 100 100 100 100 100 100 100 100 100 100 100 100 100 100
100 100 100 100 100 100 100 100 100 100 100 97 100 98 67 89 100 100 100 100 100 97 100 100 100 100 100 99 85 86 100 100 100 100 100 100 100 100 100 100 100 100 100 100
100 100 100 100 100 100 100 100 100 100 100 100 100 75 94 86 92 100 100 100 100 100 100 95 96 100 100 100 100 100 100 100 100 100 100 98 100 100 100 100 100 100 100 100
100 100 100 100 100 100 100 100 100 100 100 100 100 100 99 97 97 99 97 64 100 100 100 100 100 100 100 100 100 100 100 99 99 96 100 100 100 100 100 100 100 100 100 100
100 100 100 100 100 100 100 100 100 100 100 100 100 100 100 100 81 89 96 100 94 100 98 96 100 99 100 100 100 100 100 100 100 100 98 100 100 100 100 100 100 100 100 100
100 100 100 100 100 100 100 100 100 100 100 100 100 100 100 100 100 100 100 69 29 72 100 100 100 98 98 99 98 100 100 100 99 100 100 100 100 100 100 100 100 100 100 100
100 100 100 100 100 100 100 100 100 100 100 100 100 100 100 100 100 100 90 82 75 84 100 100 100 99 100 100 100 100 100 100 100 100 100 100 100 100 100 100 100 100 100 100
100 100 100 100 100 100 100 100 100 100 100 100 100 100 100 100 100 99 100 100 100 100 100 100 100 100 100 100 100 100 100 100 100 100 100 100 100 100 100 97 100 100 100 100
100 100 100 100 100 100 100 100 80 100 100 100 100 100 100 100 98 96 100 100 100 100 100 100 100 100 100 100 100 100 100 100 100 100 100 100 96 84 90 100 100 100 96 100
100 100 100 100 100 100 100 100 88 81 92 92 99 98 97 100 96 100 100 100 100 99 99 100 100 99 100 100 100 100 100 100 100 100 100 97 99 100 86 82 92 96 100 100
100 100 100 100 99 100 100 100 94 75 80 82 83 98 100 100 100 100 100 100 100 100 100 100 100 100 100 100 100 100 100 100 100 100 100 100 100 99 97 100 100 100 100 100
71 65 64 53 53 65 93 100 99 99 88 100 99 98 100 100 100 100 100 100 100 100 100 100 100 100 100 100 100 100 100 100 100 100 100 100 100 100 98 85 93 99 99 98
99 97 98 95 98 100 100 100 98 100 94 100 100 100 100 100 100 100 100 100 100 100 100 100 100 100 100 100 100 100 100 100 100 100 100 100 100 100 100 100 99 95 97 98
99 99 100 97 100 100 100 95 100 100 100 100 100 100 100 100 100 100 100 100 100 100 100 100 100 100 100 100 100 100 100 100 100 100 100 100 100 100 98 97 97 100 100 100
100 83 98 100 100 100 91 76 91 100 90 100 100 100 100 100 98 98 95 100 100 100 100 100 100 100 100 100 100 100 100 100 100 100 100 100 100 100 100 100 100 100 100 99

GFSNGP_prec_cloud_114.txt.gz
Cloud_Cover
100 100 100 100 100 100 88 49 100 7 5 87 14 29 64 75 100 100 100 100 100 100 81 94 100 100 100 100 100 100 100 100 100 100 100 89 61 73 87 95 100 100 100 100
100 99 100 100 100 100 100 100 98 32 4 100 100 34 94 27 37 41 70 99 82 100 100 30 100 100 100 100 100 100 100 100 100 100 100 100 100 71 63 100 88 96 100 100
100 100 100 100 100 100 100 100 100 100 95 0 0 2 57 100 100 63 19 5 2 38 75 15 31 100 100 100 100 100 100 100 100 100 100 100 100 100 100 100 100 100 88 95
100 100 100 100 100 100 100 100 100 100 96 84 60 100 100 100 100 86 38 27 4 2 7 62 19 94 100 100 100 100 100 100 100 100 100 100 100 100 100 100 100 100 93 90
100 100 100 100 100 100 100 81 100 85 65 100 100 97 90 61 11 7 25 37 27 10 5 100 97 63 87 100 100 100 100 100 100 100 100 100 100 100 100 100 100 100 100 100
100 100 100 100 100 100 100 100 100 100 89 100 100 100 100 100 100 98 100 74 39 32 5 5 82 48 59 98 100 100 100 100 100 100 100 100 100 100 100 100 100 100 100 100
100 94 100 100 100 98 100 100 100 100 100 100 95 100 100 100 100 72 92 91 56 25 36 9 30 32 60 100 100 100 100 100 100 100 100 100 100 100 100 100 100 100 100 100
94 99 100 100 100 100 100 100 100 100 100 100 100 100 100 100 97 75 30 65 5 5 8 100 99 65 84 100 100 100 100 100 100 100 100 100 100 100 100 100 100 100 100 100
91 100 100 100 100 100 100 100 100 100 100 100 100 100 100 100 99 100 100 100 68 7 35 16 100 100 100 100 100 100 100 100 100 100 100 100 100 100 100 100 100 100 100 100
89 100 100 100 100 100 100 100 100 100 100 100 100 100 100 100 100 92 84 89 100 100 100 90 100 73 100 100 100 100 100 100 100 100 100 100 100 100 100 100 100 100 100 100
100 100 100 100 100 100 100 100 100 100 100 100 100 100 100 100 100 87 77 100 100 100 100 100 100 83 84 100 100 99 100 100 100 100 100 100 100 100 100 100 100 100 100 100
100 100 100 100 100 100 100 100 100 100 100 100 100 100 100 100 96 81 100 100 100 100 98 100 100 100 94 100 100 100 100 100 100 100 100 100 100 100 100 100 100 100 100 100
100 100 100 100 100 100 100 100 100 100 100 100 100 100 100 100 100 100 100 100 100 100 100 100 100 100 100 100 100 100 100 100 100 100 100 100 100 100 100 100 100 100 100 100
100 100 100 100 100 100 100 100 100 100 100 100 100 100 100 100 100 100 100 100 100 100 100 100 100 98 100 100 100 100 100 100 100 100 100 100 100 100 100 100 100 100 100 100
100 93 94 100 100 100 100 100 96 100 100 100 100 91 100 100 100 97 96 100 100 100 100 100 100 100 100 100 100 100 100 100 100 100 100 100 100 100 100 100 99 100 100 100
100 100 100 92 100 100 100 100 100 94 100 100 100 79 90 100 80 89 91 99 100 100 100 100 100 100 100 100 100 100 100 100 100 100 100 100 100 100 100 100 100 100 100 100
100 100 100 100 100 100 100 100 100 100 100 100 100 99 100 100 99 92 100 100 96 100 100 100 100 100 100 100 100 100 100 100 100 100 100 100 100 100 100 100 100 100 100 100
100 100 100 100 100 100 100 100 100 100 100 100 100 100 99 100 100 100 100 100 100 100 100 100 100 100 100 100 100 100 100 100 100 100 100 100 100 100 100 100 100 100 100 100
100 100 100 100 100 100 100 100 100 100 100 100 100 100 100 100 100 100 100 100 100 100 100 100 100 100 100 99 100 100 100 100 100 100 100 100 100 100 100 100 100 98 96 94
100 100 100 100 100 100 100 100 100 100 100 100 100 100 100 100 100 100 100 100 100 100 100 100 100 100 100 100 99 100 100 100 100 100 100 100 100 100 100 100 100 100 100 100
100 100 100 100 100 100 100 100 100 100 100 100 100 100 100 100 100 100 100 100 100 100 100 100 97 100 100 100 100 100 100 100 100 100 100 100 100 98 99 100 100 99 100 100
100 100 100 100 100 100 100 100 100 100 100 100 100 100 100 100 100 100 100 100 100 99 100 100 100 99 99 100 100 100 100 100 100 100 100 100 100 100 100 100 100 100 100 100
100 100 100 100 100 100 100 100 100 100 100 100 100 100 100 100 100 100 100 100 100 99 100 100 100 100 100 100 100 100 100 100 100 100 100 100 100 100 100 100 100 100 100 100
91 94 100 100 100 100 100 100 100 100 100 100 100 100 100 100 100 100 100 100 100 100 100 100 100 100 100 100 100 100 100 100 100 100 100 100 100 100 100 100 100 100 100 100
100 97 100 100 100 100 100 100 100 100 100 100 100 100 100 100 100 100 100 100 100 100 100 100 100 100 100 100 100 100 100 100 100 100 100 100 100 100 100 100 100 100 100 100
100 100 99 100 100 100 100 100 100 100 100 100 100 100 100 100 100 100 100 100 100 100 100 100 100 100 100 100 100 100 100 100 100 100 100 100 100 100 100 100 100 100 100 100
100 99 100 100 100 100 100 99 100 100 100 100 100 100 100 100 100 100 100 100 100 100 100 100 100 100 100 100 100 100 100 100 100 100 100 100 100 100 100 100 100 100 100 100

GFSNGP_prec_cloud_117.txt.gz
Cloud_Cover
96 100 100 100 100 100 50 71 96 98 100 88 50 20 10 100 100 98 100 100 80 95 100 100 76 100 100 100 100 100 100 100 100 99 19 100 100 100 100 96 100 100 100 100
88 100 100 100 100 100 100 40 99 16 80 100 35 100 9 72 100 98 100 100 100 100 100 100 49 76 100 100 100 100 100 100 96 87 100 100 100 100 100 100 100 100 100 100
92 100 100 100 100 100 100 100 2 74 90 76 34 30 100 100 90 100 100 82 98 100 100 100 100 59 100 100 100 100 100 100 100 100 100 100 100 100 100 100 100 100 100 100
100 100 100 100 100 100 100 100 100 100 73 47 79 100 100 100 100 100 100 87 8 88 100 100 100 100 100 97 100 100 100 100 100 100 100 100 100 100 100 100 100 100 100 100
100 100 100 100 100 100 100 100 100 100 62 100 76 63 100 100 100 75 100 27 5 5 86 100 100 100 20 14 87 100 100 100 100 100 100 100 100 100 100 100 100 100 100 100
100 100 100 100 92 100 100 100 100 56 99 100 100 65 100 100 85 99 100 14 18 6 12 5 24 75 51 11 66 99 100 100 100 100 100 100 100 100 100 100 100 100 100 100
100 100 100 95 100 100 100 100 100 100 100 100 100 100 100 100 78 100 83 100 89 26 5 4 2 4 5 5 49 82 100 100 100 100 100 100 100 100 100 100 100 100 100 100
100 100 96 100 100 100 100 100 100 100 100 100 100 78 100 100 100 100 100 75 11 5 5 5 0 3 0 17 64 86 100 100 100 100 100 100 100 100 100 100 100 100 100 100
100 100 99 100 100 100 100 100 100 100 100 100 100 100 94 100 100 100 100 59 8 49 63 8 5 5 12 78 100 100 100 100 100 100 100 100 100 100 100 100 100 100 100 100
100 99 100 100 100 100 100 100 100 100 100 100 100 100 100 100 100 100 83 100 100 100 89 5 5 19 52 100 100 100 100 100 100 100 100 100 100 100 100 100 100 100 100 100
93 90 100 100 100 100 100 100 100 100 100 100 100 100 100 100 100 100 100 100 100 100 100 100 93 65 85 100 100 100 100 100 100 100 100 100 100 100 100 100 100 100 100 100
100 100 100 100 100 100 100 100 100 100 100 100 100 100 100 100 100 100 100 100 100 100 100 100 100 100 100 100 100 100 100 100 100 100 100 100 100 100 100 100 100 100 100 100
100 100 100 100 100 100 100 100 100 100 100 100 100 100 100 100 100 100 100 100 100 100 100 100 100 100 100 100 100 100 100 100 100 100 100 100 100 100 100 100 100 100 100 100
100 100 100 100 100 100 100 100 100 100 100 100 100 100 100 100 100 100 100 100 100 100 100 100 100 100 100 100 100 100 100 100 100 100 100 100 100 100 100 100 100 100 100 100
100 92 88 100 96 100 100 100 100 100 100 100 99 100 100 100 100 100 100 100 100 100 100 100 100 100 100 100 100 100 100 100 100 100 100 100 100 100 100 100 100 100 100 100
100 100 100 97 93 98 97 100 100 100 100 100 100 100 100 95 99 100 100 100 100 100 100 100 100 100 100 100 100 100 100 100 100 100 100 100 100 100 100 100 100 100 100 100
100 100 100 100 100 100 100 99 100 100 100 100 100 100 87 97 100 100 100 100 100 100 100 100 100 100 100 100 100 100 100 100 100 100 100 100 100 100 100 100 100 100 100 100
100 100 100 100 100 91 100 100 100 100 100 100 100 100 100 100 100 100 100 100 100 100 100 100 100 100 100 100 100 100 100 100 100 100 100 100 100 100 100 100 100 100 100 100
99 100 100 100 100 100 100 100 100 100 100 100 99 100 100 100 100 100 100 100 99 100 100 100 100 100 100 100 100 100 100 100 100 100 100 100 100 100 100 100 100 100 100 100
82 87 100 100 100 100 100 100 100 100 100 100 100 100 100 100 100 100 100 100 100 100 100 100 100 100 100 100 100 100 100 100 100 100 100 100 100 100 100 100 100 100 100 100
100 88 100 100 100 100 100 100 100 100 100 100 100 100 100 100 100 99 100 100 100 100 100 100 100 100 100 100 100 100 100 100 100 100 100 100 100 100 100 100 100 100 100 100
100 100 100 100 100 100 100 100 100 100 100 100 100 100 100 100 100 100 100 99 100 99 100 100 100 100 100 100 100 100 100 100 100 100 100 100 100 100 100 100 100 100 100 100
100 100 100 100 100 100 100 100 100 100 100 100 100 100 100 100 100 100 100 100 100 100 100 100 100 100 100 100 100 100 100 100 100 100 100 100 100 100 100 100 100 100 100 100
100 100 100 100 100 100 100 100 100 100 100 100 100 100 100 100 100 100 100 100 100 100 100 100 100 100 100 100 100 100 100 100 100 100 100 100 100 100 100 100 100 100 100 100
100 100 100 100 100 100 100 100 100 100 100 100 100 100 100 100 100 100 100 100 100 100 100 100 100 100 100 100 100 100 100 100 100 100 100 100 100 100 100 100 100 100 100 100
100 100 100 100 100 100 100 100 100 100 100 100 100 100 100 100 100 100 100 100 100 100 100 100 100 100 100 100 100 100 100 100 100 100 100 100 100 100 100 100 100 100 100 100
100 79 100 100 100 100 100 98 100 100 100 100 100 100 100 100 100 100 100 100 100 100 100 100 100 100 100 100 100 100 100 100 100 100 100 100 100 100 100 100 100 100 100 100

GFSNGP_prec_cloud_120.txt.gz
Cloud_Cover
98 100 100 100 100 100 75 74 8 2 100 99 100 100 100 100 100 100 100 100 100 95 87 66 100 100 100 100 100 100 100 100 100 100 100 100 100 100 99 85 100 100 100 100
20 100 100 100 100 100 100 46 100 64 46 100 78 23 97 100 98 94 100 100 98 100 100 100 8 44 63 73 100 100 100 100 100 100 100 43 100 100 100 100 100 100 100 100
47 100 92 100 100 100 100 64 59 56 100 98 71 85 99 100 100 100 100 100 100 100 100 33 32 60 68 100 100 100 100 100 100 100 100 100 100 100 100 100 100 100 100 100
100 94 100 100 100 100 100 100 100 73 59 49 100 100 100 100 100 100 100 100 100 100 100 75 35 100 100 100 100 100 100 100 100 100 100 99 100 100 100 100 100 100 100 100
100 100 100 100 100 100 100 98 100 100 99 100 96 30 96 100 100 100 100 100 100 64 5 5 6 100 100 100 100 98 100 100 100 100 100 100 100 100 100 100 100 100 100 100
100 100 100 100 100 100 100 100 100 100 100 100 100 99 100 100 100 100 100 100 100 100 5 5 4 11 100 100 100 100 100 100 100 100 100 100 100 100 100 100 100 100 100 100
100 100 100 100 100 100 100 100 100 100 100 100 100 100 100 100 100 100 100 100 100 99 14 5 5 5 100 100 100 100 100 100 82 100 100 100 100 100 100 100 100 100 100 100
100 100 100 100 100 100 100 100 100 100 100 100 100 100 100 100 99 90 100 100 100 66 8 5 5 4 6 95 100 100 100 100 84 82 100 100 100 100 100 100 100 100 100 100
100 100 100 100 100 100 100 100 100 100 100 100 100 100 100 100 93 94 93 100 67 96 6 5 5 5 63 100 100 100 100 100 100 100 100 100 100 100 100 100 100 100 100 100
100 100 100 100 100 100 100 100 100 100 100 100 100 100 100 100 100 100 100 100 100 100 19 7 46 70 100 100 100 100 100 100 100 100 100 100 100 100 100 100 100 100 100 100
100 100 100 99 100 100 100 100 100 100 100 100 100 100 100 100 100 100 100 100 100 94 100 78 84 100 100 100 100 100 100 100 100 100 100 100 100 100 100 100 100 100 100 100
89 100 100 100 100 100 100 100 100 100 100 100 100 100 100 100 100 100 100 100 100 100 100 93 100 100 100 100 100 100 100 100 100 100 100 100 100 100 100 100 100 100 100 100
58 93 94 100 100 100 100 100 100 100 100 100 100 100 100 100 100 100 100 100 100 100 100 100 100 100 100 100 100 100 100 100 100 100 100 100 100 100 100 100 100 100 100 100
100 87 77 97 100 100 100 100 100 100 100 100 100 100 100 99 100 100 100 100 100 100 100 100 90 95 100 100 100 100 100 100 100 100 100 100 100 100 100 100 100 100 100 100
100 100 100 100 100 100 100 100 100 100 100 100 100 100 100 100 100 100 100 100 100 100 100 100 87 86 100 100 100 100 100 100 100 100 100 100 100 100 100 100 100 100 100 100
100 100 100 100 100 100 100 100 100 100 100 100 100 100 100 100 100 100 100 100 100 100 100 100 98 98 100 100 100 100 100 100 100 100 100 100 100 100 100 100 100 100 100 100
100 100 100 100 100 86 100 100 100 100 100 100 100 100 100 100 100 100 85 78 84 99 97 93 94 97 96 100 100 100 100 100 100 100 100 100 100 100 100 100 100 100 100 100
95 100 100 100 100 100 100 100 100 100 100 100 100 100 100 100 100 100 99 99 96 72 98 98 94 97 100 100 100 100 100 100 100 100 100 100 100 100 100 100 100 100 100 100
100 79 98 100 100 100 100 100 100 100 100 100 100 100 100 100 100 100 98 97 98 100 88 99 74 99 97 100 100 98 100 100 100 100 100 100 100 100 100 100 100 100 100 100
100 72 100 100 100 100 100 100 100 100 100 100 99 97 100 99 86 96 98 87 99 100 100 81 84 90 94 98 100 100 99 99 100 100 100 100 99 100 95 97 100 100 100 100
100 95 100 100 100 100 100 100 100 100 100 90 98 99 81 94 100 91 100 100 99 100 100 66 100 100 100 100 100 100 100 100 100 100 100 100 100 100 100 100 100 93 92 83
97 40 53 90 100 100 100 100 100 100 100 100 100 100 100 100 100 100 100 98 99 100 100 100 80 97 100 100 100 100 100 100 100 99 100 100 100 100 96 93 80 85 98 96
100 100 91 93 63 81 73 73 56 84 100 100 100 100 100 100 100 100 100 100 100 100 100 100 100 94 99 100 100 100 100 99 92 94 87 100 100 100 100 100 98 91 83 89
94 90 66 28 75 88 99 63 80 14 87 94 71 89 100 100 100 98 82 99 100 81 98 100 100 100 100 94 96 89 97 98 96 78 84 100 100 100 100 93 96 94 87 78
100 80 95 66 100 100 100 97 98 100 100 100 100 100 97 94 96 97 100 100 100 100 100 99 100 98 88 88 96 99 98 99 100 98 98 100 100 99 92 90 92 86 80 77
100 100 100 100 97 99 100 100 100 96 100 100 100 100 100 100 100 100 100 100 100 100 100 100 100 100 100 100 100 97 94 96 93 96 100 100 100 100 100 100 100 100 100 99
93 35 100 100 99 99 85 100 100 100 99 100 100 100 100 100 99 100 100 100 100 100 100 98 96 96 100 100 100 78 87 95 100 100 100 100 100 100 100 100 100 99 97 99

GFSNGP_prec_cloud_123.txt.gz
Cloud_Cover
3 98 67 100 100 100 100 100 92 100 100 100 82 94 100 100 100 100 100 100 100 100 100 100 100 100 100 100 100 100 100 100 100 100 100 100 100 100 100 100 88 27 100 100
4 88 100 100 100 100 100 100 82 67 100 83 100 100 100 100 100 100 100 100 100 100 100 100 100 100 100 100 100 100 100 100 100 100 100 100 100 100 100 100 96 45 100 100
82 100 100 100 100 100 100 100 100 100 100 98 84 95 100 100 100 100 100 100 100 100 100 87 100 100 100 100 100 95 100 100 100 100 100 100 100 100 100 100 100 98 73 99
79 100 100 100 100 100 100 100 100 100 100 100 100 100 100 100 100 100 100 100 100 100 100 100 91 100 100 100 90 100 100 91 100 100 100 100 100 100 100 100 100 100 99 100
78 100 100 100 100 100 100 100 100 100 100 100 100 100 100 100 100 100 100 100 100 100 79 100 100 100 100 100 30 100 100 100 100 100 100 100 100 100 100 100 100 100 100 100
41 100 100 100 100 100 100 100 100 100 100 100 100 100 100 100 100 100 100 100 100 98 93 100 100 100 100 30 49 100 100 100 100 100 100 100 100 100 100 100 100 100 100 100
100 100 100 97 100 100 100 100 100 100 100 100 100 100 100 100 100 100 100 100 100 100 84 82 100 100 86 94 99 100 100 100 100 100 100 100 100 100 100 98 100 100 100 100
100 100 85 73 100 100 100 100 100 100 100 100 100 100 100 100 100 100 100 100 100 98 100 87 57 92 100 100 100 100 100 100 100 100 100 100 99 88 100 100 100 100 100 100
96 100 100 100 100 100 100 100 100 100 100 100 100 100 100 100 100 100 100 100 100 100 94 97 19 98 100 100 100 100 100 100 100 100 100 99 98 100 100 100 100 100 100 100
86 97 100 100 100 100 100 100 100 100 100 100 100 100 100 100 100 100 100 100 100 100 48 80 100 100 100 100 100 100 100 100 100 100 100 100 78 100 100 100 100 100 100 100
47 95 100 100 100 100 100 100 100 100 100 100 100 100 100 100 100 100 100 78 78 87 100 100 100 100 100 100 100 100 100 100 100 100 100 100 100 100 100 100 100 100 100 100
5 99 100 100 100 98 100 100 100 100 100 100 100 100 100 100 100 100 100 100 100 100 100 100 100 100 100 100 100 100 100 100 100 100 100 100 100 100 99 100 100 100 100 100
42 91 100 100 100 100 96 100 100 100 100 100 100 100 100 83 100 100 100 100 100 100 100 100 100 100 100 100 100 100 100 100 100 100 100 100 100 100 100 100 100 100 100 100
82 87 100 100 100 100 100 88 100 100 100 100 100 100 100 100 100 100 100 100 100 100 100 95 100 100 100 100 98 77 93 99 100 100 100 100 100 100 100 100 100 100 100 100
100 100 90 98 100 100 100 100 100 100 100 100 100 100 100 100 100 100 94 100 100 100 100 100 100 100 99 98 98 94 100 100 100 99 100 100 100 99 100 100 100 100 100 100
100 100 100 100 100 81 96 100 100 100 100 100 88 100 100 100 100 100 76 98 100 100 100 100 82 99 97 98 99 90 100 89 100 100 100 100 100 100 100 100 100 100 100 100
100 100 100 100 100 100 98 100 100 100 100 100 100 100 100 100 100 100 100 100 100 100 100 100 99 100 100 99 100 100 85 82 100 100 100 100 100 100 100 100 100 100 100 100
100 100 97 100 100 100 96 97 100 100 100 100 100 100 100 100 90 100 99 100 61 55 55 86 94 91 96 93 97 97 85 60 90 100 100 100 100 100 100 100 100 100 100 100
100 100 100 100 100 100 100 100 100 78 100 100 100 100 100 100 97 83 91 55 60 59 65 72 69 82 76 89 92 100 92 81 62 100 100 100 100 100 100 100 100 100 100 100
100 100 100 100 100 100 100 100 100 100 98 100 100 100 100 100 100 100 100 100 99 100 90 59 78 82 100 84 84 90 86 76 74 76 100 95 85 100 100 100 100 100 100 100
100 49 100 100 100 100 100 100 100 100 100 100 100 100 100 100 100 100 100 100 100 100 81 73 82 95 100 89 77 80 81 76 83 100 100 100 100 100 98 90 78 65 85 99
51 51 93 100 100 100 100 100 100 100 100 100 100 100 100 100 100 100 100 80 99 84 61 79 92 98 97 90 94 96 83 92 87 82 91 93 81 85 60 27 22 61 57 70
31 91 96 64 38 95 100 100 100 100 100 100 100 100 100 100 100 100 100 100 100 72 69 86 96 100 100 99 100 100 97 96 95 95 94 96 91 89 82 68 57 33 67 56
5 5 31 82 49 64 67 94 100 100 100 100 100 100 100 100 100 100 100 100 100 100 100 100 100 100 100 100 100 100 100 100 100 100 99 93 86 91 83 71 87 67 68 64
100 76 43 91 97 100 95 100 73 99 100 68 84 100 100 86 97 100 100 100 100 100 100 100 100 100 100 100 100 98 100 100 100 100 100 100 100 99 96 87 85 86 69 42
29 53 33 11 16 71 89 100 97 95 100 87 73 95 52 61 90 95 88 98 100 98 91 98 80 72 81 90 97 94 98 100 100 100 98 100 92 96 94 90 90 87 84 74
56 68 100 100 64 85 64 57 82 81 95 100 98 99 100 99 93 97 100 98 96 85 74 79 80 75 72 86 91 94 98 93 95 97 100 99 100 99 99 94 91 89 85 77

GFSNGP_prec_cloud_126.txt.gz
Cloud_Cover
2 2 50 58 100 100 100 100 100 100 66 100 100 100 100 100 100 100 100 100 100 100 100 100 100 100 100 100 100 100 100 100 100 100 100 100 100 100 100 100 100 100 100 94
0 4 6 93 100 100 100 100 86 100 100 76 100 100 100 100 100 100 100 100 100 100 100 100 100 100 100 100 100 100 100 100 100 100 100 100 100 100 100 100 100 100 90 42
4 2 80 98 98 100 100 100 100 100 100 100 100 100 100 100 100 100 100 100 100 100 100 100 100 100 100 100 100 100 100 100 100 100 100 100 100 100 100 100 100 100 95 100
5 5 47 99 100 100 100 100 100 100 100 100 100 100 100 100 100 100 100 100 100 100 100 100 100 100 100 100 100 100 100 100 100 100 100 100 100 100 100 100 100 100 100 100
98 80 51 100 94 100 100 100 96 100 100 100 100 100 100 100 100 100 100 100 100 100 100 100 100 100 100 100 100 100 100 100 100 100 100 100 100 100 100 100 100 100 100 100
87 59 97 100 100 100 100 100 100 100 100 100 100 100 100 100 100 100 100 100 100 100 100 100 100 100 100 100 100 100 100 100 100 100 100 93 86 100 100 100 100 100 100 100
98 73 100 96 67 100 100 100 100 100 100 100 100 100 100 100 100 100 100 100 100 100 100 41 100 97 100 98 100 100 100 100 100 100 100 87 76 100 100 100 100 100 100 100
10 58 87 33 95 100 100 100 100 100 100 100 100 100 100 100 100 100 100 100 100 100 100 100 100 100 100 100 100 100 100 100 100 100 100 100 52 100 100 100 100 100 100 100
24 23 76 99 100 100 100 100 100 100 100 100 100 100 100 100 100 100 100 100 100 100 100 100 100 100 100 97 100 100 100 100 100 100 100 100 76 100 100 100 100 100 100 100
58 44 99 100 100 100 100 100 100 100 100 100 100 100 100 100 100 100 100 100 100 100 100 100 100 100 100 100 100 100 100 100 100 100 100 100 100 94 100 100 100 100 100 100
23 42 94 100 98 100 100 100 100 100 100 100 100 100 100 100 100 100 100 100 100 100 100 100 100 100 100 100 100 100 100 100 100 100 100 100 100 100 100 100 100 100 100 100
72 48 73 94 71 100 100 100 100 100 100 100 100 100 100 100 100 100 100 100 100 100 100 100 100 97 100 100 100 91 100 100 100 100 100 100 100 100 100 100 100 100 100 100
43 80 100 90 100 100 100 100 100 100 100 100 100 100 100 100 100 100 100 100 100 100 100 100 97 96 100 99 100 100 100 100 100 100 100 100 100 100 100 100 100 100 100 100
36 90 100 28 100 100 100 100 100 100 100 100 94 100 100 100 100 100 98 100 100 100 100 100 99 91 100 100 75 33 37 95 100 97 93 95 100 99 100 100 100 100 100 100
10 86 100 73 96 84 99 100 90 100 100 100 100 87 100 100 100 100 100 100 100 100 90 100 100 90 97 97 74 83 19 76 71 82 89 81 80 95 100 100 100 100 100 100
91 100 100 100 100 100 100 100 91 99 91 100 100 94 99 100 100 99 100 100 100 100 100 100 100 100 100 98 100 100 100 96 22 9 17 30 90 96 100 100 100 100 100 100
100 100 100 100 100 100 89 90 93 100 100 100 100 100 100 92 100 95 98 100 100 100 100 91 100 100 100 97 98 97 100 27 35 7 19 30 71 95 97 92 100 100 100 96
100 100 100 100 100 100 99 100 100 72 96 98 100 100 100 100 89 99 100 99 99 100 100 86 84 92 96 75 67 75 74 62 67 51 48 61 69 83 85 99 100 100 100 100
80 100 100 100 100 100 100 99 64 35 99 98 86 100 100 100 100 100 41 37 80 96 100 49 63 93 86 84 73 75 67 66 63 75 52 76 89 86 89 97 100 100 100 100
100 100 100 97 100 100 100 100 99 100 98 36 66 100 100 100 100 100 100 96 100 93 100 94 52 78 88 91 68 74 75 63 80 81 90 92 96 91 84 81 97 100 100 100
100 92 100 100 100 100 100 100 100 100 100 100 91 97 100 100 100 99 100 100 100 100 63 84 86 96 100 77 83 80 90 82 80 89 87 100 100 100 89 75 70 92 99 100
100 100 100 100 100 71 86 100 100 100 100 100 100 100 100 100 100 100 100 90 100 100 100 100 100 100 100 100 91 87 98 100 100 100 97 99 100 100 93 93 83 78 90 80
97 98 85 23 5 54 7 99 100 89 100 100 100 100 100 100 100 100 100 100 100 83 82 100 100 100 100 100 97 100 98 100 100 100 100 100 100 100 100 100 94 83 76 64
36 62 55 5 33 82 100 76 98 100 100 98 100 100 100 100 100 100 100 100 100 100 100 100 100 100 100 100 100 100 100 100 100 100 100 100 100 96 100 100 99 98 99 91
56 63 52 65 75 95 92 80 79 83 70 75 72 75 76 74 70 97 100 100 100 100 100 100 100 100 100 100 100 100 100 100 100 100 100 100 100 100 100 100 98 83 82 98
67 69 6 25 35 59 79 81 86 83 93 95 87 89 63 83 82 83 89 86 85 100 100 100 100 100 100 100 100 100 100 100 100 100 100 100 100 100 100 100 100 100 100 100
37 93 82 69 70 64 71 72 70 10 76 77 98 100 86 83 84 87 86 91 98 88 90 85 83 76 79 91 95 92 100 100 100 100 100 100 100 100 100 100 100 100 100 100

GFSNGP_prec_cloud_129.txt.gz
Cloud_Cover
0 0 2 24 33 90 99 100 100 96 98 100 100 100 100 100 100 100 100 100 100 100 100 100 100 100 100 100 100 100 100 100 100 100 100 100 100 100 100 100 100 100 100 100
0 1 34 8 100 97 100 100 100 100 100 100 100 100 100 100 100 100 100 100 100 100 100 100 100 100 100 100 100 100 100 100 100 100 100 100 100 100 100 100 98 100 100 100
4 0 1 91 81 100 100 100 100 100 100 100 100 100 100 100 100 100 100 100 100 100 100 100 100 100 100 100 100 100 100 100 100 100 100 100 100 100 100 100 100 100 100 98
5 4 4 40 47 89 73 98 100 100 100 100 100 100 100 100 100 100 100 100 100 100 100 100 100 100 100 100 100 100 100 100 100 100 100 100 100 100 100 100 100 100 97 100
96 5 28 73 99 74 99 63 100 100 100 100 100 100 100 100 100 100 100 100 100 100 100 100 100 100 100 100 100 100 100 100 100 100 100 100 100 100 100 100 100 100 100 97
66 82 59 15 100 28 100 75 100 100 100 100 100 100 100 100 100 100 100 100 100 100 100 100 100 100 100 100 100 100 100 100 100 100 100 98 98 100 100 100 100 100 100 100
34 91 5 5 81 5 100 31 100 100 100 100 100 100 100 100 100 100 100 100 100 100 100 100 100 100 100 100 100 100 100 100 100 100 100 100 100 95 100 100 100 100 100 100
35 23 4 5 54 29 95 100 100 100 100 100 100 100 100 100 100 100 100 100 100 100 100 100 100 100 100 100 100 100 100 100 100 100 100 100 91 68 100 100 100 100 100 100
5 5 5 5 74 99 100 100 100 100 100 100 100 100 96 100 100 100 100 100 100 100 100 100 100 100 100 100 100 100 100 100 100 100 100 100 100 100 95 98 100 100 100 100
5 5 11 5 87 100 100 100 100 100 100 100 100 99 87 100 100 100 100 100 100 100 100 100 100 100 100 100 100 100 100 100 100 100 100 100 100 100 100 99 100 100 100 100
5 5 8 18 100 98 100 100 100 100 100 100 85 82 81 100 100 100 100 100 100 100 100 100 100 100 100 100 100 100 100 100 100 100 100 100 100 99 100 100 100 100 100 100
5 5 5 11 70 79 100 100 100 100 100 100 100 47 95 100 100 100 100 100 100 100 100 100 100 100 89 99 84 100 100 100 100 100 96 98 99 100 100 99 100 100 100 100
66 98 44 65 100 91 100 100 100 100 100 100 100 56 100 100 100 100 100 100 100 100 100 100 100 100 80 100 56 73 100 100 100 100 96 87 88 98 100 100 100 96 100 100
100 100 100 90 50 100 82 100 84 100 100 100 100 88 99 100 100 100 100 100 100 100 100 100 100 100 100 54 22 5 71 100 100 100 100 90 91 88 100 100 100 100 98 100
99 100 78 88 98 86 43 100 78 90 100 100 100 100 94 79 93 100 100 100 100 100 100 100 100 100 100 100 100 100 77 82 68 58 70 68 72 100 96 97 98 97 98 57
82 97 93 87 100 100 100 100 100 95 99 100 100 100 100 85 75 61 100 99 100 100 86 98 100 100 100 100 100 90 80 96 41 40 57 97 86 67 70 84 97 100 100 100
99 91 94 100 100 100 100 100 100 100 100 100 100 100 100 100 59 84 76 97 100 100 96 100 100 100 100 100 85 100 100 67 78 99 100 87 75 95 90 90 100 100 100 100
97 91 100 100 100 100 100 100 100 100 100 100 100 100 100 100 100 100 76 77 100 100 100 100 100 100 98 78 97 100 100 100 100 100 66 100 83 74 80 92 100 100 100 87
99 90 100 100 100 100 100 100 100 100 100 98 98 82 87 100 100 99 100 61 85 98 100 100 100 98 100 100 97 100 88 75 92 77 70 68 70 66 74 80 91 94 92 96
98 77 67 92 100 100 100 100 100 100 100 100 100 96 81 100 100 95 100 100 100 100 93 100 100 100 100 98 100 100 99 88 80 93 100 95 97 82 74 74 73 90 88 96
100 96 98 100 74 49 99 100 100 100 100 100 100 100 100 100 100 100 100 100 100 100 100 94 92 100 100 100 100 100 100 100 100 100 100 96 100 83 82 94 81 92 100 98
69 88 92 54 27 13 51 80 96 85 100 100 100 100 100 100 100 100 99 100 100 100 100 100 100 97 100 100 100 100 100 100 100 100 100 100 98 86 88 95 94 91 82 86
83 37 40 24 44 70 82 43 71 51 60 94 100 100 100 100 100 100 100 99 90 95 97 97 97 100 100 100 100 94 100 100 100 100 100 99 98 93 99 100 100 96 98 100
55 28 20 14 5 60 45 54 48 74 86 99 100 98 85 100 100 100 100 100 100 100 100 100 100 100 100 100 100 100 100 100 100 100 100 99 81 93 99 100 100 100 100 100
9 29 57 47 61 89 99 88 53 83 90 88 68 87 89 77 54 90 100 100 86 95 100 100 100 100 100 100 100 100 100 100 100 100 100 100 100 100 100 100 100 100 100 100
75 59 57 6 19 81 92 72 91 95 82 100 92 100 100 100 96 93 91 86 69 82 100 96 84 99 100 100 100 100 100 100 100 100 100 100 100 100 100 100 100 100 100 100
77 67 75 67 73 76 72 45 15 57 91 97 96 100 100 100 98 85 90 97 100 100 100 97 87 78 75 82 95 100 100 100 100 100 100 100 100 100 100 100 100 100 100 100

GFSNGP_prec_cloud_132.txt.gz
Cloud_Cover
67 5 5 2 0 5 46 10 100 39 86 89 100 100 100 100 100 100 100 100 100 100 100 100 100 100 100 100 100 100 100 100 100 100 100 100 100 100 100 100 100 100 100 100
48 5 5 2 5 5 5 22 62 52 71 100 100 100 100 100 100 100 100 100 100 100 100 100 100 100 100 100 100 100 100 100 100 100 100 100 100 100 100 100 100 100 100 100
10 3 4 42 5 19 8 28 98 75 100 100 100 100 100 100 100 100 100 100 100 100 100 100 100 100 100 100 100 100 100 100 100 100 100 100 100 100 100 100 100 100 100 100
5 5 10 24 5 4 70 76 100 98 100 100 100 100 100 100 100 100 100 100 100 100 100 100 100 100 100 100 100 100 100 100 100 100 100 100 100 100 100 100 100 100 100 100
41 51 3 15 64 7 91 74 75 100 100 100 100 100 100 100 100 100 100 100 100 100 100 100 100 100 100 100 100 100 100 100 100 100 100 100 100 100 100 100 100 100 100 100
100 59 70 6 23 5 46 87 82 100 100 100 100 100 100 100 100 100 100 100 100 100 100 100 100 100 100 100 100 100 100 100 100 100 100 100 100 100 100 100 100 100 100 100
96 79 6 5 8 10 71 34 100 100 98 100 100 100 100 100 100 100 100 100 100 100 100 100 100 100 100 100 100 100 100 100 100 100 100 100 100 100 100 100 100 100 100 100
78 98 49 5 0 2 16 98 100 100 100 100 100 100 100 100 100 100 100 100 100 100 100 100 100 100 100 100 100 100 100 100 100 100 100 100 100 100 100 100 100 100 100 100
5 4 5 5 5 17 10 19 100 100 100 100 100 100 100 100 100 100 100 100 100 100 100 100 100 100 100 100 100 100 100 100 100 100 100 100 100 100 100 100 100 100 100 100
5 5 5 5 5 5 5 5 100 100 100 100 100 97 100 100 100 100 100 100 100 100 100 100 100 100 100 100 100 100 100 100 100 100 100 100 100 100 100 100 100 100 100 100
14 4 5 5 5 5 5 5 78 100 100 100 100 100 100 100 100 100 100 100 100 100 100 100 88 100 100 100 100 100 100 100 100 100 100 100 100 100 100 100 100 100 100 100
5 4 5 5 5 5 7 76 59 100 100 100 100 100 78 100 100 100 100 100 100 100 100 100 78 98 100 36 95 100 100 100 100 100 100 100 100 100 100 100 100 100 100 100
5 5 5 6 100 48 28 78 49 100 100 100 100 100 93 86 75 100 100 100 100 100 100 100 100 100 95 62 90 92 100 100 100 100 99 86 91 100 100 100 100 100 100 100
5 75 100 84 84 100 91 46 51 100 93 100 100 100 92 85 75 67 100 100 100 100 100 100 100 100 100 92 71 57 80 80 92 96 69 81 100 94 99 100 100 99 98 100
59 58 88 92 95 100 83 67 23 86 83 100 99 100 100 97 98 96 100 100 100 100 100 100 100 100 100 100 100 100 100 100 88 62 54 61 58 72 82 74 100 100 90 68
100 100 90 49 100 100 99 100 100 100 100 100 93 100 100 100 100 99 100 100 100 100 100 100 100 100 100 100 100 100 100 100 98 18 36 34 45 51 60 75 96 100 100 100
97 93 54 68 100 100 100 100 100 100 100 100 100 92 100 100 100 95 93 99 100 100 100 100 100 100 100 100 100 100 100 100 100 100 60 63 66 78 74 75 100 100 100 100
85 75 23 22 100 81 100 100 100 100 100 100 100 94 99 100 100 100 100 100 71 89 100 100 100 98 100 100 96 99 100 100 100 99 100 78 64 71 100 100 90 100 94 80
25 20 6 80 100 100 100 100 100 100 100 100 100 100 100 100 100 100 100 100 100 80 78 95 97 88 97 100 100 100 100 100 98 100 100 100 94 84 100 100 71 76 85 89
5 8 77 97 70 92 100 100 100 100 100 100 100 100 100 100 100 100 100 100 100 100 100 94 89 92 86 100 100 100 100 100 100 100 100 100 100 100 100 100 72 85 88 99
45 24 5 5 23 16 73 67 38 77 100 100 100 100 100 100 72 84 83 86 100 100 100 100 100 100 94 96 100 100 100 100 100 100 100 96 91 85 83 80 75 74 90 94
43 46 68 45 10 58 61 53 6 41 57 81 100 78 67 100 100 100 100 100 93 66 100 100 100 100 100 100 89 83 97 98 100 100 100 100 92 83 84 97 92 91 80 76
31 37 53 52 43 66 52 73 78 66 98 100 99 96 100 100 100 100 100 100 100 78 69 100 100 100 100 100 100 100 100 89 93 93 87 98 100 96 100 100 100 99 100 77
60 48 30 20 52 69 83 46 65 81 100 100 100 100 88 13 59 86 85 100 100 100 100 100 100 92 100 99 99 95 99 90 92 100 97 98 100 100 100 95 100 100 100 100
18 68 71 68 67 89 97 98 92 100 91 77 80 93 97 92 84 98 100 77 83 76 97 100 100 100 96 100 100 100 100 85 89 96 100 100 100 100 100 100 100 100 100 100
56 53 52 19 60 89 91 97 96 100 93 98 92 92 86 72 78 81 98 94 93 89 100 100 83 72 81 78 72 72 81 100 100 100 100 100 100 100 100 100 100 100 100 100
70 67 70 72 81 81 68 7 24 92 88 87 90 100 99 100 100 97 100 100 100 100 100 100 100 82 67 78 72 73 86 80 73 77 96 100 100 100 100 100 100 100 100 100

GFSNGP_prec_cloud_135.txt.gz
Cloud_Cover
100 100 100 100 100 100 76 5 68 5 5 65 62 100 100 100 100 100 100 100 100 100 100 100 100 100 100 100 100 100 100 100 100 100 100 100 100 100 100 100 100 100 100 100
100 100 100 100 100 90 6 5 65 13 5 7 100 98 100 100 100 100 100 100 100 100 100 100 100 100 100 100 100 100 100 100 100 100 100 100 100 100 100 100 100 100 100 100
100 100 100 100 23 5 5 5 52 62 45 98 96 100 100 100 100 100 100 100 100 100 100 100 100 100 100 100 100 100 100 100 100 100 100 100 100 100 100 100 100 100 100 100
100 100 90 9 5 5 5 53 78 100 100 100 100 100 100 100 100 100 100 100 100 100 100 100 100 100 100 100 100 100 100 100 100 100 100 100 100 100 100 100 100 100 100 100
100 100 14 89 43 5 5 40 90 100 100 100 100 69 97 100 100 100 100 100 100 100 100 100 100 100 100 100 100 100 100 100 100 100 100 100 100 100 100 100 100 100 100 100
100 100 21 88 48 23 25 32 85 67 100 100 100 94 83 100 100 100 100 100 100 100 100 100 100 100 100 100 100 100 100 100 100 100 100 100 100 100 100 100 100 100 100 100
100 100 100 100 100 12 34 4 11 59 100 100 100 100 100 100 100 100 100 100 100 100 100 100 100 100 100 100 100 100 100 100 100 100 100 100 100 100 100 100 100 100 100 100
100 100 100 100 5 5 4 5 6 43 89 100 100 91 100 100 100 100 100 100 100 100 100 100 100 100 99 100 100 100 100 100 100 100 100 100 100 100 100 100 100 100 100 100
100 100 100 66 5 5 5 5 39 12 64 100 100 100 82 100 100 100 100 100 88 100 100 100 100 100 100 98 100 100 100 100 100 100 100 100 100 100 100 100 100 100 100 100
100 100 17 5 5 5 5 5 14 50 61 95 100 94 100 100 100 100 100 100 100 100 97 100 92 99 100 100 100 100 100 100 100 100 100 100 100 100 100 100 100 100 100 100
96 7 6 23 5 5 5 5 41 83 36 51 80 94 100 100 100 100 100 100 100 100 100 100 100 93 83 97 100 100 100 100 100 100 100 100 100 98 100 100 100 100 100 100
6 5 1 5 7 20 46 69 28 15 8 22 79 100 100 100 100 100 100 100 100 100 100 100 100 100 97 85 100 100 100 100 100 99 100 99 100 99 98 100 100 100 100 97
5 5 6 16 12 24 71 100 95 30 44 83 89 100 100 100 100 100 99 100 100 100 100 100 100 100 100 100 77 100 76 100 100 100 98 95 91 100 100 89 98 100 100 100
5 5 25 79 99 80 95 100 100 99 44 86 88 100 100 100 100 90 94 99 100 100 100 100 100 100 100 100 100 99 74 72 87 91 90 97 99 100 99 100 100 95 96 100
9 71 98 88 94 94 86 100 100 100 98 98 98 100 100 100 100 100 85 76 100 100 100 100 100 100 100 100 100 100 88 68 81 88 81 68 90 99 99 100 100 100 98 86
100 100 100 79 70 70 100 100 100 100 100 100 99 98 100 100 100 100 96 80 88 84 100 100 100 100 100 100 100 100 96 95 53 61 78 87 87 87 98 98 100 100 100 100
100 100 95 95 81 9 26 100 100 100 100 100 100 86 100 100 100 100 100 100 57 63 100 100 100 100 100 100 100 100 100 100 100 100 100 96 99 99 99 100 100 100 100 100
97 89 70 56 12 49 92 100 100 100 100 100 100 100 99 99 100 100 100 100 100 83 70 100 100 100 100 100 100 100 100 100 100 100 100 100 100 100 100 100 100 100 100 64
83 44 5 5 10 69 100 99 100 100 100 100 100 100 100 100 100 100 100 100 100 100 89 100 100 100 100 100 100 100 100 100 100 100 100 98 100 95 100 100 100 100 100 100
5 5 5 40 58 60 64 24 98 100 100 100 100 100 100 100 100 100 100 100 100 100 100 100 100 100 100 98 100 100 100 100 100 100 100 100 100 100 100 100 100 100 100 100
5 6 24 38 79 46 52 39 30 85 99 70 72 99 100 100 100 100 100 100 100 85 99 100 100 100 100 94 93 99 100 100 100 100 100 100 100 100 100 100 100 100 100 100
15 6 5 5 5 42 62 59 25 35 72 75 75 58 19 58 20 31 89 100 100 46 94 100 100 96 100 88 99 100 100 100 100 100 100 100 100 100 100 100 100 100 100 100
43 17 28 5 5 10 64 68 67 41 77 97 97 84 83 100 100 98 100 96 100 47 95 100 96 82 84 100 100 100 100 100 100 100 100 100 100 100 100 100 100 100 100 100
51 16 26 61 73 29 20 65 92 97 100 99 100 100 63 85 88 100 91 31 40 58 87 94 75 65 82 100 100 100 100 100 100 100 100 98 100 100 100 100 100 100 100 100
57 93 81 71 50 94 99 98 90 100 65 67 87 100 100 100 100 100 97 86 67 52 97 48 68 65 99 100 100 100 100 100 100 100 100 100 100 100 100 100 100 100 100 100
5 5 6 22 62 34 5 13 86 100 94 67 96 100 100 100 100 99 100 97 81 56 100 100 93 97 100 100 100 100 100 100 100 100 100 100 100 100 100 100 100 100 100 100
29 38 51 64 84 39 26 17 36 96 65 51 53 97 90 99 93 75 72 100 99 99 100 100 99 74 93 100 100 100 100 100 96 100 100 100 100 100 100 100 100 100 100 100

GFSNGP_prec_cloud_138.txt.gz
Cloud_Cover
100 73 96 100 55 67 100 88 89 90 4 5 77 100 100 100 100 100 99 100 100 100 100 100 100 100 100 100 100 100 100 100 100 100 100 100 90 85 100 100 100 100 100 100
100 87 100 100 93 100 92 99 100 13 6 40 45 100 100 100 100 100 100 100 100 100 100 100 100 100 100 100 100 100 100 100 100 100 100 100 100 100 100 100 100 100 100 100
100 100 100 100 100 98 98 100 69 27 60 94 68 100 100 100 100 100 100 98 100 100 100 100 100 100 100 100 100 100 100 100 100 100 100 100 100 100 100 100 100 100 100 100
100 100 100 100 100 100 100 100 100 90 100 100 100 100 100 99 100 100 100 100 100 100 100 100 100 100 100 100 100 100 100 100 100 100 100 100 100 100 100 100 100 100 100 100
100 100 100 100 95 100 100 100 54 93 100 100 98 58 100 100 100 100 100 100 100 100 100 100 100 100 100 100 100 100 100 100 100 100 100 100 100 100 100 100 100 100 100 100
100 100 100 100 100 99 100 100 5 66 98 100 94 79 93 100 100 100 100 97 91 100 100 100 100 100 100 100 100 100 100 100 100 100 100 100 100 100 100 100 100 100 100 100
100 100 99 100 100 97 71 61 5 60 93 99 100 100 100 100 80 100 97 83 93 100 100 100 100 100 100 100 100 100 100 100 100 100 100 100 100 100 100 100 100 100 100 100
100 100 100 100 100 99 64 5 5 27 88 98 95 100 100 100 92 92 99 82 100 100 99 100 100 100 100 100 100 100 100 100 100 100 100 100 100 100 100 100 100 100 100 100
100 100 100 100 97 29 5 5 10 17 83 100 100 100 88 87 92 91 99 100 89 100 100 100 100 100 100 100 100 100 100 100 100 100 100 100 100 100 100 100 100 100 100 100
100 100 82 38 8 5 5 5 34 49 98 100 100 100 83 97 89 98 100 98 97 100 100 99 100 100 100 100 100 100 100 100 100 100 99 100 100 100 100 100 100 100 100 100
100 86 45 23 6 10 5 7 54 62 72 83 100 100 89 95 91 100 100 100 98 98 100 100 100 100 100 100 100 100 99 100 89 93 93 100 99 100 100 100 100 100 100 100
100 58 10 5 11 26 54 82 71 69 69 78 100 100 94 99 97 100 100 100 100 100 100 100 100 100 100 100 100 100 99 92 100 96 100 100 100 100 84 99 96 98 100 100
45 26 5 27 52 71 99 100 75 25 13 87 100 100 100 100 100 100 100 100 100 100 100 100 100 100 100 100 98 83 100 100 94 100 100 100 100 100 100 100 99 100 100 100
18 31 74 99 100 100 100 100 50 59 90 100 100 100 100 100 100 100 100 100 100 100 100 100 100 100 100 100 100 100 100 99 100 100 100 100 100 100 100 100 100 100 85 93
54 36 77 90 98 90 80 78 89 86 98 100 98 100 100 100 100 100 100 100 100 100 100 100 100 100 100 100 100 100 100 99 100 100 98 99 100 100 100 100 100 100 100 100
64 100 100 81 78 72 82 79 73 64 100 100 99 100 100 100 100 100 100 100 100 100 100 100 100 100 100 100 100 100 100 100 99 100 100 100 100 100 100 97 100 100 98 100
86 62 72 82 82 70 15 5 6 100 100 96 100 100 100 100 100 60 100 100 100 100 100 100 100 100 100 100 100 100 100 100 99 100 100 100 100 100 98 100 100 100 98 100
39 27 70 80 43 67 71 50 69 93 97 100 100 100 100 100 100 100 100 100 100 100 100 100 100 100 100 100 100 100 100 100 100 100 100 100 100 100 100 100 100 100 100 99
5 8 5 5 5 5 69 90 93 100 100 100 100 100 100 100 100 100 100 100 100 100 100 100 100 100 100 98 100 100 100 100 100 100 100 100 100 100 100 100 100 100 100 100
5 5 5 5 33 77 99 100 100 100 100 98 100 100 100 100 100 100 100 100 100 100 100 100 100 100 100 100 100 100 100 100 100 100 100 100 100 100 100 100 100 100 100 100
5 5 21 60 63 70 94 90 100 99 100 98 88 88 100 100 100 93 100 100 100 100 100 100 100 100 100 100 100 100 100 100 100 100 100 100 100 100 100 100 100 100 100 100
44 22 71 72 73 97 94 79 91 100 100 87 65 91 100 100 100 100 100 100 100 67 100 100 97 91 100 100 100 100 100 100 100 100 100 100 100 100 100 100 100 100 100 100
5 5 5 25 40 37 87 58 75 68 81 82 88 100 88 98 100 100 100 100 100 81 100 100 94 100 100 100 100 100 100 100 100 100 100 100 100 100 100 100 100 100 100 100
64 55 42 62 6 62 99 99 95 81 83 99 91 93 95 100 100 100 100 99 78 100 99 76 98 100 100 100 100 100 100 100 100 100 100 100 100 100 100 100 100 100 100 96
70 91 100 98 94 98 100 100 91 99 96 100 100 94 96 100 100 100 100 100 70 100 100 90 100 100 100 100 100 100 100 100 100 100 100 100 100 100 100 100 100 100 100 100
96 96 99 93 100 100 100 98 100 100 100 100 100 100 100 100 100 100 100 100 100 100 100 100 100 100 100 100 100 100 100 100 100 100 100 100 100 100 100 100 100 100 100 100
89 60 74 96 100 98 95 91 100 100 99 100 100 100 100 100 96 99 85 100 100 100 100 100 100 100 100 100 100 100 100 100 98 100 100 100 100 100 100 100 100 100 100 100

GFSNGP_prec_cloud_144.txt.gz
Cloud_Cover
100 100 100 100 100 100 100 100 100 100 76 51 73 95 74 100 100 100 5 5 5 5 5 17 43 34 100 100 96 100 100 100 100 100 100 100 100 100 100 100 100 100 100 100
100 100 100 100 100 100 100 100 100 100 100 5 97 10 86 100 100 90 5 5 5 5 5 100 68 15 60 100 100 100 100 100 100 100 100 100 100 100 100 100 100 100 100 100
100 100 100 100 100 100 100 100 71 98 100 97 100 100 100 100 98 73 10 5 5 5 5 100 100 100 34 95 100 100 100 100 100 100 100 100 100 100 100 100 100 100 100 100
100 100 100 100 100 100 100 100 100 86 100 100 100 100 100 100 70 67 5 5 5 5 5 24 100 100 99 42 97 100 100 100 100 100 100 100 100 100 100 100 100 100 100 100
100 100 100 100 100 100 100 100 46 94 100 100 100 100 99 100 14 70 26 7 13 5 5 33 86 99 97 73 100 100 100 100 100 100 100 100 100 100 100 100 100 100 100 100
100 100 100 100 100 100 100 73 76 100 100 100 100 100 99 100 93 96 40 49 5 7 47 59 66 100 100 100 89 99 100 100 100 100 100 100 100 100 100 100 100 100 100 100
100 100 100 100 100 100 100 97 100 99 68 97 100 100 100 100 100 78 93 69 21 77 87 100 93 93 100 100 96 97 100 100 100 100 100 100 100 100 100 100 100 100 100 100
100 100 100 100 100 93 76 85 100 100 100 100 100 100 100 100 92 83 83 70 66 85 97 87 95 94 100 100 100 100 100 100 100 100 94 99 100 100 100 100 100 100 100 100
100 100 100 100 92 100 65 84 100 100 100 100 100 100 100 92 99 99 100 99 97 98 90 96 86 100 100 100 100 100 100 100 100 100 100 100 100 100 100 100 100 100 100 100
100 100 100 93 100 100 100 69 100 100 100 100 100 100 81 92 94 98 99 100 97 91 95 99 100 100 100 100 100 100 100 100 100 100 100 100 100 100 100 100 100 100 100 100
100 100 100 94 77 100 100 100 100 100 98 79 66 91 89 93 92 96 100 92 93 98 99 100 100 100 100 100 100 100 100 100 98 100 100 100 100 100 100 100 100 100 100 100
100 100 99 100 100 100 100 100 100 95 100 50 38 91 95 98 92 94 99 98 98 100 99 99 100 100 100 100 100 100 100 100 100 100 100 100 100 100 100 100 100 100 100 100
100 100 100 100 100 100 100 100 30 5 5 87 65 87 92 98 95 95 66 95 84 100 99 100 100 100 100 100 100 100 100 100 100 100 100 100 100 100 100 100 100 100 100 100
100 100 100 100 100 100 89 37 13 74 80 46 95 89 96 98 99 65 15 5 55 99 97 96 91 100 100 100 100 100 100 100 100 100 100 100 100 100 100 100 100 100 100 100
100 100 100 100 100 100 79 84 92 100 67 99 95 88 86 100 100 100 96 37 96 100 99 98 98 100 100 100 100 100 100 100 100 100 100 100 100 100 100 100 100 100 100 100
100 100 100 100 100 98 93 88 86 88 98 95 93 97 93 100 89 100 100 100 100 100 98 100 100 100 100 100 100 100 100 100 100 100 100 100 100 100 100 100 100 100 100 100
100 100 94 90 98 90 53 5 5 21 81 82 100 98 100 100 98 100 91 100 100 100 100 100 100 100 100 100 100 100 100 100 100 100 100 100 100 100 100 100 100 100 100 100
99 70 95 45 95 5 5 5 8 47 96 100 94 30 5 30 90 74 97 100 100 100 100 100 100 100 100 100 100 100 100 100 100 100 100 100 100 100 100 100 100 100 100 100
5 5 5 19 43 10 5 68 82 96 100 98 73 48 23 6 45 25 100 52 66 100 96 93 100 96 100 100 100 100 100 100 100 100 100 100 100 100 100 100 100 100 100 100
5 5 5 5 5 12 14 94 97 93 96 44 26 48 11 5 5 18 100 89 10 69 100 97 99 51 100 100 100 100 100 100 100 100 100 100 100 100 100 100 100 100 100 100
5 24 57 59 49 75 66 30 96 98 54 5 5 5 6 7 5 5 33 92 75 40 100 82 100 79 100 96 100 100 100 100 100 100 100 100 100 100 100 100 100 100 100 100
5 5 7 32 58 79 92 84 27 35 5 5 5 42 96 99 85 73 72 27 100 63 100 84 90 59 100 100 100 100 100 100 100 100 100 100 100 100 100 100 100 100 100 100
54 52 31 5 48 94 66 15 5 6 5 24 67 14 52 74 22 96 100 72 16 89 60 100 83 80 100 100 100 100 100 98 100 100 100 100 100 100 100 100 100 100 99 100
71 17 37 64 5 5 82 88 86 14 32 11 5 5 57 100 100 76 99 100 36 100 98 39 30 100 100 100 100 100 100 100 100 100 100 100 100 100 100 100 92 100 100 100
5 75 56 5 48 100 75 93 95 66 68 71 43 54 96 50 62 71 40 94 93 100 100 96 54 94 100 100 100 100 100 90 100 100 100 100 100 100 100 100 100 100 100 82
75 98 48 63 100 54 84 69 100 80 98 88 94 87 98 96 96 96 97 91 100 100 99 100 80 66 99 99 100 100 100 100 98 100 100 100 100 100 100 100 100 100 100 100
96 90 85 99 96 87 76 35 100 84 44 99 98 58 94 100 74 75 82 99 99 98 95 100 100 99 84 100 100 100 100 100 100 98 100 100 100 100 100 100 100 100 100 100

GFSNGP_prec_cloud_147.txt.gz
Cloud_Cover
100 100 100 100 100 100 100 100 100 100 100 57 54 9 99 100 7 5 3 12 42 33 6 5 5 0 5 13 5 29 100 100 100 100 100 100 100 100 100 100 100 100 100 100
100 100 100 100 100 100 100 100 100 100 100 100 100 100 100 81 14 14 59 73 97 93 6 5 5 5 5 46 5 5 90 100 100 100 100 100 100 100 100 100 100 100 100 100
100 100 100 100 100 100 100 100 100 100 100 100 100 100 100 100 46 7 98 99 76 31 5 5 5 5 5 42 5 10 91 100 100 100 100 100 100 100 100 100 100 100 100 100
100 100 100 100 100 100 100 100 100 100 77 100 100 96 77 89 17 5 5 36 58 5 5 5 5 5 5 6 5 63 81 100 100 100 100 100 100 100 100 100 100 100 100 100
100 100 100 100 100 100 100 100 100 100 100 100 100 8 59 53 5 5 5 5 19 7 14 36 5 5 5 5 5 68 86 97 100 100 100 100 100 100 100 100 100 100 100 100
87 100 100 100 100 100 100 100 100 100 100 100 100 94 87 5 5 18 88 100 97 100 71 5 5 5 40 5 29 65 100 100 100 100 100 100 100 100 100 100 100 100 100 100
100 100 100 100 100 100 100 100 100 100 100 100 100 81 15 6 10 53 43 59 37 60 6 5 5 5 55 53 72 94 100 99 100 100 100 100 100 100 100 100 100 100 100 100
96 100 100 100 64 97 100 100 100 100 100 100 100 100 98 78 67 93 63 90 90 10 5 5 12 79 65 95 91 84 100 100 84 100 100 100 100 100 100 100 100 100 100 100
100 100 100 99 100 100 100 100 100 100 100 100 100 100 100 100 100 100 100 23 5 5 5 5 54 99 87 88 99 80 88 99 83 100 100 100 100 100 100 100 100 100 100 100
100 100 100 100 100 100 100 100 100 100 100 100 100 100 100 100 93 15 5 5 5 5 5 5 47 98 94 82 89 84 100 100 91 92 100 100 100 100 100 100 100 100 99 100
100 100 100 100 100 100 100 100 100 100 100 100 100 100 99 27 5 5 5 5 5 34 8 44 99 92 51 92 85 94 100 100 100 98 96 88 99 100 100 100 100 100 100 100
100 100 100 100 100 100 100 100 100 100 100 100 89 21 5 34 80 5 5 5 13 84 18 94 95 84 59 88 86 100 100 100 100 100 100 100 99 84 74 100 100 100 100 100
100 100 100 100 100 100 100 100 99 79 58 5 5 5 5 80 6 5 5 5 81 95 68 85 60 36 88 98 84 99 100 100 100 100 100 100 100 100 100 100 100 100 100 100
100 100 100 100 100 100 100 100 100 100 100 82 22 5 55 67 15 14 13 7 98 40 5 14 5 32 92 100 100 100 100 100 100 100 100 100 100 100 100 100 100 100 100 100
100 100 100 100 100 100 100 100 100 91 43 13 5 5 24 50 20 32 6 5 100 6 12 12 68 76 84 100 100 100 100 100 100 100 100 100 100 100 100 100 100 100 100 100
100 100 100 100 100 100 100 100 100 18 5 5 5 58 99 60 5 5 5 59 70 65 58 56 80 85 96 100 100 100 100 100 100 100 100 100 100 100 100 100 100 100 100 100
100 100 100 100 100 100 64 5 5 5 5 5 5 5 36 48 5 6 5 5 59 20 54 100 100 37 99 100 100 100 100 100 100 100 100 100 100 100 100 100 100 100 100 100
100 100 100 100 92 7 5 5 5 5 68 40 5 5 5 37 94 99 68 5 5 32 84 6 61 98 100 100 100 100 100 100 100 100 100 100 100 100 100 100 100 100 100 100
100 98 52 6 5 5 5 5 5 8 5 5 5 45 56 63 76 98 98 5 5 45 98 5 5 20 100 85 82 94 99 100 100 100 100 100 98 100 100 100 100 100 100 100
8 5 5 5 5 5 9 14 14 8 5 5 12 5 45 53 81 86 94 29 64 100 44 5 5 51 100 78 30 90 79 78 100 100 100 96 100 100 98 94 99 96 89 98
5 5 20 10 6 5 11 5 29 72 68 5 5 26 44 51 5 5 10 73 72 81 5 5 7 82 99 66 9 5 69 100 89 90 100 99 87 90 93 73 72 85 96 97
5 7 24 5 25 81 27 5 5 5 14 5 89 75 88 99 99 47 46 18 83 40 5 5 5 57 48 25 57 41 27 74 98 98 94 100 96 68 68 91 98 76 97 92
9 26 36 48 79 78 8 5 5 8 60 77 69 54 57 72 67 62 89 17 56 96 5 19 24 30 6 5 14 48 8 64 98 100 93 82 76 90 78 75 97 99 97 96
28 5 54 23 5 5 56 70 23 20 16 48 30 72 100 98 64 64 68 5 8 98 9 5 5 16 56 49 5 84 25 8 79 92 89 97 78 62 87 98 77 89 76 54
5 73 5 5 14 5 12 16 8 66 54 61 5 13 8 10 16 29 6 5 7 21 83 5 5 40 66 64 58 62 94 16 44 79 92 98 89 82 76 88 94 99 92 99
92 38 5 5 18 20 39 13 21 16 90 98 97 45 14 5 38 51 76 8 73 55 80 71 11 29 27 52 54 69 70 77 52 76 84 84 90 85 92 88 80 95 100 87
5 5 5 100 100 31 23 7 86 97 97 92 65 85 23 8 5 17 67 45 18 5 38 15 63 14 5 6 6 6 18 53 33 62 66 54 68 58 83 100 100 96 66 62